Wetterdaten: Donnerstag, 13.07.2017
Datum Zeit Temp. A. Pool Temp. Feuchte A. Luftdruck Regen Wind Richtung Richtung Sonnenschein ET UV Solar Taupunkt Windchill Windben Empfang
13.07.2017 00:00 18,3 C 25,6 C 87 % 1013,2 hPa 0,0 l/m 14,0 km/h (3 Bft) W-SW 237 0 min 0,000 mm 0,0 UV-I 0 W/m 16,1 C 15,5 C 20,9 km/h (4 Bft) 96,15 %
13.07.2017 00:02 18,3 C 25,6 C 87 % 1013,2 hPa 0,0 l/m 16,7 km/h (3 Bft) W-SW 238 0 min 0,000 mm 0,0 UV-I 0 W/m 16,1 C 14,8 C 20,9 km/h (4 Bft) 100,00 %
13.07.2017 00:04 18,3 C 25,6 C 87 % 1013,3 hPa 0,0 l/m 12,8 km/h (3 Bft) SW 236 0 min 0,000 mm 0,0 UV-I 0 W/m 16,1 C 15,8 C 19,3 km/h (3 Bft) 96,00 %
13.07.2017 00:06 18,2 C 25,6 C 87 % 1013,3 hPa 0,0 l/m 16,7 km/h (3 Bft) SW 219 0 min 0,000 mm 0,0 UV-I 0 W/m 16,0 C 14,6 C 24,1 km/h (4 Bft) 97,56 %
13.07.2017 00:08 18,2 C 25,6 C 87 % 1013,4 hPa 0,0 l/m 14,9 km/h (3 Bft) W-SW 238 0 min 0,000 mm 0,0 UV-I 0 W/m 16,0 C 15,1 C 27,4 km/h (4 Bft) 97,87 %
13.07.2017 00:10 18,2 C 25,6 C 87 % 1013,3 hPa 0,0 l/m 13,6 km/h (3 Bft) SW 236 0 min 0,000 mm 0,0 UV-I 0 W/m 16,0 C 15,5 C 25,7 km/h (4 Bft) 98,00 %
13.07.2017 00:12 18,2 C 25,6 C 87 % 1013,3 hPa 0,0 l/m 16,7 km/h (3 Bft) W-SW 257 0 min 0,000 mm 0,0 UV-I 0 W/m 16,0 C 14,6 C 25,7 km/h (4 Bft) 97,44 %
13.07.2017 00:14 18,2 C 25,6 C 87 % 1013,4 hPa 0,0 l/m 17,5 km/h (3 Bft) SW 217 0 min 0,000 mm 0,0 UV-I 0 W/m 16,0 C 14,4 C 27,4 km/h (4 Bft) 94,83 %
13.07.2017 00:16 18,1 C 25,6 C 87 % 1013,3 hPa 0,0 l/m 18,0 km/h (3 Bft) W 272 0 min 0,000 mm 0,0 UV-I 0 W/m 15,9 C 14,2 C 24,1 km/h (4 Bft) 100,00 %
13.07.2017 00:18 18,1 C 25,6 C 87 % 1013,3 hPa 0,0 l/m 17,9 km/h (3 Bft) SW 220 0 min 0,000 mm 0,0 UV-I 0 W/m 15,9 C 14,2 C 25,7 km/h (4 Bft) 95,12 %
13.07.2017 00:20 18,1 C 25,6 C 87 % 1013,4 hPa 0,0 l/m 15,2 km/h (3 Bft) W-SW 239 0 min 0,000 mm 0,0 UV-I 0 W/m 15,9 C 14,9 C 20,9 km/h (4 Bft) 98,21 %
13.07.2017 00:22 18,1 C 25,6 C 87 % 1013,4 hPa 0,0 l/m 17,8 km/h (3 Bft) W-SW 242 0 min 0,000 mm 0,0 UV-I 0 W/m 15,9 C 14,2 C 30,6 km/h (5 Bft) 97,56 %
13.07.2017 00:24 18,1 C 25,6 C 87 % 1013,4 hPa 0,0 l/m 13,8 km/h (3 Bft) SW 215 0 min 0,000 mm 0,0 UV-I 0 W/m 15,9 C 15,3 C 19,3 km/h (3 Bft) 97,87 %
13.07.2017 00:26 18,0 C 25,6 C 87 % 1013,5 hPa 0,0 l/m 17,3 km/h (3 Bft) SW 234 0 min 0,000 mm 0,0 UV-I 0 W/m 15,8 C 14,2 C 22,5 km/h (4 Bft) 94,64 %
13.07.2017 00:28 18,0 C 25,6 C 87 % 1013,5 hPa 0,0 l/m 17,6 km/h (3 Bft) W-SW 254 0 min 0,000 mm 0,0 UV-I 0 W/m 15,8 C 14,2 C 24,1 km/h (4 Bft) 94,74 %
13.07.2017 00:30 18,0 C 25,0 C 87 % 1013,6 hPa 0,0 l/m 15,3 km/h (3 Bft) W-SW 255 0 min 0,000 mm 0,0 UV-I 0 W/m 15,8 C 14,7 C 19,3 km/h (3 Bft) 94,34 %
13.07.2017 00:32 18,0 C 25,6 C 87 % 1013,7 hPa 0,0 l/m 16,2 km/h (3 Bft) SW 232 0 min 0,000 mm 0,0 UV-I 0 W/m 15,8 C 14,5 C 22,5 km/h (4 Bft) 97,44 %
13.07.2017 00:34 18,1 C 25,6 C 87 % 1013,7 hPa 0,0 l/m 15,4 km/h (3 Bft) S-SW 203 0 min 0,000 mm 0,0 UV-I 0 W/m 15,9 C 14,8 C 24,1 km/h (4 Bft) 94,64 %
13.07.2017 00:36 18,1 C 25,6 C 87 % 1013,7 hPa 0,0 l/m 14,4 km/h (3 Bft) W-SW 244 0 min 0,000 mm 0,0 UV-I 0 W/m 15,9 C 15,1 C 24,1 km/h (4 Bft) 94,74 %
13.07.2017 00:38 18,1 C 25,6 C 87 % 1013,6 hPa 0,0 l/m 12,8 km/h (3 Bft) SW 228 0 min 0,000 mm 0,0 UV-I 0 W/m 15,9 C 15,6 C 22,5 km/h (4 Bft) 96,00 %
13.07.2017 00:40 18,1 C 25,0 C 86 % 1013,7 hPa 0,0 l/m 15,7 km/h (3 Bft) W-NW 286 0 min 0,000 mm 0,0 UV-I 0 W/m 15,7 C 14,8 C 22,5 km/h (4 Bft) 96,23 %
13.07.2017 00:42 18,1 C 25,0 C 86 % 1013,7 hPa 0,0 l/m 18,6 km/h (3 Bft) SW 234 0 min 0,000 mm 0,0 UV-I 0 W/m 15,7 C 14,1 C 25,7 km/h (4 Bft) 95,74 %
13.07.2017 00:44 18,1 C 25,0 C 86 % 1013,7 hPa 0,0 l/m 14,0 km/h (3 Bft) SW 236 0 min 0,000 mm 0,0 UV-I 0 W/m 15,7 C 15,2 C 20,9 km/h (4 Bft) 95,12 %
13.07.2017 00:46 18,2 C 25,0 C 86 % 1013,8 hPa 0,0 l/m 14,1 km/h (3 Bft) W-SW 252 0 min 0,000 mm 0,0 UV-I 0 W/m 15,8 C 15,3 C 17,7 km/h (3 Bft) 96,00 %
13.07.2017 00:48 18,2 C 25,0 C 86 % 1013,8 hPa 0,0 l/m 18,8 km/h (3 Bft) W-SW 258 0 min 0,000 mm 0,0 UV-I 0 W/m 15,8 C 14,1 C 30,6 km/h (5 Bft) 95,74 %
13.07.2017 00:50 18,2 C 25,0 C 85 % 1013,9 hPa 0,0 l/m 20,3 km/h (4 Bft) W-SW 246 0 min 0,000 mm 0,0 UV-I 0 W/m 15,6 C 13,8 C 27,4 km/h (4 Bft) 86,67 %
13.07.2017 00:52 18,2 C 25,0 C 85 % 1013,9 hPa 0,0 l/m 17,7 km/h (3 Bft) W-SW 253 0 min 0,000 mm 0,0 UV-I 0 W/m 15,6 C 14,4 C 24,1 km/h (4 Bft) 96,20 %
13.07.2017 00:54 18,3 C 25,0 C 85 % 1014,0 hPa 0,0 l/m 16,7 km/h (3 Bft) W 274 0 min 0,000 mm 0,0 UV-I 0 W/m 15,7 C 14,8 C 24,1 km/h (4 Bft) 93,75 %
13.07.2017 00:56 18,3 C 25,0 C 84 % 1013,9 hPa 0,0 l/m 13,0 km/h (3 Bft) W-SW 241 0 min 0,000 mm 0,0 UV-I 0 W/m 15,5 C 15,8 C 19,3 km/h (3 Bft) 95,12 %
13.07.2017 00:58 18,3 C 25,0 C 84 % 1013,9 hPa 0,0 l/m 19,4 km/h (3 Bft) W 260 0 min 0,000 mm 0,0 UV-I 0 W/m 15,5 C 14,1 C 33,8 km/h (5 Bft) 98,11 %
13.07.2017 01:00 18,4 C 25,0 C 84 % 1014,0 hPa 0,0 l/m 16,0 km/h (3 Bft) W-SW 242 0 min 0,025 mm 0,0 UV-I 0 W/m 15,6 C 15,1 C 29,0 km/h (5 Bft) 96,55 %
13.07.2017 01:02 18,4 C 25,0 C 84 % 1014,0 hPa 0,0 l/m 17,2 km/h (3 Bft) W-SW 246 0 min 0,000 mm 0,0 UV-I 0 W/m 15,6 C 14,8 C 25,7 km/h (4 Bft) 94,34 %
13.07.2017 01:04 18,4 C 25,0 C 83 % 1014,0 hPa 0,0 l/m 13,0 km/h (3 Bft) W 271 0 min 0,000 mm 0,0 UV-I 0 W/m 15,5 C 15,9 C 19,3 km/h (3 Bft) 98,21 %
13.07.2017 01:06 18,4 C 25,0 C 83 % 1014,0 hPa 0,0 l/m 13,7 km/h (3 Bft) W-SW 240 0 min 0,000 mm 0,0 UV-I 0 W/m 15,5 C 15,7 C 20,9 km/h (4 Bft) 96,00 %
13.07.2017 01:08 18,4 C 25,0 C 83 % 1014,1 hPa 0,0 l/m 14,7 km/h (3 Bft) SW 235 0 min 0,000 mm 0,0 UV-I 0 W/m 15,5 C 15,4 C 27,4 km/h (4 Bft) 97,87 %
13.07.2017 01:10 18,4 C 25,0 C 83 % 1014,1 hPa 0,0 l/m 10,5 km/h (2 Bft) W-SW 248 0 min 0,000 mm 0,0 UV-I 0 W/m 15,5 C 16,7 C 17,7 km/h (3 Bft) 95,74 %
13.07.2017 01:12 18,4 C 25,0 C 83 % 1014,2 hPa 0,0 l/m 13,6 km/h (3 Bft) W-SW 257 0 min 0,000 mm 0,0 UV-I 0 W/m 15,5 C 15,7 C 22,5 km/h (4 Bft) 95,12 %
13.07.2017 01:14 18,4 C 25,0 C 83 % 1014,2 hPa 0,0 l/m 14,8 km/h (3 Bft) SW 231 0 min 0,000 mm 0,0 UV-I 0 W/m 15,5 C 15,4 C 22,5 km/h (4 Bft) 98,00 %
13.07.2017 01:16 18,4 C 25,0 C 83 % 1014,3 hPa 0,0 l/m 13,2 km/h (3 Bft) W-NW 298 0 min 0,000 mm 0,0 UV-I 0 W/m 15,5 C 15,8 C 20,9 km/h (4 Bft) 95,12 %
13.07.2017 01:18 18,4 C 25,0 C 82 % 1014,4 hPa 0,0 l/m 12,7 km/h (3 Bft) W-SW 244 0 min 0,000 mm 0,0 UV-I 0 W/m 15,3 C 16,0 C 19,3 km/h (3 Bft) 91,49 %
13.07.2017 01:20 18,4 C 25,0 C 82 % 1014,5 hPa 0,0 l/m 9,7 km/h (2 Bft) NW 322 0 min 0,000 mm 0,0 UV-I 0 W/m 15,3 C 17,0 C 20,9 km/h (4 Bft) 98,00 %
13.07.2017 01:22 18,4 C 25,0 C 82 % 1014,5 hPa 0,0 l/m 13,7 km/h (3 Bft) W-SW 237 0 min 0,000 mm 0,0 UV-I 0 W/m 15,3 C 15,7 C 19,3 km/h (3 Bft) 97,87 %
13.07.2017 01:24 18,3 C 25,0 C 81 % 1014,5 hPa 0,0 l/m 17,2 km/h (3 Bft) W-SW 246 0 min 0,000 mm 0,0 UV-I 0 W/m 15,0 C 14,6 C 29,0 km/h (5 Bft) 100,00 %
13.07.2017 01:26 18,3 C 25,0 C 80 % 1014,5 hPa 0,0 l/m 17,8 km/h (3 Bft) W 261 0 min 0,000 mm 0,0 UV-I 0 W/m 14,8 C 14,5 C 32,2 km/h (5 Bft) 98,51 %
13.07.2017 01:28 18,3 C 25,0 C 78 % 1014,5 hPa 0,0 l/m 17,3 km/h (3 Bft) N 355 0 min 0,000 mm 0,0 UV-I 0 W/m 14,4 C 14,6 C 32,2 km/h (5 Bft) 97,62 %
13.07.2017 01:30 18,2 C 25,0 C 78 % 1014,5 hPa 0,0 l/m 14,3 km/h (3 Bft) W-SW 240 0 min 0,000 mm 0,0 UV-I 0 W/m 14,3 C 15,3 C 29,0 km/h (5 Bft) 98,08 %
13.07.2017 01:32 18,2 C 25,0 C 78 % 1014,7 hPa 0,0 l/m 12,3 km/h (3 Bft) SW 223 0 min 0,000 mm 0,0 UV-I 0 W/m 14,3 C 15,9 C 19,3 km/h (3 Bft) 100,00 %
13.07.2017 01:34 18,1 C 25,0 C 78 % 1014,8 hPa 0,0 l/m 17,6 km/h (3 Bft) W-NW 295 0 min 0,000 mm 0,0 UV-I 0 W/m 14,2 C 14,3 C 35,4 km/h (5 Bft) 96,23 %
13.07.2017 01:36 18,0 C 25,0 C 77 % 1014,7 hPa 0,0 l/m 16,3 km/h (3 Bft) S-SW 192 0 min 0,000 mm 0,0 UV-I 0 W/m 13,9 C 14,5 C 25,7 km/h (4 Bft) 96,00 %
13.07.2017 01:38 17,9 C 25,0 C 77 % 1014,7 hPa 0,0 l/m 15,9 km/h (3 Bft) W-SW 244 0 min 0,000 mm 0,0 UV-I 0 W/m 13,8 C 14,5 C 35,4 km/h (5 Bft) 93,18 %
13.07.2017 01:40 17,8 C 25,0 C 77 % 1014,9 hPa 0,0 l/m 15,0 km/h (3 Bft) W-SW 237 0 min 0,000 mm 0,0 UV-I 0 W/m 13,7 C 14,6 C 32,2 km/h (5 Bft) 92,11 %
13.07.2017 01:42 17,7 C 25,0 C 76 % 1014,9 hPa 0,0 l/m 16,4 km/h (3 Bft) W-SW 250 0 min 0,000 mm 0,0 UV-I 0 W/m 13,4 C 14,1 C 25,7 km/h (4 Bft) 94,64 %
13.07.2017 01:44 17,7 C 25,0 C 76 % 1014,9 hPa 0,0 l/m 14,8 km/h (3 Bft) W 281 0 min 0,000 mm 0,0 UV-I 0 W/m 13,4 C 14,5 C 32,2 km/h (5 Bft) 94,44 %
13.07.2017 01:46 17,6 C 25,0 C 76 % 1015,0 hPa 0,0 l/m 14,6 km/h (3 Bft) W-SW 258 0 min 0,000 mm 0,0 UV-I 0 W/m 13,3 C 14,5 C 29,0 km/h (5 Bft) 92,68 %
13.07.2017 01:48 17,4 C 25,0 C 76 % 1015,1 hPa 0,0 l/m 13,9 km/h (3 Bft) W-SW 250 0 min 0,000 mm 0,0 UV-I 0 W/m 13,1 C 14,4 C 25,7 km/h (4 Bft) 95,12 %
13.07.2017 01:50 17,4 C 25,0 C 77 % 1015,2 hPa 0,0 l/m 12,8 km/h (3 Bft) W-SW 250 0 min 0,000 mm 0,0 UV-I 0 W/m 13,3 C 14,8 C 19,3 km/h (3 Bft) 97,87 %
13.07.2017 01:52 17,3 C 25,0 C 77 % 1015,2 hPa 0,0 l/m 13,2 km/h (3 Bft) W-SW 238 0 min 0,000 mm 0,0 UV-I 0 W/m 13,2 C 14,5 C 32,2 km/h (5 Bft) 96,43 %
13.07.2017 01:54 17,3 C 25,0 C 77 % 1015,2 hPa 0,0 l/m 12,1 km/h (2 Bft) W-SW 252 0 min 0,000 mm 0,0 UV-I 0 W/m 13,2 C 14,9 C 20,9 km/h (4 Bft) 97,37 %
13.07.2017 01:56 17,2 C 25,0 C 76 % 1015,1 hPa 0,0 l/m 17,2 km/h (3 Bft) SW 227 0 min 0,000 mm 0,0 UV-I 0 W/m 12,9 C 13,3 C 27,4 km/h (4 Bft) 97,56 %
13.07.2017 01:58 17,1 C 25,0 C 76 % 1015,2 hPa 0,0 l/m 12,7 km/h (3 Bft) W-SW 242 0 min 0,000 mm 0,0 UV-I 0 W/m 12,8 C 14,5 C 27,4 km/h (4 Bft) 98,21 %
13.07.2017 02:00 17,1 C 25,0 C 76 % 1015,4 hPa 0,0 l/m 15,3 km/h (3 Bft) W-NW 283 0 min 0,051 mm 0,0 UV-I 0 W/m 12,8 C 13,6 C 24,1 km/h (4 Bft) 95,12 %
13.07.2017 02:02 17,1 C 25,0 C 76 % 1015,4 hPa 0,0 l/m 12,0 km/h (2 Bft) W-SW 257 0 min 0,000 mm 0,0 UV-I 0 W/m 12,8 C 14,7 C 16,1 km/h (3 Bft) 93,22 %
13.07.2017 02:04 17,0 C 25,0 C 76 % 1015,4 hPa 0,0 l/m 12,0 km/h (2 Bft) W 260 0 min 0,000 mm 0,0 UV-I 0 W/m 12,7 C 14,6 C 27,4 km/h (4 Bft) 94,74 %
13.07.2017 02:06 16,9 C 25,0 C 76 % 1015,4 hPa 0,0 l/m 16,8 km/h (3 Bft) W 264 0 min 0,000 mm 0,0 UV-I 0 W/m 12,6 C 13,0 C 32,2 km/h (5 Bft) 93,62 %
13.07.2017 02:08 16,9 C 25,0 C 76 % 1015,4 hPa 0,0 l/m 14,6 km/h (3 Bft) W-SW 240 0 min 0,000 mm 0,0 UV-I 0 W/m 12,6 C 13,6 C 27,4 km/h (4 Bft) 94,00 %
13.07.2017 02:10 16,9 C 25,0 C 76 % 1015,5 hPa 0,0 l/m 12,8 km/h (3 Bft) SW 235 0 min 0,000 mm 0,0 UV-I 0 W/m 12,6 C 14,2 C 22,5 km/h (4 Bft) 94,44 %
13.07.2017 02:12 16,8 C 25,0 C 77 % 1015,4 hPa 0,0 l/m 8,7 km/h (2 Bft) W-SW 254 0 min 0,000 mm 0,0 UV-I 0 W/m 12,7 C 15,7 C 14,5 km/h (3 Bft) 94,92 %
13.07.2017 02:14 16,8 C 25,0 C 77 % 1015,5 hPa 0,0 l/m 11,1 km/h (2 Bft) W 269 0 min 0,000 mm 0,0 UV-I 0 W/m 12,7 C 14,7 C 19,3 km/h (3 Bft) 95,12 %
13.07.2017 02:16 16,7 C 25,0 C 77 % 1015,6 hPa 0,0 l/m 10,0 km/h (2 Bft) SW 236 0 min 0,000 mm 0,0 UV-I 0 W/m 12,6 C 15,0 C 16,1 km/h (3 Bft) 92,86 %
13.07.2017 02:18 16,6 C 25,0 C 77 % 1015,5 hPa 0,0 l/m 11,3 km/h (2 Bft) W-SW 251 0 min 0,000 mm 0,0 UV-I 0 W/m 12,5 C 14,4 C 19,3 km/h (3 Bft) 95,74 %
13.07.2017 02:20 16,6 C 25,0 C 78 % 1015,6 hPa 0,0 l/m 12,5 km/h (3 Bft) W-SW 246 0 min 0,000 mm 0,0 UV-I 0 W/m 12,7 C 13,9 C 22,5 km/h (4 Bft) 97,37 %
13.07.2017 02:22 16,6 C 25,0 C 79 % 1015,6 hPa 0,0 l/m 14,4 km/h (3 Bft) W-SW 244 0 min 0,000 mm 0,0 UV-I 0 W/m 12,9 C 13,3 C 20,9 km/h (4 Bft) 96,00 %
13.07.2017 02:24 16,5 C 25,0 C 79 % 1015,6 hPa 0,0 l/m 11,0 km/h (2 Bft) W-SW 247 0 min 0,000 mm 0,0 UV-I 0 W/m 12,8 C 14,4 C 19,3 km/h (3 Bft) 90,91 %
13.07.2017 02:26 16,5 C 25,0 C 79 % 1015,6 hPa 0,0 l/m 15,5 km/h (3 Bft) W-SW 243 0 min 0,000 mm 0,0 UV-I 0 W/m 12,8 C 12,9 C 22,5 km/h (4 Bft) 94,34 %
13.07.2017 02:28 16,4 C 25,0 C 80 % 1015,6 hPa 0,0 l/m 13,5 km/h (3 Bft) W-NW 295 0 min 0,000 mm 0,0 UV-I 0 W/m 12,9 C 13,4 C 30,6 km/h (5 Bft) 93,62 %
13.07.2017 02:30 16,4 C 25,0 C 79 % 1015,6 hPa 0,0 l/m 13,9 km/h (3 Bft) W-SW 256 0 min 0,000 mm 0,0 UV-I 0 W/m 12,7 C 13,2 C 24,1 km/h (4 Bft) 92,11 %
13.07.2017 02:32 16,4 C 25,0 C 79 % 1015,7 hPa 0,0 l/m 17,0 km/h (3 Bft) W-SW 242 0 min 0,000 mm 0,0 UV-I 0 W/m 12,7 C 12,3 C 25,7 km/h (4 Bft) 94,34 %
13.07.2017 02:34 16,3 C 25,0 C 79 % 1015,7 hPa 0,0 l/m 15,8 km/h (3 Bft) W 275 0 min 0,000 mm 0,0 UV-I 0 W/m 12,6 C 12,5 C 25,7 km/h (4 Bft) 92,00 %
13.07.2017 02:36 16,3 C 25,0 C 79 % 1015,8 hPa 0,0 l/m 11,9 km/h (2 Bft) W 279 0 min 0,000 mm 0,0 UV-I 0 W/m 12,6 C 13,8 C 22,5 km/h (4 Bft) 94,00 %
13.07.2017 02:38 16,3 C 25,0 C 79 % 1015,8 hPa 0,0 l/m 14,4 km/h (3 Bft) NW 311 0 min 0,000 mm 0,0 UV-I 0 W/m 12,6 C 13,0 C 27,4 km/h (4 Bft) 97,56 %
13.07.2017 02:40 16,3 C 25,0 C 79 % 1015,8 hPa 0,0 l/m 11,0 km/h (2 Bft) W-SW 250 0 min 0,000 mm 0,0 UV-I 0 W/m 12,6 C 14,1 C 25,7 km/h (4 Bft) 89,47 %
13.07.2017 02:42 16,2 C 25,0 C 79 % 1015,8 hPa 0,0 l/m 15,3 km/h (3 Bft) W-SW 242 0 min 0,000 mm 0,0 UV-I 0 W/m 12,6 C 12,6 C 25,7 km/h (4 Bft) 94,34 %
13.07.2017 02:44 16,2 C 25,0 C 79 % 1015,8 hPa 0,0 l/m 14,1 km/h (3 Bft) W-SW 254 0 min 0,000 mm 0,0 UV-I 0 W/m 12,6 C 12,9 C 22,5 km/h (4 Bft) 96,23 %
13.07.2017 02:46 16,2 C 25,0 C 79 % 1016,0 hPa 0,0 l/m 15,3 km/h (3 Bft) SW 229 0 min 0,000 mm 0,0 UV-I 0 W/m 12,6 C 12,6 C 20,9 km/h (4 Bft) 95,12 %
13.07.2017 02:48 16,1 C 25,0 C 80 % 1016,0 hPa 0,0 l/m 11,0 km/h (2 Bft) W-SW 248 0 min 0,000 mm 0,0 UV-I 0 W/m 12,6 C 13,9 C 16,1 km/h (3 Bft) 98,00 %
13.07.2017 02:50 16,1 C 25,0 C 80 % 1016,1 hPa 0,0 l/m 14,7 km/h (3 Bft) W-SW 242 0 min 0,000 mm 0,0 UV-I 0 W/m 12,6 C 12,6 C 22,5 km/h (4 Bft) 92,31 %
13.07.2017 02:52 16,1 C 25,0 C 81 % 1016,0 hPa 0,0 l/m 12,4 km/h (3 Bft) W-SW 244 0 min 0,000 mm 0,0 UV-I 0 W/m 12,8 C 13,4 C 22,5 km/h (4 Bft) 94,83 %
13.07.2017 02:54 15,9 C 25,0 C 81 % 1016,2 hPa 0,0 l/m 14,2 km/h (3 Bft) W-SW 246 0 min 0,000 mm 0,0 UV-I 0 W/m 12,6 C 12,5 C 22,5 km/h (4 Bft) 95,24 %
13.07.2017 02:56 15,9 C 25,0 C 81 % 1016,0 hPa 0,0 l/m 16,0 km/h (3 Bft) W 267 0 min 0,000 mm 0,0 UV-I 0 W/m 12,6 C 12,0 C 24,1 km/h (4 Bft) 94,34 %
13.07.2017 02:58 15,9 C 25,0 C 81 % 1016,1 hPa 0,0 l/m 16,2 km/h (3 Bft) W-SW 240 0 min 0,000 mm 0,0 UV-I 0 W/m 12,6 C 11,9 C 27,4 km/h (4 Bft) 96,55 %
13.07.2017 03:00 15,8 C 25,0 C 80 % 1016,1 hPa 0,0 l/m 13,2 km/h (3 Bft) W 263 0 min 0,051 mm 0,0 UV-I 0 W/m 12,4 C 12,8 C 25,7 km/h (4 Bft) 94,64 %
13.07.2017 03:02 15,8 C 25,0 C 80 % 1016,2 hPa 0,0 l/m 12,2 km/h (2 Bft) SW 236 0 min 0,000 mm 0,0 UV-I 0 W/m 12,4 C 13,1 C 17,7 km/h (3 Bft) 100,00 %
13.07.2017 03:04 15,8 C 25,0 C 80 % 1016,2 hPa 0,0 l/m 9,7 km/h (2 Bft) W-SW 257 0 min 0,000 mm 0,0 UV-I 0 W/m 12,4 C 14,1 C 17,7 km/h (3 Bft) 97,56 %
13.07.2017 03:06 15,7 C 25,0 C 80 % 1016,3 hPa 0,0 l/m 9,9 km/h (2 Bft) W-SW 244 0 min 0,000 mm 0,0 UV-I 0 W/m 12,3 C 13,9 C 16,1 km/h (3 Bft) 98,21 %
13.07.2017 03:08 15,7 C 25,0 C 80 % 1016,3 hPa 0,0 l/m 9,1 km/h (2 Bft) W-SW 254 0 min 0,000 mm 0,0 UV-I 0 W/m 12,3 C 14,3 C 14,5 km/h (3 Bft) 96,15 %
13.07.2017 03:10 15,7 C 25,0 C 81 % 1016,3 hPa 0,0 l/m 9,1 km/h (2 Bft) SW 234 0 min 0,000 mm 0,0 UV-I 0 W/m 12,4 C 14,3 C 14,5 km/h (3 Bft) 98,21 %
13.07.2017 03:12 15,6 C 25,0 C 81 % 1016,4 hPa 0,0 l/m 10,3 km/h (2 Bft) SW 233 0 min 0,000 mm 0,0 UV-I 0 W/m 12,3 C 13,7 C 16,1 km/h (3 Bft) 98,11 %
13.07.2017 03:14 15,6 C 25,0 C 81 % 1016,4 hPa 0,0 l/m 13,3 km/h (3 Bft) W-SW 240 0 min 0,000 mm 0,0 UV-I 0 W/m 12,3 C 12,5 C 19,3 km/h (3 Bft) 96,23 %
13.07.2017 03:16 15,6 C 25,0 C 81 % 1016,4 hPa 0,0 l/m 11,4 km/h (2 Bft) W-SW 242 0 min 0,000 mm 0,0 UV-I 0 W/m 12,3 C 13,2 C 20,9 km/h (4 Bft) 93,18 %
13.07.2017 03:18 15,6 C 25,0 C 82 % 1016,5 hPa 0,0 l/m 11,5 km/h (2 Bft) W-SW 254 0 min 0,000 mm 0,0 UV-I 0 W/m 12,5 C 13,2 C 16,1 km/h (3 Bft) 95,74 %
13.07.2017 03:20 15,6 C 25,0 C 82 % 1016,5 hPa 0,0 l/m 12,6 km/h (3 Bft) W-SW 242 0 min 0,000 mm 0,0 UV-I 0 W/m 12,5 C 12,7 C 19,3 km/h (3 Bft) 97,87 %
13.07.2017 03:22 15,6 C 25,0 C 82 % 1016,6 hPa 0,0 l/m 10,6 km/h (2 Bft) SW 217 0 min 0,000 mm 0,0 UV-I 0 W/m 12,5 C 13,5 C 14,5 km/h (3 Bft) 98,00 %
13.07.2017 03:24 15,5 C 25,0 C 82 % 1016,5 hPa 0,0 l/m 10,9 km/h (2 Bft) W-NW 282 0 min 0,000 mm 0,0 UV-I 0 W/m 12,4 C 13,3 C 17,7 km/h (3 Bft) 92,11 %
13.07.2017 03:26 15,5 C 25,0 C 82 % 1016,4 hPa 0,0 l/m 12,0 km/h (2 Bft) W-SW 258 0 min 0,000 mm 0,0 UV-I 0 W/m 12,4 C 12,8 C 16,1 km/h (3 Bft) 97,92 %
13.07.2017 03:28 15,5 C 25,0 C 83 % 1016,5 hPa 0,0 l/m 12,0 km/h (2 Bft) W-SW 248 0 min 0,000 mm 0,0 UV-I 0 W/m 12,6 C 12,8 C 16,1 km/h (3 Bft) 94,74 %
13.07.2017 03:30 15,4 C 25,0 C 83 % 1016,5 hPa 0,0 l/m 14,8 km/h (3 Bft) W-SW 254 0 min 0,000 mm 0,0 UV-I 0 W/m 12,5 C 11,7 C 20,9 km/h (4 Bft) 94,64 %
13.07.2017 03:32 15,4 C 25,0 C 83 % 1016,5 hPa 0,0 l/m 11,3 km/h (2 Bft) W-SW 244 0 min 0,000 mm 0,0 UV-I 0 W/m 12,5 C 13,0 C 17,7 km/h (3 Bft) 97,87 %
13.07.2017 03:34 15,4 C 25,0 C 83 % 1016,6 hPa 0,0 l/m 17,1 km/h (3 Bft) W-SW 244 0 min 0,000 mm 0,0 UV-I 0 W/m 12,5 C 11,0 C 25,7 km/h (4 Bft) 97,87 %
13.07.2017 03:36 15,4 C 24,4 C 83 % 1016,5 hPa 0,0 l/m 12,0 km/h (2 Bft) SW 228 0 min 0,000 mm 0,0 UV-I 0 W/m 12,5 C 12,7 C 19,3 km/h (3 Bft) 98,11 %
13.07.2017 03:38 15,4 C 24,4 C 83 % 1016,5 hPa 0,0 l/m 12,6 km/h (3 Bft) W-SW 239 0 min 0,000 mm 0,0 UV-I 0 W/m 12,5 C 12,5 C 17,7 km/h (3 Bft) 97,37 %
13.07.2017 03:40 15,4 C 24,4 C 83 % 1016,5 hPa 0,0 l/m 14,5 km/h (3 Bft) W-SW 244 0 min 0,000 mm 0,0 UV-I 0 W/m 12,5 C 11,8 C 22,5 km/h (4 Bft) 98,21 %
13.07.2017 03:42 15,4 C 24,4 C 83 % 1016,5 hPa 0,0 l/m 12,3 km/h (3 Bft) S-SW 207 0 min 0,000 mm 0,0 UV-I 0 W/m 12,5 C 12,6 C 16,1 km/h (3 Bft) 97,56 %
13.07.2017 03:44 15,4 C 24,4 C 82 % 1016,5 hPa 0,0 l/m 13,0 km/h (3 Bft) W-SW 245 0 min 0,000 mm 0,0 UV-I 0 W/m 12,3 C 12,4 C 20,9 km/h (4 Bft) 100,00 %
13.07.2017 03:46 15,5 C 24,4 C 82 % 1016,6 hPa 0,0 l/m 14,7 km/h (3 Bft) SW 236 0 min 0,000 mm 0,0 UV-I 0 W/m 12,4 C 11,9 C 19,3 km/h (3 Bft) 97,37 %
13.07.2017 03:48 15,5 C 24,4 C 82 % 1016,6 hPa 0,0 l/m 15,9 km/h (3 Bft) SW 236 0 min 0,000 mm 0,0 UV-I 0 W/m 12,4 C 11,5 C 20,9 km/h (4 Bft) 100,00 %
13.07.2017 03:50 15,6 C 24,4 C 82 % 1016,6 hPa 0,0 l/m 10,2 km/h (2 Bft) SW 232 0 min 0,000 mm 0,0 UV-I 0 W/m 12,5 C 13,7 C 16,1 km/h (3 Bft) 96,23 %
13.07.2017 03:52 15,6 C 24,4 C 82 % 1016,7 hPa 0,0 l/m 15,4 km/h (3 Bft) SW 225 0 min 0,000 mm 0,0 UV-I 0 W/m 12,5 C 11,8 C 24,1 km/h (4 Bft) 97,56 %
13.07.2017 03:54 15,6 C 24,4 C 82 % 1016,7 hPa 0,0 l/m 13,4 km/h (3 Bft) W 260 0 min 0,000 mm 0,0 UV-I 0 W/m 12,5 C 12,5 C 27,4 km/h (4 Bft) 96,00 %
13.07.2017 03:56 15,6 C 24,4 C 82 % 1016,9 hPa 0,0 l/m 15,6 km/h (3 Bft) W 261 0 min 0,000 mm 0,0 UV-I 0 W/m 12,5 C 11,7 C 19,3 km/h (3 Bft) 98,11 %
13.07.2017 03:58 15,6 C 24,4 C 82 % 1016,9 hPa 0,0 l/m 14,8 km/h (3 Bft) W 260 0 min 0,000 mm 0,0 UV-I 0 W/m 12,5 C 12,0 C 29,0 km/h (5 Bft) 96,30 %
13.07.2017 04:00 15,6 C 24,4 C 81 % 1016,9 hPa 0,0 l/m 18,7 km/h (3 Bft) W-SW 255 0 min 0,000 mm 0,0 UV-I 0 W/m 12,3 C 10,9 C 29,0 km/h (5 Bft) 98,18 %
13.07.2017 04:05 15,7 C 24,4 C 81 % 1016,9 hPa 0,0 l/m 17,9 km/h (3 Bft) W-SW 248 0 min 0,025 mm 0,0 UV-I 0 W/m 12,4 C 11,2 C 30,6 km/h (5 Bft) 4,76 %
13.07.2017 04:06 15,7 C 24,4 C 81 % 1016,9 hPa 0,0 l/m 18,2 km/h (3 Bft) SW 236 0 min 0,000 mm 0,0 UV-I 0 W/m 12,4 C 11,1 C 22,5 km/h (4 Bft) 100,00 %
13.07.2017 04:08 15,7 C 24,4 C 81 % 1016,9 hPa 0,0 l/m 13,7 km/h (3 Bft) SW 236 0 min 0,000 mm 0,0 UV-I 0 W/m 12,4 C 12,5 C 20,9 km/h (4 Bft) 94,23 %
13.07.2017 04:10 15,7 C 24,4 C 81 % 1016,9 hPa 0,0 l/m 9,1 km/h (2 Bft) W-NW 290 0 min 0,000 mm 0,0 UV-I 0 W/m 12,4 C 14,3 C 17,7 km/h (3 Bft) 97,62 %
13.07.2017 04:12 15,7 C 24,4 C 81 % 1016,9 hPa 0,0 l/m 11,5 km/h (2 Bft) W 260 0 min 0,000 mm 0,0 UV-I 0 W/m 12,4 C 13,3 C 19,3 km/h (3 Bft) 98,11 %
13.07.2017 04:14 15,7 C 24,4 C 81 % 1016,9 hPa 0,0 l/m 9,1 km/h (2 Bft) W-SW 240 0 min 0,000 mm 0,0 UV-I 0 W/m 12,4 C 14,3 C 17,7 km/h (3 Bft) 97,56 %
13.07.2017 04:16 15,7 C 24,4 C 81 % 1017,0 hPa 0,0 l/m 9,7 km/h (2 Bft) W 259 0 min 0,000 mm 0,0 UV-I 0 W/m 12,4 C 14,0 C 17,7 km/h (3 Bft) 96,23 %
13.07.2017 04:18 15,6 C 24,4 C 81 % 1017,0 hPa 0,0 l/m 15,6 km/h (3 Bft) W 263 0 min 0,000 mm 0,0 UV-I 0 W/m 12,3 C 11,7 C 24,1 km/h (4 Bft) 95,12 %
13.07.2017 04:20 15,7 C 24,4 C 81 % 1017,0 hPa 0,0 l/m 12,5 km/h (3 Bft) W-SW 241 0 min 0,000 mm 0,0 UV-I 0 W/m 12,4 C 12,9 C 19,3 km/h (3 Bft) 97,56 %
13.07.2017 04:22 15,6 C 24,4 C 81 % 1017,0 hPa 0,0 l/m 16,0 km/h (3 Bft) W 270 0 min 0,000 mm 0,0 UV-I 0 W/m 12,3 C 11,6 C 29,0 km/h (5 Bft) 94,92 %
13.07.2017 04:24 15,7 C 24,4 C 81 % 1017,0 hPa 0,0 l/m 16,7 km/h (3 Bft) W-SW 249 0 min 0,000 mm 0,0 UV-I 0 W/m 12,4 C 11,5 C 22,5 km/h (4 Bft) 97,56 %
13.07.2017 04:26 15,7 C 24,4 C 81 % 1017,0 hPa 0,0 l/m 13,7 km/h (3 Bft) W-SW 252 0 min 0,000 mm 0,0 UV-I 0 W/m 12,4 C 12,5 C 19,3 km/h (3 Bft) 95,12 %
13.07.2017 04:28 15,6 C 24,4 C 81 % 1017,0 hPa 0,0 l/m 12,0 km/h (2 Bft) W 259 0 min 0,000 mm 0,0 UV-I 0 W/m 12,3 C 13,0 C 17,7 km/h (3 Bft) 100,00 %
13.07.2017 04:30 15,6 C 24,4 C 81 % 1017,0 hPa 0,0 l/m 11,2 km/h (2 Bft) W 259 0 min 0,000 mm 0,0 UV-I 0 W/m 12,3 C 13,3 C 16,1 km/h (3 Bft) 96,00 %
13.07.2017 04:32 15,6 C 24,4 C 81 % 1016,9 hPa 0,0 l/m 15,9 km/h (3 Bft) W-SW 241 0 min 0,000 mm 0,0 UV-I 0 W/m 12,3 C 11,6 C 25,7 km/h (4 Bft) 97,87 %
13.07.2017 04:34 15,6 C 24,4 C 81 % 1017,0 hPa 0,0 l/m 15,1 km/h (3 Bft) W-SW 254 0 min 0,000 mm 0,0 UV-I 0 W/m 12,3 C 11,9 C 20,9 km/h (4 Bft) 95,74 %
13.07.2017 04:36 15,6 C 24,4 C 81 % 1017,0 hPa 0,0 l/m 13,5 km/h (3 Bft) W-SW 254 0 min 0,000 mm 0,0 UV-I 0 W/m 12,3 C 12,4 C 20,9 km/h (4 Bft) 97,14 %
13.07.2017 04:38 15,6 C 24,4 C 81 % 1017,0 hPa 0,0 l/m 10,4 km/h (2 Bft) SW 234 0 min 0,000 mm 0,0 UV-I 0 W/m 12,3 C 13,6 C 14,5 km/h (3 Bft) 92,86 %
13.07.2017 04:40 15,6 C 24,4 C 81 % 1017,0 hPa 0,0 l/m 12,2 km/h (2 Bft) W-SW 252 0 min 0,000 mm 0,0 UV-I 0 W/m 12,3 C 12,9 C 19,3 km/h (3 Bft) 96,30 %
13.07.2017 04:42 15,6 C 24,4 C 81 % 1017,0 hPa 0,0 l/m 9,6 km/h (2 Bft) W-SW 256 0 min 0,000 mm 0,0 UV-I 0 W/m 12,3 C 14,0 C 16,1 km/h (3 Bft) 95,52 %
13.07.2017 04:44 15,6 C 24,4 C 81 % 1017,0 hPa 0,0 l/m 14,0 km/h (3 Bft) SW 233 0 min 0,000 mm 0,0 UV-I 0 W/m 12,3 C 12,2 C 19,3 km/h (3 Bft) 96,00 %
13.07.2017 04:46 15,6 C 24,4 C 81 % 1017,0 hPa 0,0 l/m 12,5 km/h (3 Bft) W 263 0 min 0,000 mm 0,0 UV-I 0 W/m 12,3 C 12,8 C 20,9 km/h (4 Bft) 94,87 %
13.07.2017 04:48 15,6 C 24,4 C 81 % 1016,9 hPa 0,0 l/m 14,7 km/h (3 Bft) W 259 0 min 0,000 mm 0,0 UV-I 0 W/m 12,3 C 12,0 C 20,9 km/h (4 Bft) 95,74 %
13.07.2017 04:50 15,5 C 24,4 C 81 % 1017,0 hPa 0,0 l/m 14,0 km/h (3 Bft) W-NW 288 0 min 0,000 mm 0,0 UV-I 0 W/m 12,3 C 12,1 C 24,1 km/h (4 Bft) 94,00 %
13.07.2017 04:52 15,5 C 24,4 C 81 % 1016,9 hPa 0,0 l/m 13,5 km/h (3 Bft) W 263 0 min 0,000 mm 0,0 UV-I 0 W/m 12,3 C 12,3 C 20,9 km/h (4 Bft) 94,34 %
13.07.2017 04:54 15,4 C 24,4 C 81 % 1016,9 hPa 0,0 l/m 11,8 km/h (2 Bft) SW 216 0 min 0,000 mm 0,0 UV-I 0 W/m 12,2 C 12,8 C 19,3 km/h (3 Bft) 94,74 %
13.07.2017 04:56 15,4 C 24,4 C 81 % 1016,9 hPa 0,0 l/m 12,4 km/h (3 Bft) SW 236 0 min 0,000 mm 0,0 UV-I 0 W/m 12,2 C 12,6 C 24,1 km/h (4 Bft) 96,00 %
13.07.2017 04:58 15,4 C 24,4 C 81 % 1016,9 hPa 0,0 l/m 12,7 km/h (3 Bft) SW 217 0 min 0,000 mm 0,0 UV-I 0 W/m 12,2 C 12,5 C 19,3 km/h (3 Bft) 97,56 %
13.07.2017 05:00 15,4 C 24,4 C 81 % 1016,9 hPa 0,0 l/m 17,0 km/h (3 Bft) S-SW 207 0 min 0,026 mm 0,0 UV-I 0 W/m 12,2 C 11,1 C 29,0 km/h (5 Bft) 93,62 %
13.07.2017 05:02 15,4 C 24,4 C 81 % 1016,9 hPa 0,0 l/m 12,7 km/h (3 Bft) W-SW 244 0 min 0,000 mm 0,0 UV-I 0 W/m 12,2 C 12,5 C 19,3 km/h (3 Bft) 94,34 %
13.07.2017 05:04 15,4 C 24,4 C 81 % 1017,0 hPa 0,0 l/m 16,6 km/h (3 Bft) SW 227 0 min 0,000 mm 0,0 UV-I 5 W/m 12,2 C 11,2 C 24,1 km/h (4 Bft) 95,12 %
13.07.2017 05:06 15,4 C 24,4 C 81 % 1017,1 hPa 0,0 l/m 14,3 km/h (3 Bft) SW 215 0 min 0,000 mm 0,0 UV-I 5 W/m 12,2 C 11,9 C 20,9 km/h (4 Bft) 98,00 %
13.07.2017 05:08 15,3 C 24,4 C 81 % 1017,1 hPa 0,0 l/m 12,6 km/h (3 Bft) W-SW 246 0 min 0,000 mm 0,0 UV-I 5 W/m 12,1 C 12,4 C 17,7 km/h (3 Bft) 98,11 %
13.07.2017 05:10 15,3 C 24,4 C 81 % 1017,2 hPa 0,0 l/m 13,5 km/h (3 Bft) W-SW 246 0 min 0,000 mm 0,0 UV-I 5 W/m 12,1 C 12,1 C 22,5 km/h (4 Bft) 97,73 %
13.07.2017 05:12 15,3 C 24,4 C 81 % 1017,1 hPa 0,0 l/m 14,9 km/h (3 Bft) W-SW 250 0 min 0,000 mm 0,0 UV-I 7 W/m 12,1 C 11,6 C 22,5 km/h (4 Bft) 97,56 %
13.07.2017 05:14 15,3 C 24,4 C 81 % 1017,1 hPa 0,0 l/m 16,1 km/h (3 Bft) W-SW 245 0 min 0,000 mm 0,0 UV-I 7 W/m 12,1 C 11,2 C 25,7 km/h (4 Bft) 92,45 %
13.07.2017 05:16 15,3 C 24,4 C 81 % 1017,2 hPa 0,0 l/m 15,1 km/h (3 Bft) W-SW 244 0 min 0,000 mm 0,0 UV-I 7 W/m 12,1 C 11,5 C 27,4 km/h (4 Bft) 98,00 %
13.07.2017 05:18 15,3 C 24,4 C 81 % 1017,1 hPa 0,0 l/m 15,8 km/h (3 Bft) W-SW 248 0 min 0,000 mm 0,0 UV-I 9 W/m 12,1 C 11,3 C 25,7 km/h (4 Bft) 97,37 %
13.07.2017 05:20 15,3 C 24,4 C 81 % 1017,3 hPa 0,0 l/m 14,2 km/h (3 Bft) W-SW 242 0 min 0,000 mm 0,0 UV-I 9 W/m 12,1 C 11,8 C 20,9 km/h (4 Bft) 97,44 %
13.07.2017 05:22 15,3 C 24,4 C 81 % 1017,1 hPa 0,0 l/m 13,2 km/h (3 Bft) W-SW 244 0 min 0,000 mm 0,0 UV-I 9 W/m 12,1 C 12,2 C 19,3 km/h (3 Bft) 98,28 %
13.07.2017 05:24 15,2 C 24,4 C 82 % 1017,1 hPa 0,0 l/m 13,4 km/h (3 Bft) SW 230 0 min 0,000 mm 0,0 UV-I 9 W/m 12,1 C 12,0 C 19,3 km/h (3 Bft) 97,78 %
13.07.2017 05:26 15,2 C 24,4 C 82 % 1017,1 hPa 0,0 l/m 13,2 km/h (3 Bft) S-SW 206 0 min 0,000 mm 0,0 UV-I 11 W/m 12,1 C 12,1 C 20,9 km/h (4 Bft) 96,00 %
13.07.2017 05:28 15,2 C 24,4 C 81 % 1017,2 hPa 0,0 l/m 13,3 km/h (3 Bft) W 259 0 min 0,000 mm 0,0 UV-I 11 W/m 12,0 C 12,0 C 22,5 km/h (4 Bft) 96,00 %
13.07.2017 05:30 15,2 C 24,4 C 81 % 1017,2 hPa 0,0 l/m 14,5 km/h (3 Bft) W-SW 250 2 min 0,000 mm 0,0 UV-I 12 W/m 12,0 C 11,6 C 19,3 km/h (3 Bft) 94,74 %
13.07.2017 05:32 15,2 C 24,4 C 81 % 1017,2 hPa 0,0 l/m 12,8 km/h (3 Bft) W-SW 257 2 min 0,000 mm 0,0 UV-I 14 W/m 12,0 C 12,2 C 19,3 km/h (3 Bft) 96,00 %
13.07.2017 05:34 15,2 C 24,4 C 81 % 1017,2 hPa 0,0 l/m 10,9 km/h (2 Bft) W 266 2 min 0,000 mm 0,0 UV-I 16 W/m 12,0 C 12,9 C 17,7 km/h (3 Bft) 95,45 %
13.07.2017 05:36 15,2 C 24,4 C 81 % 1017,3 hPa 0,0 l/m 12,3 km/h (3 Bft) W-SW 252 2 min 0,000 mm 0,0 UV-I 19 W/m 12,0 C 12,4 C 17,7 km/h (3 Bft) 94,34 %
13.07.2017 05:38 15,3 C 24,4 C 81 % 1017,3 hPa 0,0 l/m 12,7 km/h (3 Bft) W 268 2 min 0,000 mm 0,0 UV-I 20 W/m 12,1 C 12,4 C 19,3 km/h (3 Bft) 94,74 %
13.07.2017 05:40 15,3 C 24,4 C 82 % 1017,3 hPa 0,0 l/m 11,3 km/h (2 Bft) W-SW 250 0 min 0,000 mm 0,0 UV-I 21 W/m 12,2 C 12,9 C 19,3 km/h (3 Bft) 92,86 %
13.07.2017 05:42 15,3 C 24,4 C 81 % 1017,3 hPa 0,0 l/m 11,8 km/h (2 Bft) SW 218 0 min 0,000 mm 0,0 UV-I 23 W/m 12,1 C 12,7 C 16,1 km/h (3 Bft) 94,74 %
13.07.2017 05:44 15,3 C 24,4 C 81 % 1017,3 hPa 0,0 l/m 13,1 km/h (3 Bft) W-SW 253 0 min 0,000 mm 0,0 UV-I 27 W/m 12,1 C 12,2 C 19,3 km/h (3 Bft) 92,00 %
13.07.2017 05:46 15,3 C 24,4 C 81 % 1017,4 hPa 0,0 l/m 15,4 km/h (3 Bft) W-SW 243 0 min 0,000 mm 0,0 UV-I 28 W/m 12,1 C 11,4 C 22,5 km/h (4 Bft) 97,87 %
13.07.2017 05:48 15,4 C 24,4 C 81 % 1017,3 hPa 0,0 l/m 17,2 km/h (3 Bft) W-SW 240 0 min 0,000 mm 0,0 UV-I 31 W/m 12,2 C 11,0 C 20,9 km/h (4 Bft) 97,87 %
13.07.2017 05:50 15,4 C 24,4 C 81 % 1017,4 hPa 0,0 l/m 10,8 km/h (2 Bft) W 259 2 min 0,000 mm 0,0 UV-I 49 W/m 12,2 C 13,2 C 17,7 km/h (3 Bft) 97,73 %
13.07.2017 05:52 15,4 C 24,4 C 81 % 1017,4 hPa 0,0 l/m 11,5 km/h (2 Bft) W-SW 248 2 min 0,000 mm 0,0 UV-I 63 W/m 12,2 C 12,9 C 19,3 km/h (3 Bft) 96,23 %
13.07.2017 05:54 15,4 C 24,4 C 81 % 1017,5 hPa 0,0 l/m 11,6 km/h (2 Bft) W-SW 252 2 min 0,000 mm 0,0 UV-I 56 W/m 12,2 C 12,9 C 17,7 km/h (3 Bft) 95,12 %
13.07.2017 05:56 15,5 C 24,4 C 81 % 1017,4 hPa 0,0 l/m 14,3 km/h (3 Bft) W-SW 256 2 min 0,000 mm 0,0 UV-I 57 W/m 12,3 C 12,0 C 24,1 km/h (4 Bft) 96,23 %
13.07.2017 05:58 15,5 C 24,4 C 81 % 1017,4 hPa 0,0 l/m 9,9 km/h (2 Bft) SW 232 2 min 0,000 mm 0,0 UV-I 56 W/m 12,3 C 13,7 C 16,1 km/h (3 Bft) 96,00 %
13.07.2017 06:00 15,5 C 24,4 C 81 % 1017,4 hPa 0,0 l/m 11,3 km/h (2 Bft) W-SW 242 2 min 0,051 mm 0,0 UV-I 50 W/m 12,3 C 13,1 C 20,9 km/h (4 Bft) 97,22 %
13.07.2017 06:02 15,6 C 24,4 C 81 % 1017,4 hPa 0,0 l/m 13,4 km/h (3 Bft) W-SW 253 2 min 0,000 mm 0,0 UV-I 54 W/m 12,3 C 12,5 C 20,9 km/h (4 Bft) 96,36 %
13.07.2017 06:04 15,6 C 24,4 C 81 % 1017,5 hPa 0,0 l/m 14,8 km/h (3 Bft) W-SW 251 2 min 0,000 mm 0,0 UV-I 75 W/m 12,3 C 12,0 C 24,1 km/h (4 Bft) 94,00 %
13.07.2017 06:06 15,6 C 24,4 C 81 % 1017,4 hPa 0,0 l/m 13,7 km/h (3 Bft) W 274 2 min 0,000 mm 0,0 UV-I 69 W/m 12,3 C 12,3 C 20,9 km/h (4 Bft) 94,87 %
13.07.2017 06:08 15,6 C 24,4 C 81 % 1017,4 hPa 0,0 l/m 13,8 km/h (3 Bft) W-SW 253 2 min 0,000 mm 0,0 UV-I 77 W/m 12,3 C 12,3 C 20,9 km/h (4 Bft) 94,00 %
13.07.2017 06:10 15,6 C 24,4 C 81 % 1017,5 hPa 0,0 l/m 13,2 km/h (3 Bft) W 259 2 min 0,000 mm 0,0 UV-I 82 W/m 12,3 C 12,5 C 20,9 km/h (4 Bft) 96,00 %
13.07.2017 06:12 15,6 C 24,4 C 81 % 1017,4 hPa 0,0 l/m 14,3 km/h (3 Bft) SW 219 2 min 0,000 mm 0,0 UV-I 98 W/m 12,3 C 12,1 C 27,4 km/h (4 Bft) 93,62 %
13.07.2017 06:14 15,7 C 24,4 C 81 % 1017,5 hPa 0,0 l/m 14,8 km/h (3 Bft) W 278 2 min 0,000 mm 0,0 UV-I 130 W/m 12,4 C 12,1 C 24,1 km/h (4 Bft) 95,74 %
13.07.2017 06:16 15,7 C 23,9 C 80 % 1017,5 hPa 0,0 l/m 14,6 km/h (3 Bft) W-SW 240 2 min 0,000 mm 0,0 UV-I 144 W/m 12,3 C 12,2 C 22,5 km/h (4 Bft) 92,31 %
13.07.2017 06:18 15,7 C 23,9 C 80 % 1017,5 hPa 0,0 l/m 14,9 km/h (3 Bft) W-SW 246 2 min 0,000 mm 0,0 UV-I 145 W/m 12,3 C 12,1 C 22,5 km/h (4 Bft) 93,85 %
13.07.2017 06:20 15,8 C 23,9 C 80 % 1017,5 hPa 0,0 l/m 15,4 km/h (3 Bft) SW 232 2 min 0,000 mm 0,0 UV-I 133 W/m 12,4 C 12,0 C 24,1 km/h (4 Bft) 95,12 %
13.07.2017 06:22 15,8 C 23,9 C 80 % 1017,6 hPa 0,0 l/m 15,7 km/h (3 Bft) W-SW 241 2 min 0,000 mm 0,0 UV-I 111 W/m 12,4 C 11,9 C 24,1 km/h (4 Bft) 96,23 %
13.07.2017 06:24 15,9 C 23,9 C 80 % 1017,5 hPa 0,0 l/m 15,1 km/h (3 Bft) W 260 0 min 0,000 mm 0,0 UV-I 75 W/m 12,5 C 12,3 C 20,9 km/h (4 Bft) 92,68 %
13.07.2017 06:26 15,9 C 23,9 C 80 % 1017,5 hPa 0,0 l/m 17,1 km/h (3 Bft) W-SW 243 0 min 0,000 mm 0,0 UV-I 63 W/m 12,5 C 11,7 C 22,5 km/h (4 Bft) 94,64 %
13.07.2017 06:28 15,9 C 23,9 C 80 % 1017,5 hPa 0,0 l/m 14,5 km/h (3 Bft) W-SW 258 0 min 0,000 mm 0,0 UV-I 68 W/m 12,5 C 12,4 C 19,3 km/h (3 Bft) 93,62 %
13.07.2017 06:30 15,9 C 23,9 C 80 % 1017,5 hPa 0,0 l/m 16,6 km/h (3 Bft) W 263 0 min 0,000 mm 0,0 UV-I 72 W/m 12,5 C 11,8 C 25,7 km/h (4 Bft) 88,64 %
13.07.2017 06:32 15,9 C 23,9 C 80 % 1017,6 hPa 0,0 l/m 17,4 km/h (3 Bft) SW 234 0 min 0,000 mm 0,0 UV-I 70 W/m 12,5 C 11,6 C 24,1 km/h (4 Bft) 98,00 %
13.07.2017 06:34 15,9 C 23,9 C 80 % 1017,6 hPa 0,0 l/m 20,0 km/h (4 Bft) W-SW 253 0 min 0,000 mm 0,0 UV-I 70 W/m 12,5 C 10,9 C 33,8 km/h (5 Bft) 94,74 %
13.07.2017 06:36 15,9 C 23,9 C 80 % 1017,6 hPa 0,0 l/m 13,7 km/h (3 Bft) W-SW 240 0 min 0,000 mm 0,0 UV-I 65 W/m 12,5 C 12,7 C 22,5 km/h (4 Bft) 97,62 %
13.07.2017 06:38 15,9 C 23,9 C 80 % 1017,7 hPa 0,0 l/m 13,0 km/h (3 Bft) W 277 0 min 0,000 mm 0,0 UV-I 68 W/m 12,5 C 12,9 C 24,1 km/h (4 Bft) 96,30 %
13.07.2017 06:40 15,9 C 23,9 C 80 % 1017,7 hPa 0,0 l/m 11,9 km/h (2 Bft) W 270 0 min 0,000 mm 0,0 UV-I 60 W/m 12,5 C 13,3 C 19,3 km/h (3 Bft) 95,74 %
13.07.2017 06:42 15,9 C 23,9 C 80 % 1017,8 hPa 0,0 l/m 15,7 km/h (3 Bft) W-SW 252 0 min 0,000 mm 0,0 UV-I 53 W/m 12,5 C 12,1 C 25,7 km/h (4 Bft) 94,00 %
13.07.2017 06:44 15,8 C 23,9 C 80 % 1017,8 hPa 0,0 l/m 12,9 km/h (3 Bft) W-SW 247 0 min 0,000 mm 0,0 UV-I 47 W/m 12,4 C 12,9 C 20,9 km/h (4 Bft) 96,00 %
13.07.2017 06:46 15,9 C 23,9 C 80 % 1017,8 hPa 0,0 l/m 12,1 km/h (2 Bft) W-SW 244 0 min 0,000 mm 0,0 UV-I 50 W/m 12,5 C 13,3 C 17,7 km/h (3 Bft) 92,31 %
13.07.2017 06:48 15,9 C 23,9 C 80 % 1017,8 hPa 0,0 l/m 12,2 km/h (2 Bft) W 259 0 min 0,000 mm 0,0 UV-I 55 W/m 12,5 C 13,2 C 20,9 km/h (4 Bft) 90,00 %
13.07.2017 06:50 15,9 C 23,9 C 80 % 1017,8 hPa 0,0 l/m 14,2 km/h (3 Bft) W-SW 258 0 min 0,000 mm 0,0 UV-I 60 W/m 12,5 C 12,5 C 20,9 km/h (4 Bft) 97,37 %
13.07.2017 06:52 15,9 C 23,9 C 80 % 1017,8 hPa 0,0 l/m 16,9 km/h (3 Bft) W-SW 242 0 min 0,000 mm 0,0 UV-I 63 W/m 12,5 C 11,7 C 29,0 km/h (5 Bft) 96,43 %
13.07.2017 06:54 15,8 C 23,9 C 80 % 1017,9 hPa 0,0 l/m 13,8 km/h (3 Bft) SW 236 0 min 0,000 mm 0,0 UV-I 62 W/m 12,4 C 12,6 C 22,5 km/h (4 Bft) 82,61 %
13.07.2017 06:56 15,8 C 23,9 C 80 % 1017,9 hPa 0,0 l/m 9,6 km/h (2 Bft) SW 229 0 min 0,000 mm 0,0 UV-I 72 W/m 12,4 C 14,2 C 16,1 km/h (3 Bft) 97,06 %
13.07.2017 06:58 15,9 C 23,9 C 80 % 1017,9 hPa 0,0 l/m 9,8 km/h (2 Bft) W-NW 285 0 min 0,000 mm 0,0 UV-I 82 W/m 12,5 C 14,2 C 16,1 km/h (3 Bft) 91,49 %
13.07.2017 07:00 15,9 C 23,9 C 80 % 1017,9 hPa 0,0 l/m 9,9 km/h (2 Bft) SW 229 0 min 0,076 mm 0,0 UV-I 77 W/m 12,5 C 14,2 C 14,5 km/h (3 Bft) 93,62 %
13.07.2017 07:02 15,9 C 23,9 C 80 % 1017,9 hPa 0,0 l/m 11,4 km/h (2 Bft) W-SW 254 0 min 0,000 mm 0,0 UV-I 70 W/m 12,5 C 13,5 C 17,7 km/h (3 Bft) 100,00 %
13.07.2017 07:04 15,9 C 23,9 C 80 % 1017,9 hPa 0,0 l/m 8,4 km/h (2 Bft) W-SW 253 0 min 0,000 mm 0,0 UV-I 81 W/m 12,5 C 14,8 C 14,5 km/h (3 Bft) 100,00 %
13.07.2017 07:06 15,9 C 23,9 C 80 % 1018,0 hPa 0,0 l/m 12,3 km/h (3 Bft) W-SW 253 0 min 0,000 mm 0,0 UV-I 81 W/m 12,5 C 13,2 C 20,9 km/h (4 Bft) 100,00 %
13.07.2017 07:08 15,9 C 23,9 C 80 % 1017,9 hPa 0,0 l/m 11,3 km/h (2 Bft) W-SW 245 0 min 0,000 mm 0,0 UV-I 73 W/m 12,5 C 13,6 C 19,3 km/h (3 Bft) 100,00 %
13.07.2017 07:10 15,9 C 23,9 C 79 % 1018,0 hPa 0,0 l/m 14,7 km/h (3 Bft) W-SW 237 0 min 0,000 mm 0,0 UV-I 72 W/m 12,3 C 12,4 C 22,5 km/h (4 Bft) 94,00 %
13.07.2017 07:12 15,9 C 23,9 C 79 % 1018,0 hPa 0,0 l/m 12,3 km/h (3 Bft) W 261 0 min 0,000 mm 0,0 UV-I 64 W/m 12,3 C 13,2 C 17,7 km/h (3 Bft) 94,00 %
13.07.2017 07:14 15,9 C 23,9 C 79 % 1018,0 hPa 0,0 l/m 14,0 km/h (3 Bft) W-SW 237 0 min 0,000 mm 0,0 UV-I 58 W/m 12,3 C 12,6 C 24,1 km/h (4 Bft) 98,11 %
13.07.2017 07:16 15,9 C 23,9 C 78 % 1018,0 hPa 0,0 l/m 15,9 km/h (3 Bft) W-NW 291 0 min 0,000 mm 0,0 UV-I 50 W/m 12,1 C 12,0 C 29,0 km/h (5 Bft) 94,74 %
13.07.2017 07:18 15,9 C 23,9 C 79 % 1018,0 hPa 0,0 l/m 11,8 km/h (2 Bft) W-SW 252 0 min 0,000 mm 0,0 UV-I 51 W/m 12,3 C 13,4 C 16,1 km/h (3 Bft) 98,00 %
13.07.2017 07:20 15,9 C 23,9 C 79 % 1018,1 hPa 0,0 l/m 9,3 km/h (2 Bft) W-SW 248 0 min 0,000 mm 0,0 UV-I 66 W/m 12,3 C 14,4 C 14,5 km/h (3 Bft) 100,00 %
13.07.2017 07:22 15,9 C 23,9 C 80 % 1018,2 hPa 0,0 l/m 11,3 km/h (2 Bft) W-SW 250 0 min 0,000 mm 0,0 UV-I 78 W/m 12,5 C 13,6 C 20,9 km/h (4 Bft) 96,55 %
13.07.2017 07:24 15,9 C 23,9 C 80 % 1018,1 hPa 0,0 l/m 6,9 km/h (2 Bft) SW 236 0 min 0,000 mm 0,0 UV-I 78 W/m 12,5 C 15,6 C 11,3 km/h (2 Bft) 97,44 %
13.07.2017 07:26 15,9 C 23,9 C 80 % 1018,2 hPa 0,0 l/m 12,2 km/h (2 Bft) W-SW 251 0 min 0,000 mm 0,0 UV-I 82 W/m 12,5 C 13,2 C 20,9 km/h (4 Bft) 94,00 %
13.07.2017 07:28 15,9 C 23,9 C 79 % 1018,2 hPa 0,0 l/m 13,4 km/h (3 Bft) SW 226 0 min 0,000 mm 0,0 UV-I 81 W/m 12,3 C 12,8 C 22,5 km/h (4 Bft) 93,62 %
13.07.2017 07:30 15,9 C 23,9 C 79 % 1018,2 hPa 0,0 l/m 12,4 km/h (3 Bft) W-SW 248 0 min 0,000 mm 0,0 UV-I 82 W/m 12,3 C 13,2 C 22,5 km/h (4 Bft) 96,00 %
13.07.2017 07:32 15,9 C 23,9 C 78 % 1018,2 hPa 0,0 l/m 14,7 km/h (3 Bft) W 262 0 min 0,000 mm 0,0 UV-I 107 W/m 12,1 C 12,4 C 22,5 km/h (4 Bft) 98,00 %
13.07.2017 07:34 15,9 C 23,9 C 78 % 1018,3 hPa 0,0 l/m 10,6 km/h (2 Bft) W 277 0 min 0,000 mm 0,0 UV-I 147 W/m 12,1 C 13,9 C 16,1 km/h (3 Bft) 97,56 %
13.07.2017 07:36 15,9 C 23,9 C 78 % 1018,3 hPa 0,0 l/m 15,7 km/h (3 Bft) SW 226 0 min 0,000 mm 0,0 UV-I 148 W/m 12,1 C 12,1 C 22,5 km/h (4 Bft) 98,00 %
13.07.2017 07:38 15,9 C 23,9 C 78 % 1018,3 hPa 0,0 l/m 9,2 km/h (2 Bft) W-SW 237 0 min 0,000 mm 0,0 UV-I 148 W/m 12,1 C 14,5 C 16,1 km/h (3 Bft) 97,56 %
13.07.2017 07:40 16,0 C 23,9 C 78 % 1018,3 hPa 0,0 l/m 9,6 km/h (2 Bft) W 262 0 min 0,000 mm 0,0 UV-I 147 W/m 12,2 C 14,4 C 19,3 km/h (3 Bft) 96,00 %
13.07.2017 07:42 16,1 C 23,9 C 78 % 1018,3 hPa 0,0 l/m 11,0 km/h (2 Bft) W 274 0 min 0,000 mm 0,0 UV-I 136 W/m 12,3 C 13,9 C 17,7 km/h (3 Bft) 97,14 %
13.07.2017 07:44 16,1 C 23,9 C 78 % 1018,3 hPa 0,0 l/m 12,3 km/h (3 Bft) SW 218 0 min 0,000 mm 0,0 UV-I 121 W/m 12,3 C 13,4 C 20,9 km/h (4 Bft) 98,11 %
13.07.2017 07:46 16,1 C 23,9 C 78 % 1018,3 hPa 0,0 l/m 13,4 km/h (3 Bft) W-SW 252 0 min 0,000 mm 0,0 UV-I 120 W/m 12,3 C 13,0 C 27,4 km/h (4 Bft) 96,23 %
13.07.2017 07:48 16,0 C 23,9 C 78 % 1018,3 hPa 0,0 l/m 15,0 km/h (3 Bft) W-SW 247 0 min 0,000 mm 0,0 UV-I 107 W/m 12,2 C 12,4 C 24,1 km/h (4 Bft) 100,00 %
13.07.2017 07:50 16,0 C 23,9 C 78 % 1018,4 hPa 0,0 l/m 9,4 km/h (2 Bft) W 277 0 min 0,000 mm 0,0 UV-I 99 W/m 12,2 C 14,5 C 20,9 km/h (4 Bft) 100,00 %
13.07.2017 07:52 16,0 C 23,9 C 78 % 1018,4 hPa 0,0 l/m 8,5 km/h (2 Bft) W-SW 248 0 min 0,000 mm 0,0 UV-I 107 W/m 12,2 C 14,9 C 16,1 km/h (3 Bft) 100,00 %
13.07.2017 07:54 16,0 C 23,9 C 78 % 1018,4 hPa 0,0 l/m 5,9 km/h (2 Bft) W-SW 252 0 min 0,000 mm 0,0 UV-I 119 W/m 12,2 C 16,0 C 12,9 km/h (3 Bft) 100,00 %
13.07.2017 07:56 15,9 C 23,9 C 78 % 1018,4 hPa 0,0 l/m 7,4 km/h (2 Bft) S-SW 205 0 min 0,000 mm 0,0 UV-I 116 W/m 12,1 C 15,4 C 12,9 km/h (3 Bft) 100,00 %
13.07.2017 07:58 16,0 C 23,9 C 79 % 1018,5 hPa 0,0 l/m 10,7 km/h (2 Bft) W-SW 243 0 min 0,000 mm 0,0 UV-I 109 W/m 12,4 C 13,9 C 17,7 km/h (3 Bft) 96,23 %
13.07.2017 08:00 16,1 C 23,9 C 78 % 1018,5 hPa 0,0 l/m 9,3 km/h (2 Bft) W-NW 284 0 min 0,076 mm 0,0 UV-I 117 W/m 12,3 C 14,6 C 16,1 km/h (3 Bft) 97,73 %
13.07.2017 08:02 16,1 C 23,9 C 78 % 1018,4 hPa 0,0 l/m 7,3 km/h (2 Bft) W-SW 239 0 min 0,000 mm 0,0 UV-I 118 W/m 12,3 C 15,6 C 12,9 km/h (3 Bft) 100,00 %
13.07.2017 08:04 16,1 C 23,9 C 78 % 1018,5 hPa 0,0 l/m 6,9 km/h (2 Bft) W 276 0 min 0,000 mm 0,4 UV-I 141 W/m 12,3 C 15,8 C 9,7 km/h (2 Bft) 100,00 %
13.07.2017 08:06 16,1 C 23,9 C 78 % 1018,5 hPa 0,0 l/m 12,5 km/h (3 Bft) W-SW 243 0 min 0,000 mm 0,6 UV-I 178 W/m 12,3 C 13,4 C 25,7 km/h (4 Bft) 100,00 %
13.07.2017 08:08 16,2 C 23,9 C 78 % 1018,5 hPa 0,0 l/m 11,1 km/h (2 Bft) SW 233 2 min 0,000 mm 0,7 UV-I 410 W/m 12,4 C 14,0 C 20,9 km/h (4 Bft) 97,37 %
13.07.2017 08:10 16,3 C 23,9 C 78 % 1018,5 hPa 0,0 l/m 10,4 km/h (2 Bft) W 281 0 min 0,000 mm 0,6 UV-I 220 W/m 12,5 C 14,4 C 14,5 km/h (3 Bft) 97,87 %
13.07.2017 08:12 16,4 C 23,9 C 77 % 1018,5 hPa 0,0 l/m 13,3 km/h (3 Bft) W 269 0 min 0,000 mm 0,5 UV-I 198 W/m 12,4 C 13,4 C 19,3 km/h (3 Bft) 98,00 %
13.07.2017 08:14 16,4 C 23,9 C 77 % 1018,6 hPa 0,0 l/m 13,4 km/h (3 Bft) W 264 0 min 0,000 mm 0,4 UV-I 191 W/m 12,4 C 13,4 C 20,9 km/h (4 Bft) 98,00 %
13.07.2017 08:16 16,4 C 23,9 C 77 % 1018,6 hPa 0,0 l/m 12,6 km/h (3 Bft) SW 235 0 min 0,000 mm 0,0 UV-I 158 W/m 12,4 C 13,7 C 22,5 km/h (4 Bft) 100,00 %
13.07.2017 08:18 16,4 C 23,9 C 77 % 1018,6 hPa 0,0 l/m 13,6 km/h (3 Bft) W 273 0 min 0,000 mm 0,5 UV-I 151 W/m 12,4 C 13,3 C 19,3 km/h (3 Bft) 100,00 %
13.07.2017 08:20 16,3 C 23,9 C 77 % 1018,6 hPa 0,0 l/m 13,0 km/h (3 Bft) W 269 0 min 0,000 mm 0,6 UV-I 164 W/m 12,3 C 13,4 C 19,3 km/h (3 Bft) 97,37 %
13.07.2017 08:22 16,3 C 23,9 C 76 % 1018,5 hPa 0,0 l/m 9,9 km/h (2 Bft) SW 226 0 min 0,000 mm 0,7 UV-I 179 W/m 12,1 C 14,6 C 16,1 km/h (3 Bft) 96,00 %
13.07.2017 08:24 16,3 C 23,9 C 76 % 1018,6 hPa 0,0 l/m 13,0 km/h (3 Bft) W-SW 254 0 min 0,000 mm 0,9 UV-I 190 W/m 12,1 C 13,4 C 20,9 km/h (4 Bft) 98,11 %
13.07.2017 08:26 16,4 C 23,9 C 77 % 1018,7 hPa 0,0 l/m 8,6 km/h (2 Bft) W-SW 251 0 min 0,000 mm 1,1 UV-I 202 W/m 12,4 C 15,3 C 14,5 km/h (3 Bft) 97,87 %
13.07.2017 08:28 16,4 C 23,9 C 76 % 1018,6 hPa 0,0 l/m 6,8 km/h (2 Bft) W-SW 238 0 min 0,000 mm 0,9 UV-I 197 W/m 12,2 C 16,2 C 14,5 km/h (3 Bft) 97,87 %
13.07.2017 08:30 16,5 C 23,9 C 76 % 1018,7 hPa 0,0 l/m 9,0 km/h (2 Bft) W-SW 240 0 min 0,000 mm 1,0 UV-I 211 W/m 12,3 C 15,2 C 19,3 km/h (3 Bft) 97,37 %
13.07.2017 08:32 16,5 C 23,9 C 76 % 1018,7 hPa 0,0 l/m 8,1 km/h (2 Bft) W 269 2 min 0,000 mm 1,0 UV-I 277 W/m 12,3 C 15,6 C 14,5 km/h (3 Bft) 96,23 %
13.07.2017 08:34 16,6 C 23,9 C 77 % 1018,7 hPa 0,0 l/m 5,5 km/h (1 Bft) W-NW 298 0 min 0,000 mm 0,9 UV-I 242 W/m 12,5 C 16,6 C 11,3 km/h (2 Bft) 96,00 %
13.07.2017 08:36 16,6 C 23,9 C 76 % 1018,7 hPa 0,0 l/m 12,7 km/h (3 Bft) W-SW 240 0 min 0,000 mm 1,0 UV-I 205 W/m 12,3 C 13,9 C 19,3 km/h (3 Bft) 97,73 %
13.07.2017 08:38 16,6 C 23,9 C 76 % 1018,7 hPa 0,0 l/m 6,7 km/h (2 Bft) W-SW 248 0 min 0,000 mm 1,1 UV-I 190 W/m 12,3 C 16,5 C 14,5 km/h (3 Bft) 94,87 %
13.07.2017 08:40 16,7 C 23,9 C 77 % 1018,8 hPa 0,0 l/m 9,1 km/h (2 Bft) W 263 0 min 0,000 mm 1,4 UV-I 214 W/m 12,6 C 15,4 C 17,7 km/h (3 Bft) 98,00 %
13.07.2017 08:42 16,8 C 23,9 C 77 % 1018,8 hPa 0,0 l/m 9,3 km/h (2 Bft) W 260 2 min 0,000 mm 1,5 UV-I 322 W/m 12,7 C 15,4 C 16,1 km/h (3 Bft) 93,62 %
13.07.2017 08:44 17,0 C 23,9 C 75 % 1018,7 hPa 0,0 l/m 17,0 km/h (3 Bft) SW 232 2 min 0,000 mm 1,7 UV-I 380 W/m 12,5 C 13,1 C 24,1 km/h (4 Bft) 96,23 %
13.07.2017 08:46 17,1 C 23,9 C 75 % 1018,7 hPa 0,0 l/m 11,8 km/h (2 Bft) W-SW 243 2 min 0,000 mm 1,3 UV-I 383 W/m 12,6 C 14,8 C 20,9 km/h (4 Bft) 93,10 %
13.07.2017 08:48 17,1 C 23,9 C 74 % 1018,8 hPa 0,0 l/m 8,4 km/h (2 Bft) W-SW 245 2 min 0,000 mm 1,3 UV-I 385 W/m 12,4 C 16,1 C 19,3 km/h (3 Bft) 96,23 %
13.07.2017 08:50 17,2 C 23,9 C 75 % 1018,8 hPa 0,0 l/m 11,1 km/h (2 Bft) W 265 2 min 0,000 mm 1,6 UV-I 486 W/m 12,7 C 15,1 C 20,9 km/h (4 Bft) 96,61 %
13.07.2017 08:52 17,3 C 23,9 C 73 % 1018,7 hPa 0,0 l/m 12,2 km/h (2 Bft) W-NW 286 2 min 0,000 mm 1,3 UV-I 544 W/m 12,4 C 14,9 C 27,4 km/h (4 Bft) 94,74 %
13.07.2017 08:54 17,2 C 23,9 C 73 % 1018,9 hPa 0,0 l/m 9,5 km/h (2 Bft) W-SW 251 0 min 0,000 mm 1,3 UV-I 193 W/m 12,3 C 15,8 C 16,1 km/h (3 Bft) 95,74 %
13.07.2017 08:56 17,2 C 23,9 C 74 % 1018,8 hPa 0,0 l/m 13,2 km/h (3 Bft) W 261 2 min 0,000 mm 1,8 UV-I 420 W/m 12,5 C 14,4 C 22,5 km/h (4 Bft) 96,00 %
13.07.2017 08:58 17,3 C 23,9 C 73 % 1018,8 hPa 0,0 l/m 13,1 km/h (3 Bft) W 269 2 min 0,000 mm 1,4 UV-I 451 W/m 12,4 C 14,6 C 24,1 km/h (4 Bft) 96,23 %
13.07.2017 09:00 17,2 C 23,9 C 72 % 1018,8 hPa 0,0 l/m 13,3 km/h (3 Bft) W-SW 253 0 min 0,203 mm 1,7 UV-I 207 W/m 12,1 C 14,4 C 20,9 km/h (4 Bft) 95,45 %
13.07.2017 09:02 17,2 C 23,9 C 72 % 1018,8 hPa 0,0 l/m 10,0 km/h (2 Bft) W 263 0 min 0,000 mm 1,9 UV-I 250 W/m 12,1 C 15,5 C 20,9 km/h (4 Bft) 95,12 %
13.07.2017 09:04 17,2 C 23,9 C 72 % 1018,8 hPa 0,0 l/m 8,9 km/h (2 Bft) W-SW 245 2 min 0,000 mm 1,8 UV-I 354 W/m 12,1 C 16,0 C 17,7 km/h (3 Bft) 97,87 %
13.07.2017 09:06 17,4 C 23,9 C 73 % 1018,8 hPa 0,0 l/m 10,0 km/h (2 Bft) W-NW 288 2 min 0,000 mm 1,7 UV-I 630 W/m 12,5 C 15,8 C 16,1 km/h (3 Bft) 94,34 %
13.07.2017 09:08 17,7 C 23,9 C 72 % 1018,8 hPa 0,0 l/m 6,6 km/h (2 Bft) NW 304 2 min 0,000 mm 1,1 UV-I 375 W/m 12,6 C 17,6 C 12,9 km/h (3 Bft) 100,00 %
13.07.2017 09:10 17,6 C 23,9 C 71 % 1018,8 hPa 0,0 l/m 7,9 km/h (2 Bft) W-NW 287 0 min 0,000 mm 1,0 UV-I 194 W/m 12,3 C 16,9 C 12,9 km/h (3 Bft) 100,00 %
13.07.2017 09:12 17,3 C 23,9 C 71 % 1018,8 hPa 0,0 l/m 11,6 km/h (2 Bft) N-NW 345 0 min 0,000 mm 1,0 UV-I 187 W/m 12,0 C 15,1 C 17,7 km/h (3 Bft) 100,00 %
13.07.2017 09:14 17,2 C 23,9 C 72 % 1018,8 hPa 0,0 l/m 11,7 km/h (2 Bft) W-NW 291 0 min 0,000 mm 1,0 UV-I 192 W/m 12,1 C 14,9 C 24,1 km/h (4 Bft) 98,11 %
13.07.2017 09:16 17,0 C 23,9 C 71 % 1018,9 hPa 0,0 l/m 12,9 km/h (3 Bft) W-NW 294 0 min 0,000 mm 1,0 UV-I 175 W/m 11,7 C 14,3 C 20,9 km/h (4 Bft) 100,00 %
13.07.2017 09:18 16,9 C 23,9 C 72 % 1018,9 hPa 0,0 l/m 7,7 km/h (2 Bft) S-SW 205 0 min 0,000 mm 0,9 UV-I 168 W/m 11,8 C 16,2 C 17,7 km/h (3 Bft) 96,36 %
13.07.2017 09:20 16,8 C 23,9 C 72 % 1018,9 hPa 0,0 l/m 10,9 km/h (2 Bft) W-SW 246 0 min 0,000 mm 1,1 UV-I 139 W/m 11,7 C 14,8 C 24,1 km/h (4 Bft) 94,00 %
13.07.2017 09:22 16,7 C 23,9 C 72 % 1018,9 hPa 0,0 l/m 10,8 km/h (2 Bft) NW 305 0 min 0,000 mm 1,4 UV-I 130 W/m 11,6 C 14,7 C 20,9 km/h (4 Bft) 94,87 %
13.07.2017 09:24 16,7 C 23,9 C 73 % 1018,9 hPa 0,0 l/m 11,8 km/h (2 Bft) W-SW 254 0 min 0,000 mm 2,2 UV-I 315 W/m 11,8 C 14,3 C 22,5 km/h (4 Bft) 96,00 %
13.07.2017 09:26 16,9 C 23,9 C 73 % 1018,8 hPa 0,0 l/m 10,9 km/h (2 Bft) SW 215 2 min 0,000 mm 2,4 UV-I 653 W/m 12,0 C 14,9 C 17,7 km/h (3 Bft) 98,00 %
13.07.2017 09:28 17,3 C 23,9 C 72 % 1018,8 hPa 0,0 l/m 10,3 km/h (2 Bft) W-SW 257 2 min 0,000 mm 2,6 UV-I 748 W/m 12,2 C 15,5 C 19,3 km/h (3 Bft) 92,00 %
13.07.2017 09:30 17,5 C 23,9 C 71 % 1018,8 hPa 0,0 l/m 7,3 km/h (2 Bft) W 269 2 min 0,000 mm 2,2 UV-I 699 W/m 12,2 C 17,1 C 14,5 km/h (3 Bft) 100,00 %
13.07.2017 09:32 17,7 C 23,9 C 71 % 1018,9 hPa 0,0 l/m 10,7 km/h (2 Bft) W-SW 258 0 min 0,000 mm 1,5 UV-I 296 W/m 12,4 C 15,8 C 22,5 km/h (4 Bft) 90,00 %
13.07.2017 09:34 17,7 C 23,9 C 71 % 1018,9 hPa 0,0 l/m 14,6 km/h (3 Bft) W 266 0 min 0,000 mm 1,0 UV-I 215 W/m 12,4 C 14,6 C 19,3 km/h (3 Bft) 97,73 %
13.07.2017 09:36 17,6 C 23,9 C 71 % 1018,9 hPa 0,0 l/m 11,2 km/h (2 Bft) W 273 0 min 0,000 mm 1,0 UV-I 199 W/m 12,3 C 15,5 C 16,1 km/h (3 Bft) 96,00 %
13.07.2017 09:38 17,5 C 23,9 C 71 % 1019,0 hPa 0,0 l/m 14,9 km/h (3 Bft) SW 227 0 min 0,000 mm 0,9 UV-I 165 W/m 12,2 C 14,2 C 24,1 km/h (4 Bft) 95,74 %
13.07.2017 09:40 17,3 C 23,9 C 70 % 1018,9 hPa 0,0 l/m 13,6 km/h (3 Bft) SW 231 0 min 0,000 mm 1,2 UV-I 159 W/m 11,8 C 14,4 C 20,9 km/h (4 Bft) 95,12 %
13.07.2017 09:42 17,2 C 23,9 C 71 % 1018,9 hPa 0,0 l/m 11,4 km/h (2 Bft) W-NW 284 0 min 0,000 mm 1,3 UV-I 182 W/m 11,9 C 15,0 C 19,3 km/h (3 Bft) 95,74 %
13.07.2017 09:44 17,1 C 23,9 C 72 % 1018,9 hPa 0,0 l/m 8,7 km/h (2 Bft) W-SW 250 0 min 0,000 mm 1,5 UV-I 181 W/m 12,0 C 16,0 C 16,1 km/h (3 Bft) 97,56 %
13.07.2017 09:46 17,1 C 23,9 C 72 % 1018,9 hPa 0,0 l/m 8,9 km/h (2 Bft) SW 221 0 min 0,000 mm 2,3 UV-I 221 W/m 12,0 C 15,9 C 14,5 km/h (3 Bft) 98,11 %
13.07.2017 09:48 17,1 C 23,9 C 72 % 1018,9 hPa 0,0 l/m 8,7 km/h (2 Bft) W-SW 239 0 min 0,000 mm 2,6 UV-I 346 W/m 12,0 C 16,0 C 16,1 km/h (3 Bft) 96,43 %
13.07.2017 09:50 17,2 C 23,9 C 72 % 1018,9 hPa 0,0 l/m 11,5 km/h (2 Bft) W-SW 257 0 min 0,000 mm 2,4 UV-I 280 W/m 12,1 C 15,0 C 16,1 km/h (3 Bft) 97,37 %
13.07.2017 09:52 17,3 C 23,9 C 72 % 1018,9 hPa 0,0 l/m 12,8 km/h (3 Bft) W-SW 255 0 min 0,000 mm 3,2 UV-I 257 W/m 12,2 C 14,7 C 25,7 km/h (4 Bft) 95,74 %
13.07.2017 09:54 17,6 C 23,9 C 71 % 1018,9 hPa 0,0 l/m 12,9 km/h (3 Bft) W 260 2 min 0,000 mm 3,2 UV-I 775 W/m 12,3 C 15,0 C 20,9 km/h (4 Bft) 96,15 %
13.07.2017 09:56 17,8 C 23,9 C 69 % 1018,9 hPa 0,0 l/m 14,5 km/h (3 Bft) W 259 2 min 0,000 mm 3,3 UV-I 800 W/m 12,0 C 14,7 C 20,9 km/h (4 Bft) 97,56 %
13.07.2017 09:58 18,1 C 23,9 C 69 % 1018,8 hPa 0,0 l/m 12,1 km/h (2 Bft) W-SW 237 2 min 0,000 mm 3,3 UV-I 790 W/m 12,3 C 15,8 C 20,9 km/h (4 Bft) 94,34 %
13.07.2017 10:00 18,2 C 23,9 C 68 % 1018,8 hPa 0,0 l/m 12,7 km/h (3 Bft) W-NW 282 2 min 0,254 mm 3,3 UV-I 790 W/m 12,2 C 15,7 C 20,9 km/h (4 Bft) 97,44 %
13.07.2017 10:02 18,4 C 23,9 C 68 % 1018,8 hPa 0,0 l/m 12,6 km/h (3 Bft) W-SW 239 2 min 0,000 mm 3,5 UV-I 849 W/m 12,4 C 16,0 C 25,7 km/h (4 Bft) 92,45 %
13.07.2017 10:04 18,5 C 23,9 C 67 % 1018,9 hPa 0,0 l/m 12,2 km/h (2 Bft) W 273 2 min 0,000 mm 2,2 UV-I 644 W/m 12,3 C 16,2 C 24,1 km/h (4 Bft) 95,45 %
13.07.2017 10:06 18,3 C 23,9 C 65 % 1018,9 hPa 0,0 l/m 12,0 km/h (2 Bft) W-SW 246 0 min 0,000 mm 2,4 UV-I 270 W/m 11,6 C 16,1 C 22,5 km/h (4 Bft) 95,74 %
13.07.2017 10:08 18,2 C 23,9 C 65 % 1018,9 hPa 0,0 l/m 9,0 km/h (2 Bft) W 266 0 min 0,000 mm 3,5 UV-I 299 W/m 11,5 C 17,0 C 20,9 km/h (4 Bft) 95,45 %
13.07.2017 10:10 18,2 C 23,9 C 66 % 1018,9 hPa 0,0 l/m 4,3 km/h (1 Bft) SW 220 0 min 0,000 mm 3,0 UV-I 353 W/m 11,7 C 18,2 C 11,3 km/h (2 Bft) 98,11 %
13.07.2017 10:12 18,3 C 23,9 C 66 % 1018,9 hPa 0,0 l/m 12,3 km/h (3 Bft) S 180 2 min 0,000 mm 3,7 UV-I 760 W/m 11,8 C 16,0 C 27,4 km/h (4 Bft) 92,11 %
13.07.2017 10:14 18,4 C 23,9 C 65 % 1018,9 hPa 0,0 l/m 15,7 km/h (3 Bft) W 261 2 min 0,000 mm 3,8 UV-I 775 W/m 11,7 C 15,1 C 22,5 km/h (4 Bft) 96,43 %
13.07.2017 10:16 18,6 C 23,9 C 63 % 1018,8 hPa 0,0 l/m 20,0 km/h (4 Bft) S-SW 210 2 min 0,000 mm 3,9 UV-I 781 W/m 11,4 C 14,4 C 29,0 km/h (5 Bft) 97,56 %
13.07.2017 10:18 18,7 C 23,9 C 63 % 1018,8 hPa 0,0 l/m 14,1 km/h (3 Bft) W-NW 294 2 min 0,000 mm 3,9 UV-I 776 W/m 11,5 C 15,9 C 29,0 km/h (5 Bft) 100,00 %
13.07.2017 10:20 18,8 C 23,9 C 63 % 1018,7 hPa 0,0 l/m 10,2 km/h (2 Bft) W-SW 242 2 min 0,000 mm 3,9 UV-I 773 W/m 11,6 C 17,2 C 14,5 km/h (3 Bft) 100,00 %
13.07.2017 10:23 19,0 C 23,9 C 61 % 1018,7 hPa 0,0 l/m 14,0 km/h (3 Bft) W-SW 248 3 min 0,000 mm 4,0 UV-I 798 W/m 11,3 C 16,3 C 27,4 km/h (4 Bft) 97,33 %
13.07.2017 10:24 19,0 C 23,9 C 61 % 1018,7 hPa 0,0 l/m 14,8 km/h (3 Bft) W 277 1 min 0,000 mm 4,1 UV-I 802 W/m 11,3 C 16,1 C 25,7 km/h (4 Bft) 92,31 %
13.07.2017 10:26 19,0 C 23,9 C 60 % 1018,7 hPa 0,0 l/m 16,3 km/h (3 Bft) W-SW 245 2 min 0,000 mm 4,1 UV-I 813 W/m 11,1 C 15,7 C 25,7 km/h (4 Bft) 96,23 %
13.07.2017 10:28 19,1 C 23,9 C 60 % 1018,7 hPa 0,0 l/m 8,6 km/h (2 Bft) W-NW 288 2 min 0,000 mm 3,6 UV-I 842 W/m 11,1 C 18,2 C 16,1 km/h (3 Bft) 95,12 %
13.07.2017 10:30 19,1 C 24,4 C 60 % 1018,7 hPa 0,0 l/m 9,6 km/h (2 Bft) S-SW 202 2 min 0,000 mm 3,9 UV-I 842 W/m 11,1 C 17,8 C 19,3 km/h (3 Bft) 94,34 %
13.07.2017 10:32 19,3 C 24,4 C 60 % 1018,8 hPa 0,0 l/m 13,7 km/h (3 Bft) SW 221 2 min 0,000 mm 4,4 UV-I 892 W/m 11,3 C 16,7 C 29,0 km/h (5 Bft) 95,12 %
13.07.2017 10:34 19,5 C 23,9 C 59 % 1018,7 hPa 0,0 l/m 16,0 km/h (3 Bft) W-SW 244 2 min 0,000 mm 3,7 UV-I 904 W/m 11,3 C 16,4 C 25,7 km/h (4 Bft) 100,00 %
13.07.2017 10:36 19,4 C 23,9 C 60 % 1018,8 hPa 0,0 l/m 10,1 km/h (2 Bft) W 272 2 min 0,000 mm 2,8 UV-I 904 W/m 11,4 C 17,9 C 17,7 km/h (3 Bft) 98,21 %
13.07.2017 10:38 19,2 C 24,4 C 61 % 1018,8 hPa 0,0 l/m 5,8 km/h (2 Bft) N-NW 329 0 min 0,000 mm 2,8 UV-I 255 W/m 11,5 C 19,2 C 14,5 km/h (3 Bft) 95,74 %
13.07.2017 10:40 19,2 C 23,9 C 61 % 1018,8 hPa 0,0 l/m 9,5 km/h (2 Bft) W-SW 237 2 min 0,000 mm 4,1 UV-I 870 W/m 11,5 C 17,9 C 16,1 km/h (3 Bft) 97,87 %
13.07.2017 10:42 19,2 C 23,9 C 61 % 1018,8 hPa 0,0 l/m 10,4 km/h (2 Bft) SW 233 2 min 0,000 mm 3,8 UV-I 881 W/m 11,5 C 17,6 C 20,9 km/h (4 Bft) 93,62 %
13.07.2017 10:44 19,2 C 24,4 C 58 % 1018,9 hPa 0,0 l/m 21,9 km/h (4 Bft) SW 221 2 min 0,000 mm 4,5 UV-I 848 W/m 10,7 C 14,8 C 40,2 km/h (6 Bft) 94,74 %
13.07.2017 10:46 19,2 C 24,4 C 58 % 1018,7 hPa 0,0 l/m 16,7 km/h (3 Bft) W 262 2 min 0,000 mm 4,6 UV-I 819 W/m 10,7 C 15,9 C 29,0 km/h (5 Bft) 92,45 %
13.07.2017 10:48 19,3 C 24,4 C 59 % 1018,8 hPa 0,0 l/m 15,1 km/h (3 Bft) W-SW 246 2 min 0,000 mm 4,7 UV-I 831 W/m 11,1 C 16,4 C 20,9 km/h (4 Bft) 98,00 %
13.07.2017 10:50 19,5 C 23,9 C 59 % 1018,8 hPa 0,0 l/m 12,6 km/h (3 Bft) W-SW 254 2 min 0,000 mm 4,8 UV-I 862 W/m 11,3 C 17,3 C 27,4 km/h (4 Bft) 97,37 %
13.07.2017 10:52 19,6 C 24,4 C 56 % 1018,8 hPa 0,0 l/m 10,7 km/h (2 Bft) W-SW 242 2 min 0,000 mm 4,9 UV-I 879 W/m 10,6 C 18,0 C 22,5 km/h (4 Bft) 98,00 %
13.07.2017 10:54 19,7 C 23,9 C 57 % 1018,8 hPa 0,0 l/m 6,9 km/h (2 Bft) SW 229 2 min 0,000 mm 3,0 UV-I 578 W/m 10,9 C 19,5 C 17,7 km/h (3 Bft) 94,00 %
13.07.2017 10:56 19,6 C 23,9 C 57 % 1018,8 hPa 0,0 l/m 13,4 km/h (3 Bft) W 259 2 min 0,000 mm 4,8 UV-I 617 W/m 10,8 C 17,2 C 24,1 km/h (4 Bft) 97,87 %
13.07.2017 10:58 19,6 C 23,9 C 57 % 1018,9 hPa 0,0 l/m 10,5 km/h (2 Bft) W 265 2 min 0,000 mm 4,9 UV-I 863 W/m 10,8 C 18,0 C 22,5 km/h (4 Bft) 100,00 %
13.07.2017 11:00 19,6 C 24,4 C 56 % 1018,8 hPa 0,0 l/m 18,0 km/h (3 Bft) W 261 2 min 0,457 mm 4,6 UV-I 867 W/m 10,6 C 16,1 C 27,4 km/h (4 Bft) 92,31 %
13.07.2017 11:02 19,5 C 24,4 C 56 % 1018,8 hPa 0,0 l/m 19,7 km/h (3 Bft) W-SW 240 2 min 0,000 mm 5,0 UV-I 888 W/m 10,5 C 15,6 C 25,7 km/h (4 Bft) 94,87 %
13.07.2017 11:04 19,6 C 24,4 C 58 % 1018,8 hPa 0,0 l/m 13,4 km/h (3 Bft) W-SW 247 2 min 0,000 mm 5,0 UV-I 893 W/m 11,1 C 17,2 C 25,7 km/h (4 Bft) 98,21 %
13.07.2017 11:06 19,7 C 23,9 C 57 % 1018,8 hPa 0,0 l/m 15,6 km/h (3 Bft) W-NW 287 2 min 0,000 mm 4,4 UV-I 870 W/m 10,9 C 16,7 C 22,5 km/h (4 Bft) 97,37 %
13.07.2017 11:08 19,6 C 24,4 C 58 % 1018,8 hPa 0,0 l/m 14,4 km/h (3 Bft) W-SW 241 0 min 0,000 mm 4,1 UV-I 334 W/m 11,1 C 16,9 C 29,0 km/h (5 Bft) 98,21 %
13.07.2017 11:10 19,6 C 24,4 C 57 % 1018,8 hPa 0,0 l/m 14,1 km/h (3 Bft) W 271 2 min 0,000 mm 5,1 UV-I 897 W/m 10,8 C 17,0 C 24,1 km/h (4 Bft) 95,12 %
13.07.2017 11:12 19,7 C 24,4 C 56 % 1018,8 hPa 0,0 l/m 12,7 km/h (3 Bft) W 273 2 min 0,000 mm 5,1 UV-I 894 W/m 10,7 C 17,5 C 27,4 km/h (4 Bft) 92,00 %
13.07.2017 11:14 19,7 C 24,4 C 56 % 1018,8 hPa 0,0 l/m 12,2 km/h (2 Bft) W-SW 253 2 min 0,000 mm 5,2 UV-I 882 W/m 10,7 C 17,6 C 25,7 km/h (4 Bft) 95,45 %
13.07.2017 11:16 19,6 C 24,4 C 55 % 1018,8 hPa 0,0 l/m 15,6 km/h (3 Bft) W 267 2 min 0,000 mm 5,3 UV-I 877 W/m 10,3 C 16,6 C 25,7 km/h (4 Bft) 97,73 %
13.07.2017 11:18 19,7 C 24,4 C 56 % 1018,8 hPa 0,0 l/m 8,4 km/h (2 Bft) W-SW 246 2 min 0,000 mm 5,3 UV-I 793 W/m 10,7 C 18,9 C 12,9 km/h (3 Bft) 100,00 %
13.07.2017 11:20 19,8 C 24,4 C 55 % 1018,8 hPa 0,0 l/m 13,9 km/h (3 Bft) W-SW 251 2 min 0,000 mm 5,3 UV-I 838 W/m 10,5 C 17,3 C 20,9 km/h (4 Bft) 97,56 %
13.07.2017 11:22 19,9 C 24,4 C 55 % 1018,8 hPa 0,0 l/m 13,1 km/h (3 Bft) W-SW 255 2 min 0,000 mm 5,4 UV-I 878 W/m 10,6 C 17,6 C 24,1 km/h (4 Bft) 100,00 %
13.07.2017 11:24 19,9 C 24,4 C 52 % 1018,8 hPa 0,0 l/m 13,4 km/h (3 Bft) NW 309 2 min 0,000 mm 4,3 UV-I 888 W/m 9,7 C 17,5 C 20,9 km/h (4 Bft) 95,45 %
13.07.2017 11:26 19,8 C 24,4 C 52 % 1018,8 hPa 0,0 l/m 12,3 km/h (3 Bft) W-SW 248 2 min 0,000 mm 5,5 UV-I 886 W/m 9,7 C 17,7 C 29,0 km/h (5 Bft) 100,00 %
13.07.2017 11:28 19,9 C 24,4 C 55 % 1018,8 hPa 0,0 l/m 10,2 km/h (2 Bft) S 181 2 min 0,000 mm 5,5 UV-I 887 W/m 10,6 C 18,5 C 16,1 km/h (3 Bft) 100,00 %
13.07.2017 11:30 19,9 C 24,4 C 54 % 1018,8 hPa 0,0 l/m 12,6 km/h (3 Bft) W-SW 237 2 min 0,000 mm 5,6 UV-I 912 W/m 10,3 C 17,7 C 20,9 km/h (4 Bft) 97,56 %
13.07.2017 11:32 20,0 C 24,4 C 56 % 1018,8 hPa 0,0 l/m 9,5 km/h (2 Bft) W-SW 248 2 min 0,000 mm 5,6 UV-I 927 W/m 11,0 C 18,8 C 19,3 km/h (3 Bft) 100,00 %
13.07.2017 11:34 20,2 C 24,4 C 55 % 1018,7 hPa 0,0 l/m 11,3 km/h (2 Bft) N 11 2 min 0,000 mm 4,0 UV-I 715 W/m 10,9 C 18,5 C 22,5 km/h (4 Bft) 100,00 %
13.07.2017 11:36 19,8 C 24,4 C 52 % 1018,8 hPa 0,0 l/m 10,6 km/h (2 Bft) W 268 0 min 0,000 mm 4,2 UV-I 250 W/m 9,7 C 18,2 C 22,5 km/h (4 Bft) 95,24 %
13.07.2017 11:38 19,7 C 24,4 C 53 % 1018,8 hPa 0,0 l/m 14,1 km/h (3 Bft) W 269 2 min 0,000 mm 5,6 UV-I 905 W/m 9,8 C 17,1 C 24,1 km/h (4 Bft) 92,00 %
13.07.2017 11:40 19,8 C 24,4 C 54 % 1019,1 hPa 0,0 l/m 12,5 km/h (3 Bft) W-SW 248 2 min 0,000 mm 5,3 UV-I 896 W/m 10,2 C 17,7 C 29,0 km/h (5 Bft) 98,11 %
13.07.2017 11:42 19,9 C 24,4 C 53 % 1018,9 hPa 0,0 l/m 17,0 km/h (3 Bft) W-SW 250 2 min 0,000 mm 5,7 UV-I 895 W/m 10,0 C 16,7 C 27,4 km/h (4 Bft) 100,00 %
13.07.2017 11:44 19,9 C 24,4 C 53 % 1018,9 hPa 0,0 l/m 17,6 km/h (3 Bft) W 267 2 min 0,000 mm 5,7 UV-I 894 W/m 10,0 C 16,5 C 27,4 km/h (4 Bft) 100,00 %
13.07.2017 11:46 19,9 C 24,4 C 51 % 1018,9 hPa 0,0 l/m 9,6 km/h (2 Bft) N-NW 348 2 min 0,000 mm 5,7 UV-I 886 W/m 9,5 C 18,7 C 25,7 km/h (4 Bft) 94,12 %
13.07.2017 11:48 19,9 C 24,4 C 52 % 1019,0 hPa 0,0 l/m 15,7 km/h (3 Bft) W-SW 252 2 min 0,000 mm 5,8 UV-I 889 W/m 9,7 C 17,0 C 25,7 km/h (4 Bft) 93,18 %
13.07.2017 11:50 20,0 C 24,4 C 52 % 1018,9 hPa 0,0 l/m 16,2 km/h (3 Bft) N-NW 337 2 min 0,000 mm 5,8 UV-I 889 W/m 9,8 C 17,0 C 24,1 km/h (4 Bft) 100,00 %
13.07.2017 11:52 20,1 C 24,4 C 51 % 1018,9 hPa 0,0 l/m 14,0 km/h (3 Bft) W-SW 237 2 min 0,000 mm 5,8 UV-I 888 W/m 9,6 C 17,6 C 27,4 km/h (4 Bft) 100,00 %
13.07.2017 11:54 20,2 C 24,4 C 52 % 1019,0 hPa 0,0 l/m 14,5 km/h (3 Bft) W-SW 254 2 min 0,000 mm 5,8 UV-I 890 W/m 10,0 C 17,6 C 25,7 km/h (4 Bft) 96,23 %
13.07.2017 11:56 20,1 C 24,4 C 51 % 1018,9 hPa 0,0 l/m 12,8 km/h (3 Bft) W 259 2 min 0,000 mm 5,9 UV-I 895 W/m 9,6 C 17,9 C 22,5 km/h (4 Bft) 100,00 %
13.07.2017 11:58 20,1 C 24,4 C 51 % 1018,9 hPa 0,0 l/m 7,4 km/h (2 Bft) W-NW 283 2 min 0,000 mm 5,9 UV-I 906 W/m 9,6 C 19,7 C 14,5 km/h (3 Bft) 98,00 %
13.07.2017 12:00 20,2 C 24,4 C 51 % 1018,9 hPa 0,0 l/m 13,2 km/h (3 Bft) W 278 2 min 0,559 mm 6,0 UV-I 925 W/m 9,7 C 17,9 C 24,1 km/h (4 Bft) 97,87 %
13.07.2017 12:03 20,2 C 24,4 C 51 % 1018,9 hPa 0,0 l/m 15,4 km/h (3 Bft) S-SW 211 3 min 0,000 mm 5,5 UV-I 915 W/m 9,7 C 17,4 C 27,4 km/h (4 Bft) 100,00 %
13.07.2017 12:04 20,2 C 24,4 C 51 % 1018,9 hPa 0,0 l/m 19,3 km/h (3 Bft) W 261 1 min 0,000 mm 5,9 UV-I 894 W/m 9,7 C 16,6 C 25,7 km/h (4 Bft) 100,00 %
13.07.2017 12:06 20,2 C 24,4 C 51 % 1018,9 hPa 0,0 l/m 14,4 km/h (3 Bft) W 275 2 min 0,000 mm 6,0 UV-I 904 W/m 9,7 C 17,6 C 22,5 km/h (4 Bft) 96,23 %
13.07.2017 12:08 20,3 C 24,4 C 51 % 1018,9 hPa 0,0 l/m 10,3 km/h (2 Bft) SW 236 2 min 0,000 mm 6,0 UV-I 904 W/m 9,8 C 18,9 C 25,7 km/h (4 Bft) 100,00 %
13.07.2017 12:10 20,4 C 24,4 C 52 % 1018,9 hPa 0,0 l/m 10,7 km/h (2 Bft) SW 227 2 min 0,000 mm 6,1 UV-I 907 W/m 10,2 C 18,9 C 16,1 km/h (3 Bft) 92,68 %
13.07.2017 12:12 20,4 C 24,4 C 51 % 1018,9 hPa 0,0 l/m 6,3 km/h (2 Bft) SW 234 2 min 0,000 mm 6,1 UV-I 910 W/m 9,9 C 20,4 C 11,3 km/h (2 Bft) 96,23 %
13.07.2017 12:14 20,7 C 24,4 C 50 % 1018,9 hPa 0,0 l/m 13,0 km/h (3 Bft) W-NW 283 2 min 0,000 mm 6,2 UV-I 911 W/m 9,9 C 18,6 C 22,5 km/h (4 Bft) 97,44 %
13.07.2017 12:16 20,7 C 24,4 C 48 % 1019,0 hPa 0,0 l/m 16,0 km/h (3 Bft) W 277 2 min 0,000 mm 6,2 UV-I 910 W/m 9,3 C 17,9 C 30,6 km/h (5 Bft) 95,45 %
13.07.2017 12:18 20,4 C 24,4 C 49 % 1018,9 hPa 0,0 l/m 19,1 km/h (3 Bft) W-SW 257 2 min 0,000 mm 6,2 UV-I 909 W/m 9,3 C 16,9 C 30,6 km/h (5 Bft) 96,72 %
13.07.2017 12:20 20,4 C 24,4 C 52 % 1018,9 hPa 0,0 l/m 16,1 km/h (3 Bft) W 281 2 min 0,000 mm 6,2 UV-I 910 W/m 10,2 C 17,5 C 29,0 km/h (5 Bft) 92,86 %
13.07.2017 12:22 20,2 C 24,4 C 49 % 1018,8 hPa 0,0 l/m 12,6 km/h (3 Bft) W 266 2 min 0,000 mm 6,2 UV-I 907 W/m 9,1 C 18,1 C 24,1 km/h (4 Bft) 91,49 %
13.07.2017 12:24 20,2 C 24,4 C 50 % 1018,9 hPa 0,0 l/m 8,9 km/h (2 Bft) W-SW 238 2 min 0,000 mm 6,2 UV-I 912 W/m 9,4 C 19,2 C 27,4 km/h (4 Bft) 98,11 %
13.07.2017 12:26 20,2 C 24,4 C 49 % 1018,8 hPa 0,0 l/m 15,9 km/h (3 Bft) W 274 2 min 0,000 mm 6,2 UV-I 913 W/m 9,1 C 17,3 C 30,6 km/h (5 Bft) 97,56 %
13.07.2017 12:28 20,3 C 24,4 C 51 % 1018,9 hPa 0,0 l/m 13,6 km/h (3 Bft) W-SW 242 2 min 0,000 mm 6,3 UV-I 918 W/m 9,8 C 18,0 C 24,1 km/h (4 Bft) 97,73 %
13.07.2017 12:30 20,6 C 24,4 C 51 % 1018,8 hPa 0,0 l/m 13,6 km/h (3 Bft) W-NW 296 2 min 0,000 mm 6,3 UV-I 919 W/m 10,1 C 18,3 C 22,5 km/h (4 Bft) 97,73 %
13.07.2017 12:32 20,7 C 24,4 C 49 % 1018,7 hPa 0,0 l/m 8,9 km/h (2 Bft) SW 234 2 min 0,000 mm 6,3 UV-I 911 W/m 9,6 C 19,8 C 20,9 km/h (4 Bft) 92,45 %
13.07.2017 12:34 21,1 C 24,4 C 49 % 1018,7 hPa 0,0 l/m 3,9 km/h (1 Bft) W 273 2 min 0,000 mm 6,3 UV-I 921 W/m 10,0 C 21,1 C 11,3 km/h (2 Bft) 96,23 %
13.07.2017 12:36 21,3 C 24,4 C 49 % 1018,9 hPa 0,0 l/m 12,6 km/h (3 Bft) W-SW 253 2 min 0,000 mm 6,3 UV-I 923 W/m 10,1 C 19,4 C 27,4 km/h (4 Bft) 93,10 %
13.07.2017 12:38 21,2 C 24,4 C 48 % 1018,9 hPa 0,0 l/m 14,7 km/h (3 Bft) W 278 2 min 0,000 mm 6,3 UV-I 921 W/m 9,7 C 18,8 C 24,1 km/h (4 Bft) 95,16 %
13.07.2017 12:40 21,1 C 24,4 C 49 % 1018,8 hPa 0,0 l/m 15,2 km/h (3 Bft) W-SW 255 2 min 0,000 mm 6,3 UV-I 920 W/m 10,0 C 18,5 C 29,0 km/h (5 Bft) 92,68 %
13.07.2017 12:42 20,9 C 24,4 C 49 % 1018,8 hPa 0,0 l/m 12,7 km/h (3 Bft) SW 217 2 min 0,000 mm 5,5 UV-I 919 W/m 9,8 C 18,9 C 17,7 km/h (3 Bft) 96,23 %
13.07.2017 12:44 20,9 C 24,4 C 49 % 1018,8 hPa 0,0 l/m 10,7 km/h (2 Bft) W-SW 244 2 min 0,000 mm 6,4 UV-I 929 W/m 9,8 C 19,4 C 20,9 km/h (4 Bft) 97,73 %
13.07.2017 12:46 20,9 C 24,4 C 49 % 1018,8 hPa 0,0 l/m 15,4 km/h (3 Bft) W-SW 248 2 min 0,000 mm 6,4 UV-I 926 W/m 9,8 C 18,3 C 25,7 km/h (4 Bft) 97,73 %
13.07.2017 12:48 20,8 C 24,4 C 50 % 1018,8 hPa 0,0 l/m 11,7 km/h (2 Bft) W-SW 256 2 min 0,000 mm 6,4 UV-I 929 W/m 10,0 C 19,0 C 24,1 km/h (4 Bft) 98,11 %
13.07.2017 12:50 20,8 C 24,4 C 50 % 1018,8 hPa 0,0 l/m 14,8 km/h (3 Bft) W-NW 293 2 min 0,000 mm 6,4 UV-I 930 W/m 10,0 C 18,3 C 29,0 km/h (5 Bft) 97,37 %
13.07.2017 12:52 20,9 C 24,4 C 48 % 1018,8 hPa 0,0 l/m 14,5 km/h (3 Bft) W-SW 249 2 min 0,000 mm 6,4 UV-I 930 W/m 9,5 C 18,5 C 27,4 km/h (4 Bft) 98,00 %
13.07.2017 12:54 20,8 C 24,4 C 48 % 1018,7 hPa 0,0 l/m 12,7 km/h (3 Bft) W-SW 238 2 min 0,000 mm 6,4 UV-I 916 W/m 9,4 C 18,8 C 24,1 km/h (4 Bft) 100,00 %
13.07.2017 12:56 20,8 C 24,4 C 50 % 1018,7 hPa 0,0 l/m 11,6 km/h (2 Bft) W-SW 240 2 min 0,000 mm 6,4 UV-I 920 W/m 10,0 C 19,1 C 19,3 km/h (3 Bft) 98,00 %
13.07.2017 12:58 20,9 C 24,4 C 50 % 1018,8 hPa 0,0 l/m 13,6 km/h (3 Bft) W-SW 257 2 min 0,000 mm 6,4 UV-I 924 W/m 10,1 C 18,7 C 29,0 km/h (5 Bft) 100,00 %
13.07.2017 13:00 20,8 C 24,4 C 49 % 1018,8 hPa 0,0 l/m 16,0 km/h (3 Bft) W 277 2 min 0,000 mm 6,4 UV-I 935 W/m 9,7 C 18,0 C 24,1 km/h (4 Bft) 97,56 %
13.07.2017 13:02 21,0 C 24,4 C 50 % 1018,8 hPa 0,0 l/m 11,5 km/h (2 Bft) W 267 2 min 0,635 mm 6,5 UV-I 939 W/m 10,2 C 19,3 C 16,1 km/h (3 Bft) 96,23 %
13.07.2017 13:04 21,2 C 24,4 C 50 % 1018,7 hPa 0,0 l/m 13,1 km/h (3 Bft) SW 227 2 min 0,000 mm 6,4 UV-I 929 W/m 10,4 C 19,1 C 19,3 km/h (3 Bft) 94,00 %
13.07.2017 13:06 21,1 C 24,4 C 48 % 1018,8 hPa 0,0 l/m 15,9 km/h (3 Bft) W-SW 257 2 min 0,000 mm 6,4 UV-I 926 W/m 9,7 C 18,4 C 22,5 km/h (4 Bft) 97,87 %
13.07.2017 13:08 20,9 C 25,0 C 50 % 1018,8 hPa 0,0 l/m 12,4 km/h (3 Bft) W-SW 238 2 min 0,000 mm 6,4 UV-I 928 W/m 10,1 C 19,0 C 22,5 km/h (4 Bft) 94,74 %
13.07.2017 13:10 20,9 C 25,0 C 49 % 1018,7 hPa 0,0 l/m 15,2 km/h (3 Bft) W-SW 254 2 min 0,000 mm 6,4 UV-I 926 W/m 9,8 C 18,3 C 24,1 km/h (4 Bft) 100,00 %
13.07.2017 13:12 21,1 C 25,0 C 49 % 1018,7 hPa 0,0 l/m 9,6 km/h (2 Bft) W-SW 253 2 min 0,000 mm 6,4 UV-I 928 W/m 10,0 C 20,0 C 20,9 km/h (4 Bft) 94,34 %
13.07.2017 13:14 21,2 C 25,0 C 49 % 1018,8 hPa 0,0 l/m 16,4 km/h (3 Bft) W-SW 254 2 min 0,000 mm 6,4 UV-I 929 W/m 10,1 C 18,4 C 24,1 km/h (4 Bft) 96,43 %
13.07.2017 13:16 21,1 C 25,0 C 48 % 1018,7 hPa 0,0 l/m 13,8 km/h (3 Bft) W 259 2 min 0,000 mm 6,4 UV-I 923 W/m 9,7 C 18,9 C 20,9 km/h (4 Bft) 97,37 %
13.07.2017 13:18 21,1 C 25,0 C 50 % 1018,6 hPa 0,0 l/m 12,1 km/h (2 Bft) W 266 2 min 0,000 mm 6,4 UV-I 929 W/m 10,3 C 19,3 C 20,9 km/h (4 Bft) 96,23 %
13.07.2017 13:20 21,1 C 25,0 C 49 % 1018,7 hPa 0,0 l/m 18,9 km/h (3 Bft) W-SW 258 2 min 0,000 mm 6,4 UV-I 936 W/m 10,0 C 17,8 C 29,0 km/h (5 Bft) 96,23 %
13.07.2017 13:22 21,1 C 25,0 C 48 % 1018,7 hPa 0,0 l/m 7,6 km/h (2 Bft) SW 230 2 min 0,000 mm 6,4 UV-I 935 W/m 9,7 C 20,7 C 17,7 km/h (3 Bft) 95,45 %
13.07.2017 13:24 21,2 C 25,0 C 48 % 1018,7 hPa 0,0 l/m 12,2 km/h (2 Bft) W-SW 242 2 min 0,000 mm 6,4 UV-I 940 W/m 9,7 C 19,4 C 22,5 km/h (4 Bft) 97,37 %
13.07.2017 13:26 21,2 C 25,0 C 50 % 1018,7 hPa 0,0 l/m 13,6 km/h (3 Bft) N-NW 328 2 min 0,000 mm 6,5 UV-I 944 W/m 10,4 C 19,0 C 20,9 km/h (4 Bft) 94,34 %
13.07.2017 13:28 21,4 C 25,0 C 48 % 1018,6 hPa 0,0 l/m 12,0 km/h (2 Bft) W-NW 287 2 min 0,000 mm 6,5 UV-I 935 W/m 9,9 C 19,6 C 22,5 km/h (4 Bft) 96,23 %
13.07.2017 13:30 21,5 C 25,0 C 48 % 1018,6 hPa 0,0 l/m 14,4 km/h (3 Bft) W 271 2 min 0,000 mm 6,4 UV-I 931 W/m 10,0 C 19,2 C 27,4 km/h (4 Bft) 95,12 %
13.07.2017 13:33 21,4 C 25,0 C 48 % 1018,6 hPa 0,0 l/m 12,8 km/h (3 Bft) W 269 3 min 0,000 mm 6,4 UV-I 935 W/m 9,9 C 19,4 C 24,1 km/h (4 Bft) 97,06 %
13.07.2017 13:34 21,3 C 25,0 C 49 % 1018,6 hPa 0,0 l/m 20,5 km/h (4 Bft) W-SW 240 1 min 0,000 mm 6,4 UV-I 944 W/m 10,1 C 17,8 C 25,7 km/h (4 Bft) 95,83 %
13.07.2017 13:36 21,3 C 25,0 C 49 % 1018,6 hPa 0,0 l/m 13,8 km/h (3 Bft) SW 221 2 min 0,000 mm 6,4 UV-I 951 W/m 10,1 C 19,1 C 19,3 km/h (3 Bft) 95,92 %
13.07.2017 13:38 21,6 C 25,0 C 51 % 1018,7 hPa 0,0 l/m 13,5 km/h (3 Bft) W-NW 287 2 min 0,000 mm 6,4 UV-I 938 W/m 11,0 C 19,5 C 20,9 km/h (4 Bft) 98,00 %
13.07.2017 13:40 21,8 C 25,0 C 48 % 1018,6 hPa 0,0 l/m 16,1 km/h (3 Bft) W-SW 247 2 min 0,000 mm 6,4 UV-I 941 W/m 10,3 C 19,2 C 32,2 km/h (5 Bft) 96,67 %
13.07.2017 13:42 21,9 C 25,0 C 46 % 1018,6 hPa 0,0 l/m 19,5 km/h (3 Bft) W 269 2 min 0,000 mm 6,3 UV-I 934 W/m 9,7 C 18,7 C 29,0 km/h (5 Bft) 96,43 %
13.07.2017 13:44 21,8 C 25,0 C 47 % 1018,5 hPa 0,0 l/m 16,1 km/h (3 Bft) W-SW 250 2 min 0,000 mm 6,3 UV-I 929 W/m 10,0 C 19,2 C 25,7 km/h (4 Bft) 96,43 %
13.07.2017 13:46 21,8 C 25,0 C 46 % 1018,6 hPa 0,0 l/m 12,4 km/h (3 Bft) W-SW 250 2 min 0,000 mm 6,3 UV-I 922 W/m 9,7 C 20,0 C 24,1 km/h (4 Bft) 95,12 %
13.07.2017 13:48 21,7 C 25,0 C 48 % 1018,6 hPa 0,0 l/m 13,6 km/h (3 Bft) W-SW 244 2 min 0,000 mm 6,2 UV-I 918 W/m 10,2 C 19,6 C 22,5 km/h (4 Bft) 94,00 %
13.07.2017 13:50 21,7 C 25,0 C 47 % 1018,5 hPa 0,0 l/m 13,5 km/h (3 Bft) W-SW 250 2 min 0,000 mm 6,2 UV-I 912 W/m 9,9 C 19,6 C 29,0 km/h (5 Bft) 95,74 %
13.07.2017 13:52 21,7 C 25,0 C 46 % 1018,4 hPa 0,0 l/m 18,8 km/h (3 Bft) W-SW 245 2 min 0,000 mm 6,1 UV-I 913 W/m 9,6 C 18,6 C 32,2 km/h (5 Bft) 91,49 %
13.07.2017 13:54 21,7 C 25,0 C 47 % 1018,4 hPa 0,0 l/m 14,9 km/h (3 Bft) W-SW 238 2 min 0,000 mm 6,1 UV-I 913 W/m 9,9 C 19,3 C 30,6 km/h (5 Bft) 92,00 %
13.07.2017 13:56 21,7 C 25,0 C 46 % 1018,4 hPa 0,0 l/m 18,8 km/h (3 Bft) W 274 2 min 0,000 mm 6,0 UV-I 903 W/m 9,6 C 18,6 C 32,2 km/h (5 Bft) 93,18 %
13.07.2017 13:58 21,6 C 25,0 C 46 % 1018,4 hPa 0,0 l/m 11,8 km/h (2 Bft) W-NW 286 2 min 0,000 mm 6,1 UV-I 913 W/m 9,5 C 19,9 C 17,7 km/h (3 Bft) 97,56 %
13.07.2017 14:00 21,6 C 25,0 C 46 % 1018,4 hPa 0,0 l/m 10,1 km/h (2 Bft) S-SW 211 2 min 0,661 mm 6,1 UV-I 913 W/m 9,5 C 20,4 C 17,7 km/h (3 Bft) 92,00 %
13.07.2017 14:02 21,7 C 25,0 C 48 % 1018,4 hPa 0,0 l/m 11,5 km/h (2 Bft) SW 226 2 min 0,000 mm 6,0 UV-I 896 W/m 10,2 C 20,1 C 19,3 km/h (3 Bft) 95,74 %
13.07.2017 14:04 21,7 C 25,0 C 46 % 1018,4 hPa 0,0 l/m 15,2 km/h (3 Bft) W 262 2 min 0,000 mm 6,1 UV-I 926 W/m 9,6 C 19,3 C 22,5 km/h (4 Bft) 96,30 %
13.07.2017 14:06 21,6 C 25,0 C 46 % 1018,3 hPa 0,0 l/m 10,4 km/h (2 Bft) W-SW 247 2 min 0,000 mm 6,0 UV-I 925 W/m 9,5 C 20,3 C 16,1 km/h (3 Bft) 95,08 %
13.07.2017 14:08 21,7 C 25,0 C 46 % 1018,3 hPa 0,0 l/m 7,4 km/h (2 Bft) W-SW 247 2 min 0,000 mm 6,1 UV-I 928 W/m 9,6 C 21,3 C 19,3 km/h (3 Bft) 92,00 %
13.07.2017 14:10 22,0 C 25,0 C 47 % 1018,4 hPa 0,0 l/m 15,3 km/h (3 Bft) W 277 2 min 0,000 mm 5,9 UV-I 904 W/m 10,2 C 19,6 C 25,7 km/h (4 Bft) 92,00 %
13.07.2017 14:12 22,1 C 25,0 C 46 % 1018,3 hPa 0,0 l/m 9,7 km/h (2 Bft) SW 231 2 min 0,000 mm 6,0 UV-I 905 W/m 9,9 C 21,0 C 12,9 km/h (3 Bft) 90,00 %
13.07.2017 14:14 22,0 C 25,0 C 45 % 1018,3 hPa 0,0 l/m 10,1 km/h (2 Bft) W-SW 251 2 min 0,000 mm 5,9 UV-I 899 W/m 9,5 C 20,8 C 17,7 km/h (3 Bft) 96,30 %
13.07.2017 14:16 22,0 C 25,0 C 47 % 1018,3 hPa 0,0 l/m 12,4 km/h (3 Bft) N-NW 342 2 min 0,000 mm 5,9 UV-I 897 W/m 10,2 C 20,2 C 20,9 km/h (4 Bft) 94,03 %
13.07.2017 14:18 22,1 C 25,0 C 43 % 1018,3 hPa 0,0 l/m 13,2 km/h (3 Bft) W 279 2 min 0,000 mm 5,8 UV-I 894 W/m 8,9 C 20,2 C 20,9 km/h (4 Bft) 97,44 %
13.07.2017 14:20 21,8 C 25,0 C 45 % 1018,3 hPa 0,0 l/m 17,2 km/h (3 Bft) W 273 2 min 0,000 mm 5,8 UV-I 893 W/m 9,3 C 19,0 C 32,2 km/h (5 Bft) 98,00 %
13.07.2017 14:22 21,8 C 25,0 C 44 % 1018,4 hPa 0,0 l/m 17,5 km/h (3 Bft) W 279 2 min 0,000 mm 5,8 UV-I 893 W/m 9,0 C 19,0 C 32,2 km/h (5 Bft) 98,11 %
13.07.2017 14:24 21,8 C 25,0 C 44 % 1018,3 hPa 0,0 l/m 12,8 km/h (3 Bft) W-SW 252 2 min 0,000 mm 5,7 UV-I 890 W/m 9,0 C 19,9 C 17,7 km/h (3 Bft) 95,12 %
13.07.2017 14:26 21,7 C 25,0 C 44 % 1018,3 hPa 0,0 l/m 10,3 km/h (2 Bft) W-SW 250 2 min 0,000 mm 5,7 UV-I 885 W/m 8,9 C 20,4 C 17,7 km/h (3 Bft) 98,00 %
13.07.2017 14:28 21,9 C 25,0 C 45 % 1018,2 hPa 0,0 l/m 8,7 km/h (2 Bft) W 260 2 min 0,000 mm 5,7 UV-I 885 W/m 9,4 C 21,1 C 16,1 km/h (3 Bft) 95,12 %
13.07.2017 14:30 22,0 C 25,0 C 44 % 1018,3 hPa 0,0 l/m 14,0 km/h (3 Bft) W 261 2 min 0,000 mm 5,6 UV-I 878 W/m 9,2 C 19,9 C 30,6 km/h (5 Bft) 94,34 %
13.07.2017 14:32 22,0 C 25,0 C 44 % 1018,2 hPa 0,0 l/m 5,6 km/h (1 Bft) NW 312 2 min 0,000 mm 5,6 UV-I 874 W/m 9,2 C 22,0 C 11,3 km/h (2 Bft) 97,73 %
13.07.2017 14:34 21,9 C 25,0 C 46 % 1018,3 hPa 0,0 l/m 7,7 km/h (2 Bft) W-SW 246 2 min 0,000 mm 5,5 UV-I 872 W/m 9,7 C 21,4 C 17,7 km/h (3 Bft) 95,12 %
13.07.2017 14:36 22,1 C 25,0 C 43 % 1018,2 hPa 0,0 l/m 9,0 km/h (2 Bft) SW 232 2 min 0,000 mm 5,5 UV-I 864 W/m 8,9 C 21,2 C 14,5 km/h (3 Bft) 97,87 %
13.07.2017 14:38 22,2 C 25,0 C 43 % 1018,3 hPa 0,0 l/m 9,0 km/h (2 Bft) NO 50 2 min 0,000 mm 5,5 UV-I 874 W/m 9,0 C 21,4 C 17,7 km/h (3 Bft) 98,00 %
13.07.2017 14:40 22,2 C 25,0 C 41 % 1018,2 hPa 0,0 l/m 6,2 km/h (2 Bft) W-NW 296 2 min 0,000 mm 5,5 UV-I 871 W/m 8,3 C 22,2 C 16,1 km/h (3 Bft) 96,23 %
13.07.2017 14:42 22,3 C 25,0 C 41 % 1018,2 hPa 0,0 l/m 11,1 km/h (2 Bft) W-SW 254 2 min 0,000 mm 5,4 UV-I 864 W/m 8,4 C 20,9 C 20,9 km/h (4 Bft) 95,45 %
13.07.2017 14:44 22,4 C 25,0 C 43 % 1018,2 hPa 0,0 l/m 8,9 km/h (2 Bft) W-SW 249 2 min 0,000 mm 5,4 UV-I 862 W/m 9,2 C 21,6 C 19,3 km/h (3 Bft) 96,00 %
13.07.2017 14:46 22,5 C 25,0 C 42 % 1018,2 hPa 0,0 l/m 10,7 km/h (2 Bft) W 265 2 min 0,000 mm 5,4 UV-I 861 W/m 8,9 C 21,2 C 22,5 km/h (4 Bft) 100,00 %
13.07.2017 14:48 22,4 C 25,0 C 43 % 1018,2 hPa 0,0 l/m 13,9 km/h (3 Bft) SW 236 2 min 0,000 mm 5,3 UV-I 854 W/m 9,2 C 20,4 C 22,5 km/h (4 Bft) 96,23 %
13.07.2017 14:50 22,3 C 25,0 C 43 % 1018,2 hPa 0,0 l/m 16,1 km/h (3 Bft) SW 219 2 min 0,000 mm 5,3 UV-I 852 W/m 9,1 C 19,8 C 33,8 km/h (5 Bft) 100,00 %
13.07.2017 14:52 22,2 C 25,0 C 41 % 1018,2 hPa 0,0 l/m 25,0 km/h (4 Bft) SW 221 2 min 0,000 mm 5,2 UV-I 852 W/m 8,3 C 18,4 C 53,1 km/h (7 Bft) 98,00 %
13.07.2017 14:54 22,2 C 25,0 C 42 % 1018,2 hPa 0,0 l/m 11,8 km/h (2 Bft) SW 236 2 min 0,000 mm 5,2 UV-I 853 W/m 8,7 C 20,6 C 22,5 km/h (4 Bft) 97,62 %
13.07.2017 14:56 22,2 C 25,0 C 43 % 1018,3 hPa 0,0 l/m 14,3 km/h (3 Bft) W 273 2 min 0,000 mm 5,1 UV-I 841 W/m 9,0 C 20,1 C 20,9 km/h (4 Bft) 100,00 %
13.07.2017 14:58 22,1 C 25,0 C 42 % 1018,1 hPa 0,0 l/m 7,2 km/h (2 Bft) SW 234 2 min 0,000 mm 5,0 UV-I 832 W/m 8,6 C 21,8 C 12,9 km/h (3 Bft) 97,87 %
13.07.2017 15:00 22,1 C 25,0 C 41 % 1018,1 hPa 0,0 l/m 14,4 km/h (3 Bft) W-SW 240 2 min 0,609 mm 5,0 UV-I 832 W/m 8,2 C 19,9 C 29,0 km/h (5 Bft) 97,56 %
13.07.2017 15:02 22,2 C 25,0 C 42 % 1018,2 hPa 0,0 l/m 9,7 km/h (2 Bft) W-NW 287 2 min 0,000 mm 5,0 UV-I 833 W/m 8,7 C 21,2 C 20,9 km/h (4 Bft) 100,00 %
13.07.2017 15:04 22,2 C 25,0 C 40 % 1018,3 hPa 0,0 l/m 11,8 km/h (2 Bft) W 275 2 min 0,000 mm 5,0 UV-I 833 W/m 8,0 C 20,6 C 22,5 km/h (4 Bft) 100,00 %
13.07.2017 15:06 22,2 C 25,0 C 40 % 1018,0 hPa 0,0 l/m 9,9 km/h (2 Bft) W 259 2 min 0,000 mm 4,9 UV-I 829 W/m 8,0 C 21,1 C 17,7 km/h (3 Bft) 100,00 %
13.07.2017 15:08 22,3 C 25,0 C 41 % 1018,0 hPa 0,0 l/m 9,1 km/h (2 Bft) W-SW 248 2 min 0,000 mm 4,9 UV-I 824 W/m 8,4 C 21,4 C 17,7 km/h (3 Bft) 100,00 %
13.07.2017 15:10 22,7 C 25,0 C 41 % 1018,0 hPa 0,0 l/m 14,2 km/h (3 Bft) W-NW 293 2 min 0,000 mm 4,8 UV-I 823 W/m 8,8 C 20,7 C 22,5 km/h (4 Bft) 98,31 %
13.07.2017 15:12 22,8 C 25,0 C 37 % 1018,0 hPa 0,0 l/m 13,2 km/h (3 Bft) W-SW 240 2 min 0,000 mm 4,8 UV-I 817 W/m 7,3 C 21,0 C 19,3 km/h (3 Bft) 100,00 %
13.07.2017 15:14 22,4 C 25,0 C 37 % 1017,9 hPa 0,0 l/m 8,4 km/h (2 Bft) S-SW 201 2 min 0,000 mm 4,8 UV-I 810 W/m 7,0 C 21,7 C 20,9 km/h (4 Bft) 98,11 %
13.07.2017 15:16 22,4 C 25,0 C 40 % 1018,0 hPa 0,0 l/m 8,4 km/h (2 Bft) W-SW 244 2 min 0,000 mm 4,7 UV-I 806 W/m 8,1 C 21,7 C 17,7 km/h (3 Bft) 97,87 %
13.07.2017 15:18 22,6 C 25,0 C 41 % 1018,0 hPa 0,0 l/m 8,2 km/h (2 Bft) W-SW 257 2 min 0,000 mm 4,7 UV-I 807 W/m 8,7 C 22,0 C 17,7 km/h (3 Bft) 100,00 %
13.07.2017 15:20 22,6 C 25,6 C 40 % 1018,0 hPa 0,0 l/m 6,4 km/h (2 Bft) SW 225 2 min 0,000 mm 4,6 UV-I 797 W/m 8,3 C 22,6 C 12,9 km/h (3 Bft) 94,34 %
13.07.2017 15:22 22,7 C 25,6 C 39 % 1018,0 hPa 0,0 l/m 9,7 km/h (2 Bft) SW 223 2 min 0,000 mm 4,5 UV-I 790 W/m 8,0 C 21,7 C 24,1 km/h (4 Bft) 100,00 %
13.07.2017 15:24 22,5 C 25,6 C 38 % 1018,0 hPa 0,0 l/m 8,8 km/h (2 Bft) N-NW 344 2 min 0,000 mm 4,5 UV-I 789 W/m 7,5 C 21,7 C 20,9 km/h (4 Bft) 94,74 %
13.07.2017 15:26 22,7 C 25,6 C 41 % 1018,0 hPa 0,0 l/m 3,9 km/h (1 Bft) W 265 2 min 0,000 mm 4,5 UV-I 795 W/m 8,8 C 22,7 C 9,7 km/h (2 Bft) 100,00 %
13.07.2017 15:28 22,8 C 25,6 C 39 % 1018,0 hPa 0,0 l/m 7,4 km/h (2 Bft) W 263 2 min 0,000 mm 4,5 UV-I 787 W/m 8,1 C 22,5 C 17,7 km/h (3 Bft) 95,12 %
13.07.2017 15:30 22,7 C 25,6 C 39 % 1018,0 hPa 0,0 l/m 4,0 km/h (1 Bft) W-NW 300 2 min 0,000 mm 4,4 UV-I 781 W/m 8,0 C 22,7 C 8,0 km/h (2 Bft) 98,00 %
13.07.2017 15:32 22,5 C 25,6 C 39 % 1017,9 hPa 0,0 l/m 8,1 km/h (2 Bft) NW 325 2 min 0,000 mm 4,3 UV-I 777 W/m 7,8 C 21,9 C 22,5 km/h (4 Bft) 97,92 %
13.07.2017 15:34 22,6 C 25,6 C 40 % 1017,8 hPa 0,0 l/m 8,2 km/h (2 Bft) N-NO 19 2 min 0,000 mm 4,3 UV-I 777 W/m 8,3 C 22,0 C 16,1 km/h (3 Bft) 96,15 %
13.07.2017 15:36 22,6 C 25,6 C 41 % 1017,8 hPa 0,0 l/m 6,8 km/h (2 Bft) SW 225 2 min 0,000 mm 4,2 UV-I 771 W/m 8,7 C 22,5 C 12,9 km/h (3 Bft) 100,00 %
13.07.2017 15:38 22,7 C 25,6 C 41 % 1017,9 hPa 0,0 l/m 6,6 km/h (2 Bft) N-NW 339 2 min 0,000 mm 4,2 UV-I 764 W/m 8,8 C 22,6 C 12,9 km/h (3 Bft) 98,00 %
13.07.2017 15:40 22,8 C 25,6 C 42 % 1017,9 hPa 0,0 l/m 4,4 km/h (1 Bft) W-NW 298 2 min 0,000 mm 4,1 UV-I 759 W/m 9,2 C 22,8 C 12,9 km/h (3 Bft) 100,00 %
13.07.2017 15:42 23,1 C 25,6 C 39 % 1017,9 hPa 0,0 l/m 3,6 km/h (1 Bft) W 267 2 min 0,000 mm 4,1 UV-I 757 W/m 8,4 C 23,1 C 6,4 km/h (2 Bft) 95,74 %
13.07.2017 15:44 23,0 C 25,6 C 41 % 1018,0 hPa 0,0 l/m 9,5 km/h (2 Bft) W 265 2 min 0,000 mm 4,1 UV-I 756 W/m 9,0 C 22,1 C 22,5 km/h (4 Bft) 96,23 %
13.07.2017 15:46 22,8 C 25,6 C 39 % 1017,7 hPa 0,0 l/m 10,6 km/h (2 Bft) W 259 2 min 0,000 mm 4,0 UV-I 749 W/m 8,1 C 21,6 C 19,3 km/h (3 Bft) 100,00 %
13.07.2017 15:48 22,6 C 25,6 C 38 % 1017,8 hPa 0,0 l/m 11,9 km/h (2 Bft) W 277 2 min 0,000 mm 4,0 UV-I 747 W/m 7,6 C 21,0 C 20,9 km/h (4 Bft) 100,00 %
13.07.2017 15:50 22,6 C 25,6 C 38 % 1017,9 hPa 0,0 l/m 8,1 km/h (2 Bft) NO 51 2 min 0,000 mm 3,9 UV-I 744 W/m 7,6 C 22,1 C 14,5 km/h (3 Bft) 98,00 %
13.07.2017 15:52 22,7 C 25,6 C 39 % 1017,9 hPa 0,0 l/m 7,6 km/h (2 Bft) W-NW 282 2 min 0,000 mm 3,7 UV-I 742 W/m 8,0 C 22,3 C 16,1 km/h (3 Bft) 97,73 %
13.07.2017 15:54 22,8 C 25,6 C 38 % 1017,9 hPa 0,0 l/m 8,2 km/h (2 Bft) W 273 2 min 0,000 mm 3,8 UV-I 737 W/m 7,7 C 22,2 C 16,1 km/h (3 Bft) 96,15 %
13.07.2017 15:56 22,8 C 25,6 C 39 % 1017,9 hPa 0,0 l/m 9,4 km/h (2 Bft) W-NW 289 2 min 0,000 mm 3,8 UV-I 731 W/m 8,1 C 21,9 C 17,7 km/h (3 Bft) 97,06 %
13.07.2017 15:58 22,8 C 25,6 C 38 % 1017,9 hPa 0,0 l/m 11,9 km/h (2 Bft) W-NW 292 2 min 0,000 mm 3,7 UV-I 725 W/m 7,7 C 21,3 C 19,3 km/h (3 Bft) 97,56 %
13.07.2017 16:00 22,6 C 25,6 C 37 % 1017,9 hPa 0,0 l/m 6,9 km/h (2 Bft) N-NW 336 2 min 0,534 mm 3,7 UV-I 721 W/m 7,2 C 22,4 C 14,5 km/h (3 Bft) 96,36 %
13.07.2017 16:02 22,5 C 25,6 C 38 % 1017,8 hPa 0,0 l/m 7,3 km/h (2 Bft) S-SW 197 2 min 0,000 mm 3,6 UV-I 716 W/m 7,5 C 22,2 C 14,5 km/h (3 Bft) 95,74 %
13.07.2017 16:04 22,7 C 25,6 C 39 % 1017,8 hPa 0,0 l/m 9,0 km/h (2 Bft) W-SW 242 2 min 0,000 mm 3,6 UV-I 714 W/m 8,0 C 21,9 C 16,1 km/h (3 Bft) 94,74 %
13.07.2017 16:06 22,8 C 25,6 C 35 % 1017,8 hPa 0,0 l/m 13,0 km/h (3 Bft) W-SW 258 2 min 0,000 mm 3,6 UV-I 711 W/m 6,5 C 21,0 C 30,6 km/h (5 Bft) 96,08 %
13.07.2017 16:08 22,7 C 25,6 C 36 % 1017,8 hPa 0,0 l/m 11,7 km/h (2 Bft) W-SW 237 2 min 0,000 mm 3,5 UV-I 706 W/m 6,9 C 21,2 C 19,3 km/h (3 Bft) 97,62 %
13.07.2017 16:10 22,7 C 25,6 C 36 % 1017,8 hPa 0,0 l/m 8,5 km/h (2 Bft) W 277 2 min 0,000 mm 3,5 UV-I 704 W/m 6,9 C 22,0 C 12,9 km/h (3 Bft) 95,12 %
13.07.2017 16:12 22,7 C 25,6 C 36 % 1017,7 hPa 0,0 l/m 8,0 km/h (2 Bft) NW 323 2 min 0,000 mm 3,4 UV-I 698 W/m 6,9 C 22,2 C 16,1 km/h (3 Bft) 98,36 %
13.07.2017 16:14 22,7 C 25,6 C 36 % 1017,7 hPa 0,0 l/m 9,5 km/h (2 Bft) W 272 2 min 0,000 mm 3,4 UV-I 695 W/m 6,9 C 21,8 C 19,3 km/h (3 Bft) 93,75 %
13.07.2017 16:16 22,6 C 25,6 C 37 % 1017,8 hPa 0,0 l/m 15,2 km/h (3 Bft) SW 233 2 min 0,000 mm 3,3 UV-I 688 W/m 7,2 C 20,4 C 20,9 km/h (4 Bft) 97,87 %
13.07.2017 16:18 22,7 C 25,6 C 38 % 1017,8 hPa 0,0 l/m 10,9 km/h (2 Bft) W 262 2 min 0,000 mm 3,3 UV-I 683 W/m 7,6 C 21,4 C 19,3 km/h (3 Bft) 94,74 %
13.07.2017 16:20 22,7 C 25,6 C 38 % 1017,8 hPa 0,0 l/m 11,9 km/h (2 Bft) W-SW 248 2 min 0,000 mm 3,2 UV-I 678 W/m 7,6 C 21,2 C 24,1 km/h (4 Bft) 94,34 %
13.07.2017 16:22 22,6 C 25,6 C 38 % 1017,7 hPa 0,0 l/m 9,5 km/h (2 Bft) W-NW 293 2 min 0,000 mm 3,2 UV-I 671 W/m 7,6 C 21,6 C 16,1 km/h (3 Bft) 98,00 %
13.07.2017 16:24 22,6 C 25,6 C 39 % 1017,8 hPa 0,0 l/m 9,7 km/h (2 Bft) W 269 2 min 0,000 mm 3,1 UV-I 664 W/m 7,9 C 21,6 C 17,7 km/h (3 Bft) 94,74 %
13.07.2017 16:26 22,7 C 25,6 C 37 % 1017,8 hPa 0,0 l/m 12,9 km/h (3 Bft) W-SW 245 2 min 0,000 mm 3,1 UV-I 657 W/m 7,3 C 20,9 C 20,9 km/h (4 Bft) 96,00 %
13.07.2017 16:28 22,7 C 25,6 C 37 % 1017,7 hPa 0,0 l/m 8,9 km/h (2 Bft) N-NO 32 2 min 0,000 mm 3,0 UV-I 655 W/m 7,3 C 21,9 C 16,1 km/h (3 Bft) 96,00 %
13.07.2017 16:30 22,7 C 25,6 C 39 % 1017,6 hPa 0,0 l/m 6,8 km/h (2 Bft) S 174 2 min 0,000 mm 3,0 UV-I 652 W/m 8,0 C 22,6 C 16,1 km/h (3 Bft) 95,12 %
13.07.2017 16:32 22,9 C 25,6 C 39 % 1017,6 hPa 0,0 l/m 7,5 km/h (2 Bft) W-SW 252 2 min 0,000 mm 3,0 UV-I 650 W/m 8,2 C 22,5 C 14,5 km/h (3 Bft) 98,11 %
13.07.2017 16:34 23,1 C 25,6 C 38 % 1017,7 hPa 0,0 l/m 10,9 km/h (2 Bft) SW 229 2 min 0,000 mm 2,9 UV-I 645 W/m 8,0 C 21,8 C 16,1 km/h (3 Bft) 97,73 %
13.07.2017 16:36 22,9 C 25,6 C 35 % 1017,6 hPa 0,0 l/m 11,9 km/h (2 Bft) N 350 2 min 0,000 mm 2,9 UV-I 640 W/m 6,6 C 21,4 C 22,5 km/h (4 Bft) 100,00 %
13.07.2017 16:38 22,8 C 25,6 C 37 % 1017,7 hPa 0,0 l/m 7,4 km/h (2 Bft) S-SW 194 2 min 0,000 mm 2,8 UV-I 635 W/m 7,3 C 22,5 C 20,9 km/h (4 Bft) 98,00 %
13.07.2017 16:40 22,9 C 25,6 C 36 % 1017,7 hPa 0,0 l/m 12,4 km/h (3 Bft) S-SW 194 2 min 0,000 mm 2,8 UV-I 626 W/m 7,0 C 21,3 C 17,7 km/h (3 Bft) 100,00 %
13.07.2017 16:42 22,9 C 25,6 C 37 % 1017,7 hPa 0,0 l/m 8,2 km/h (2 Bft) W 278 2 min 0,000 mm 2,7 UV-I 623 W/m 7,4 C 22,3 C 12,9 km/h (3 Bft) 96,23 %
13.07.2017 16:44 23,1 C 25,6 C 37 % 1017,6 hPa 0,0 l/m 7,1 km/h (2 Bft) SW 234 2 min 0,000 mm 2,7 UV-I 617 W/m 7,6 C 22,9 C 17,7 km/h (3 Bft) 100,00 %
13.07.2017 16:46 23,1 C 25,6 C 37 % 1017,7 hPa 0,0 l/m 8,0 km/h (2 Bft) W-NW 288 2 min 0,000 mm 2,6 UV-I 612 W/m 7,6 C 22,6 C 14,5 km/h (3 Bft) 98,21 %
13.07.2017 16:48 22,9 C 25,6 C 37 % 1017,6 hPa 0,0 l/m 4,9 km/h (1 Bft) W-NW 284 2 min 0,000 mm 2,6 UV-I 606 W/m 7,4 C 22,9 C 11,3 km/h (2 Bft) 100,00 %
13.07.2017 16:50 22,8 C 25,6 C 36 % 1017,6 hPa 0,0 l/m 3,0 km/h (1 Bft) W 264 2 min 0,000 mm 2,5 UV-I 598 W/m 6,9 C 22,8 C 6,4 km/h (2 Bft) 96,15 %
13.07.2017 16:53 22,7 C 25,6 C 38 % 1017,5 hPa 0,0 l/m 8,1 km/h (2 Bft) W 267 3 min 0,000 mm 2,5 UV-I 591 W/m 7,6 C 22,2 C 16,1 km/h (3 Bft) 98,59 %
13.07.2017 16:54 22,6 C 25,6 C 38 % 1017,5 hPa 0,0 l/m 9,3 km/h (2 Bft) W 269 1 min 0,000 mm 2,4 UV-I 584 W/m 7,6 C 21,7 C 16,1 km/h (3 Bft) 100,00 %
13.07.2017 16:55 22,6 C 25,6 C 38 % 1017,5 hPa 0,0 l/m 8,0 km/h (2 Bft) W 270 1 min 0,000 mm 2,5 UV-I 587 W/m 7,6 C 22,1 C 17,7 km/h (3 Bft) 95,61 %
13.07.2017 16:58 22,7 C 25,6 C 37 % 1017,4 hPa 0,0 l/m 4,2 km/h (1 Bft) S-SW 205 3 min 0,000 mm 2,3 UV-I 576 W/m 7,3 C 22,7 C 8,0 km/h (2 Bft) 100,00 %
13.07.2017 17:00 22,9 C 25,6 C 38 % 1017,5 hPa 0,0 l/m 4,8 km/h (1 Bft) W-SW 237 2 min 0,482 mm 2,3 UV-I 568 W/m 7,8 C 22,9 C 17,7 km/h (3 Bft) 96,00 %
13.07.2017 17:02 23,1 C 25,6 C 36 % 1017,4 hPa 0,0 l/m 9,5 km/h (2 Bft) W 271 2 min 0,000 mm 2,3 UV-I 565 W/m 7,2 C 22,2 C 16,1 km/h (3 Bft) 100,00 %
13.07.2017 17:04 23,0 C 25,6 C 38 % 1017,4 hPa 0,0 l/m 4,9 km/h (1 Bft) N-NO 19 2 min 0,000 mm 2,3 UV-I 562 W/m 7,9 C 23,0 C 12,9 km/h (3 Bft) 96,00 %
13.07.2017 17:06 23,1 C 25,6 C 38 % 1017,3 hPa 0,0 l/m 3,2 km/h (1 Bft) SW 229 2 min 0,000 mm 2,2 UV-I 554 W/m 8,0 C 23,1 C 6,4 km/h (2 Bft) 100,00 %
13.07.2017 17:08 23,1 C 25,6 C 37 % 1017,2 hPa 0,0 l/m 9,4 km/h (2 Bft) W-NW 302 2 min 0,000 mm 2,2 UV-I 550 W/m 7,6 C 22,2 C 29,0 km/h (5 Bft) 98,00 %
13.07.2017 17:10 23,1 C 25,6 C 36 % 1017,3 hPa 0,0 l/m 8,8 km/h (2 Bft) W-SW 257 2 min 0,000 mm 2,1 UV-I 545 W/m 7,2 C 22,4 C 17,7 km/h (3 Bft) 98,00 %
13.07.2017 17:12 23,0 C 25,6 C 36 % 1017,2 hPa 0,0 l/m 8,0 km/h (2 Bft) W-SW 242 2 min 0,000 mm 2,1 UV-I 539 W/m 7,1 C 22,5 C 12,9 km/h (3 Bft) 100,00 %
13.07.2017 17:14 23,1 C 25,6 C 37 % 1017,3 hPa 0,0 l/m 7,6 km/h (2 Bft) SW 221 2 min 0,000 mm 2,1 UV-I 531 W/m 7,6 C 22,7 C 20,9 km/h (4 Bft) 96,00 %
13.07.2017 17:16 23,2 C 25,6 C 38 % 1017,3 hPa 0,0 l/m 3,8 km/h (1 Bft) W 266 2 min 0,000 mm 2,0 UV-I 522 W/m 8,1 C 23,2 C 12,9 km/h (3 Bft) 100,00 %
13.07.2017 17:18 23,1 C 25,6 C 36 % 1017,3 hPa 0,0 l/m 6,6 km/h (2 Bft) N-NO 26 2 min 0,000 mm 1,9 UV-I 518 W/m 7,2 C 23,0 C 12,9 km/h (3 Bft) 100,00 %
13.07.2017 17:20 23,1 C 25,6 C 37 % 1017,3 hPa 0,0 l/m 2,4 km/h (1 Bft) O-SO 105 2 min 0,000 mm 1,9 UV-I 515 W/m 7,6 C 23,1 C 6,4 km/h (2 Bft) 100,00 %
13.07.2017 17:22 23,1 C 25,6 C 38 % 1017,3 hPa 0,0 l/m 1,9 km/h (1 Bft) W 269 2 min 0,000 mm 1,9 UV-I 508 W/m 8,0 C 23,1 C 6,4 km/h (2 Bft) 100,00 %
13.07.2017 17:24 23,1 C 25,6 C 37 % 1017,3 hPa 0,0 l/m 7,1 km/h (2 Bft) NW 321 2 min 0,000 mm 1,8 UV-I 499 W/m 7,6 C 22,9 C 17,7 km/h (3 Bft) 100,00 %
13.07.2017 17:26 23,1 C 25,6 C 39 % 1017,2 hPa 0,0 l/m 6,3 km/h (2 Bft) W-NW 290 2 min 0,000 mm 1,8 UV-I 494 W/m 8,4 C 23,1 C 14,5 km/h (3 Bft) 94,74 %
13.07.2017 17:28 22,9 C 25,6 C 37 % 1017,2 hPa 0,0 l/m 6,6 km/h (2 Bft) W-NW 292 2 min 0,000 mm 1,7 UV-I 487 W/m 7,4 C 22,8 C 12,9 km/h (3 Bft) 95,74 %
13.07.2017 17:30 22,8 C 25,6 C 37 % 1017,2 hPa 0,0 l/m 8,0 km/h (2 Bft) NW 308 2 min 0,000 mm 1,7 UV-I 482 W/m 7,3 C 22,3 C 17,7 km/h (3 Bft) 96,23 %
13.07.2017 17:32 22,7 C 25,6 C 36 % 1017,2 hPa 0,0 l/m 5,7 km/h (1 Bft) NW 318 2 min 0,000 mm 1,7 UV-I 478 W/m 6,9 C 22,7 C 12,9 km/h (3 Bft) 96,00 %
13.07.2017 17:34 22,6 C 25,6 C 37 % 1017,1 hPa 0,0 l/m 4,4 km/h (1 Bft) NW 313 2 min 0,000 mm 1,6 UV-I 477 W/m 7,2 C 22,6 C 8,0 km/h (2 Bft) 95,65 %
13.07.2017 17:36 22,6 C 25,6 C 38 % 1017,1 hPa 0,0 l/m 5,1 km/h (1 Bft) N-NW 348 2 min 0,000 mm 1,6 UV-I 474 W/m 7,6 C 22,6 C 12,9 km/h (3 Bft) 92,65 %
13.07.2017 17:38 22,6 C 25,6 C 38 % 1017,1 hPa 0,0 l/m 3,4 km/h (1 Bft) NW 310 2 min 0,000 mm 1,6 UV-I 469 W/m 7,6 C 22,6 C 6,4 km/h (2 Bft) 90,91 %
13.07.2017 17:40 22,7 C 25,6 C 36 % 1017,1 hPa 0,0 l/m 7,6 km/h (2 Bft) N-NW 339 2 min 0,000 mm 1,6 UV-I 465 W/m 6,9 C 22,3 C 12,9 km/h (3 Bft) 97,73 %
13.07.2017 17:42 22,6 C 25,6 C 36 % 1017,1 hPa 0,0 l/m 5,0 km/h (1 Bft) W-SW 257 2 min 0,000 mm 1,5 UV-I 460 W/m 6,8 C 22,6 C 9,7 km/h (2 Bft) 95,74 %
13.07.2017 17:44 22,7 C 25,6 C 37 % 1017,1 hPa 0,0 l/m 12,1 km/h (2 Bft) W-SW 254 2 min 0,000 mm 1,5 UV-I 455 W/m 7,3 C 21,1 C 20,9 km/h (4 Bft) 94,00 %
13.07.2017 17:46 22,8 C 25,6 C 37 % 1017,0 hPa 0,0 l/m 5,3 km/h (1 Bft) W-NW 284 2 min 0,000 mm 1,5 UV-I 448 W/m 7,3 C 22,8 C 11,3 km/h (2 Bft) 93,62 %
13.07.2017 17:48 22,9 C 25,6 C 37 % 1017,0 hPa 0,0 l/m 4,1 km/h (1 Bft) W-NW 298 2 min 0,000 mm 1,4 UV-I 443 W/m 7,4 C 22,9 C 8,0 km/h (2 Bft) 91,49 %
13.07.2017 17:50 22,9 C 25,6 C 36 % 1017,0 hPa 0,0 l/m 5,1 km/h (1 Bft) W 265 2 min 0,000 mm 1,4 UV-I 438 W/m 7,0 C 22,9 C 11,3 km/h (2 Bft) 98,00 %
13.07.2017 17:52 22,9 C 25,6 C 37 % 1017,0 hPa 0,0 l/m 6,1 km/h (2 Bft) W-NW 303 2 min 0,000 mm 1,4 UV-I 433 W/m 7,4 C 22,9 C 12,9 km/h (3 Bft) 95,12 %
13.07.2017 17:54 22,8 C 25,6 C 36 % 1016,9 hPa 0,0 l/m 4,1 km/h (1 Bft) NW 309 2 min 0,000 mm 1,3 UV-I 429 W/m 6,9 C 22,8 C 9,7 km/h (2 Bft) 92,45 %
13.07.2017 17:56 22,8 C 25,6 C 36 % 1017,0 hPa 0,0 l/m 6,3 km/h (2 Bft) S-SO 163 2 min 0,000 mm 1,3 UV-I 423 W/m 6,9 C 22,8 C 12,9 km/h (3 Bft) 87,18 %
13.07.2017 17:58 22,7 C 25,6 C 38 % 1017,0 hPa 0,0 l/m 9,6 km/h (2 Bft) W 281 2 min 0,000 mm 1,3 UV-I 416 W/m 7,6 C 21,7 C 16,1 km/h (3 Bft) 92,73 %
13.07.2017 18:00 22,6 C 25,6 C 37 % 1016,9 hPa 0,0 l/m 6,5 km/h (2 Bft) W 269 2 min 0,000 mm 1,2 UV-I 410 W/m 7,2 C 22,6 C 14,5 km/h (3 Bft) 92,31 %
13.07.2017 18:02 22,6 C 25,6 C 37 % 1016,9 hPa 0,0 l/m 1,9 km/h (1 Bft) N-NW 345 2 min 0,356 mm 1,2 UV-I 401 W/m 7,2 C 22,6 C 4,8 km/h (1 Bft) 95,45 %
13.07.2017 18:04 22,6 C 25,6 C 37 % 1016,9 hPa 0,0 l/m 6,6 km/h (2 Bft) W 279 2 min 0,000 mm 1,2 UV-I 393 W/m 7,2 C 22,5 C 14,5 km/h (3 Bft) 91,07 %
13.07.2017 18:06 22,7 C 25,6 C 37 % 1016,9 hPa 0,0 l/m 4,8 km/h (1 Bft) N-NW 335 2 min 0,000 mm 1,1 UV-I 386 W/m 7,3 C 22,7 C 9,7 km/h (2 Bft) 95,12 %
13.07.2017 18:08 22,7 C 25,6 C 37 % 1016,9 hPa 0,0 l/m 3,4 km/h (1 Bft) N-NW 348 2 min 0,000 mm 1,1 UV-I 379 W/m 7,3 C 22,7 C 6,4 km/h (2 Bft) 92,00 %
13.07.2017 18:10 22,8 C 25,6 C 38 % 1016,9 hPa 0,0 l/m 3,1 km/h (1 Bft) W 269 2 min 0,000 mm 1,1 UV-I 372 W/m 7,7 C 22,8 C 8,0 km/h (2 Bft) 90,00 %
13.07.2017 18:12 22,8 C 25,6 C 36 % 1016,9 hPa 0,0 l/m 6,4 km/h (2 Bft) W 260 2 min 0,000 mm 1,1 UV-I 367 W/m 6,9 C 22,8 C 12,9 km/h (3 Bft) 94,74 %
13.07.2017 18:14 22,8 C 25,6 C 36 % 1016,8 hPa 0,0 l/m 4,1 km/h (1 Bft) N-NO 26 2 min 0,000 mm 1,0 UV-I 365 W/m 6,9 C 22,8 C 11,3 km/h (2 Bft) 96,00 %
13.07.2017 18:16 22,7 C 25,6 C 36 % 1016,8 hPa 0,0 l/m 4,7 km/h (1 Bft) N-NW 344 2 min 0,000 mm 1,0 UV-I 361 W/m 6,9 C 22,7 C 9,7 km/h (2 Bft) 92,00 %
13.07.2017 18:18 22,7 C 25,6 C 36 % 1016,8 hPa 0,0 l/m 3,5 km/h (1 Bft) W-NW 286 2 min 0,000 mm 1,0 UV-I 355 W/m 6,9 C 22,7 C 11,3 km/h (2 Bft) 100,00 %
13.07.2017 18:20 22,6 C 25,6 C 36 % 1016,8 hPa 0,0 l/m 3,7 km/h (1 Bft) N-NW 337 2 min 0,000 mm 1,0 UV-I 348 W/m 6,8 C 22,6 C 11,3 km/h (2 Bft) 89,23 %
13.07.2017 18:22 22,6 C 25,6 C 38 % 1016,8 hPa 0,0 l/m 1,7 km/h (1 Bft) W 273 2 min 0,000 mm 0,9 UV-I 341 W/m 7,6 C 22,6 C 6,4 km/h (2 Bft) 91,49 %
13.07.2017 18:24 22,6 C 25,6 C 37 % 1016,8 hPa 0,0 l/m 5,8 km/h (2 Bft) W-SW 239 2 min 0,000 mm 0,9 UV-I 337 W/m 7,2 C 22,6 C 12,9 km/h (3 Bft) 96,00 %
13.07.2017 18:26 22,7 C 25,6 C 37 % 1016,8 hPa 0,0 l/m 7,9 km/h (2 Bft) SW 236 2 min 0,000 mm 0,9 UV-I 333 W/m 7,3 C 22,2 C 12,9 km/h (3 Bft) 96,00 %
13.07.2017 18:28 22,7 C 25,6 C 37 % 1016,8 hPa 0,0 l/m 5,8 km/h (2 Bft) SW 228 2 min 0,000 mm 0,9 UV-I 327 W/m 7,3 C 22,7 C 8,0 km/h (2 Bft) 91,49 %
13.07.2017 18:30 22,7 C 25,6 C 37 % 1016,8 hPa 0,0 l/m 5,0 km/h (1 Bft) W-NW 298 2 min 0,000 mm 0,8 UV-I 320 W/m 7,3 C 22,7 C 11,3 km/h (2 Bft) 90,00 %
13.07.2017 18:32 22,7 C 25,6 C 37 % 1016,8 hPa 0,0 l/m 3,7 km/h (1 Bft) W-NW 295 2 min 0,000 mm 0,8 UV-I 313 W/m 7,3 C 22,7 C 14,5 km/h (3 Bft) 95,12 %
13.07.2017 18:34 22,7 C 25,6 C 37 % 1016,8 hPa 0,0 l/m 6,4 km/h (2 Bft) W-NW 284 2 min 0,000 mm 0,8 UV-I 308 W/m 7,3 C 22,7 C 19,3 km/h (3 Bft) 97,62 %
13.07.2017 18:36 22,6 C 25,6 C 37 % 1016,8 hPa 0,0 l/m 4,0 km/h (1 Bft) W 268 2 min 0,000 mm 0,8 UV-I 302 W/m 7,2 C 22,6 C 6,4 km/h (2 Bft) 96,36 %
13.07.2017 18:38 22,5 C 25,6 C 37 % 1016,8 hPa 0,0 l/m 5,5 km/h (1 Bft) W-NW 285 2 min 0,000 mm 0,7 UV-I 293 W/m 7,1 C 22,5 C 11,3 km/h (2 Bft) 100,00 %
13.07.2017 18:40 22,6 C 25,6 C 38 % 1016,8 hPa 0,0 l/m 4,1 km/h (1 Bft) SW 231 2 min 0,000 mm 0,7 UV-I 288 W/m 7,6 C 22,6 C 9,7 km/h (2 Bft) 100,00 %
13.07.2017 18:42 22,6 C 25,6 C 36 % 1016,8 hPa 0,0 l/m 8,3 km/h (2 Bft) W 279 2 min 0,000 mm 0,7 UV-I 282 W/m 6,8 C 22,0 C 19,3 km/h (3 Bft) 100,00 %
13.07.2017 18:44 22,7 C 25,6 C 37 % 1016,8 hPa 0,0 l/m 6,9 km/h (2 Bft) W-SW 254 2 min 0,000 mm 0,7 UV-I 277 W/m 7,3 C 22,5 C 11,3 km/h (2 Bft) 100,00 %
13.07.2017 18:46 22,6 C 25,6 C 36 % 1016,7 hPa 0,0 l/m 4,9 km/h (1 Bft) W 265 2 min 0,000 mm 0,6 UV-I 271 W/m 6,8 C 22,6 C 9,7 km/h (2 Bft) 98,00 %
13.07.2017 18:48 22,5 C 25,6 C 37 % 1016,7 hPa 0,0 l/m 3,3 km/h (1 Bft) N 349 2 min 0,000 mm 0,6 UV-I 265 W/m 7,1 C 22,5 C 6,4 km/h (2 Bft) 97,56 %
13.07.2017 18:50 22,5 C 25,6 C 37 % 1016,7 hPa 0,0 l/m 1,9 km/h (1 Bft) NW 325 2 min 0,000 mm 0,6 UV-I 258 W/m 7,1 C 22,5 C 6,4 km/h (2 Bft) 98,11 %
13.07.2017 18:52 22,5 C 25,6 C 37 % 1016,7 hPa 0,0 l/m 4,9 km/h (1 Bft) W 279 2 min 0,000 mm 0,6 UV-I 253 W/m 7,1 C 22,5 C 9,7 km/h (2 Bft) 96,00 %
13.07.2017 18:54 22,4 C 25,6 C 36 % 1016,6 hPa 0,0 l/m 6,3 km/h (2 Bft) SW 214 2 min 0,000 mm 0,5 UV-I 247 W/m 6,6 C 22,4 C 11,3 km/h (2 Bft) 97,37 %
13.07.2017 18:56 22,4 C 25,6 C 37 % 1016,7 hPa 0,0 l/m 3,8 km/h (1 Bft) NW 321 2 min 0,000 mm 0,5 UV-I 242 W/m 7,0 C 22,4 C 9,7 km/h (2 Bft) 100,00 %
13.07.2017 18:58 22,3 C 25,6 C 37 % 1016,7 hPa 0,0 l/m 4,2 km/h (1 Bft) W-NW 295 2 min 0,000 mm 0,5 UV-I 236 W/m 6,9 C 22,3 C 9,7 km/h (2 Bft) 98,00 %
13.07.2017 19:00 22,3 C 25,6 C 36 % 1016,7 hPa 0,0 l/m 3,7 km/h (1 Bft) W-SW 256 2 min 0,254 mm 0,5 UV-I 230 W/m 6,5 C 22,3 C 9,7 km/h (2 Bft) 98,31 %
13.07.2017 19:02 22,2 C 25,6 C 38 % 1016,6 hPa 0,0 l/m 4,2 km/h (1 Bft) W-NW 300 2 min 0,000 mm 0,5 UV-I 226 W/m 7,2 C 22,2 C 11,3 km/h (2 Bft) 97,14 %
13.07.2017 19:04 22,2 C 25,6 C 38 % 1016,7 hPa 0,0 l/m 3,5 km/h (1 Bft) W-NW 300 2 min 0,000 mm 0,4 UV-I 219 W/m 7,2 C 22,2 C 11,3 km/h (2 Bft) 100,00 %
13.07.2017 19:06 22,2 C 25,6 C 38 % 1016,6 hPa 0,0 l/m 5,0 km/h (1 Bft) N-NW 333 2 min 0,000 mm 0,0 UV-I 213 W/m 7,2 C 22,2 C 12,9 km/h (3 Bft) 100,00 %
13.07.2017 19:09 22,1 C 25,6 C 37 % 1016,7 hPa 0,0 l/m 2,9 km/h (1 Bft) W-NW 285 3 min 0,000 mm 0,0 UV-I 207 W/m 6,7 C 22,1 C 11,3 km/h (2 Bft) 96,59 %
13.07.2017 19:10 22,1 C 25,6 C 36 % 1016,7 hPa 0,0 l/m 3,7 km/h (1 Bft) N-NW 329 1 min 0,000 mm 0,0 UV-I 200 W/m 6,3 C 22,1 C 6,4 km/h (2 Bft) 100,00 %
13.07.2017 19:12 22,0 C 25,6 C 38 % 1016,7 hPa 0,0 l/m 4,4 km/h (1 Bft) W-NW 286 2 min 0,000 mm 0,0 UV-I 198 W/m 7,0 C 22,0 C 9,7 km/h (2 Bft) 98,00 %
13.07.2017 19:14 22,0 C 25,6 C 37 % 1016,6 hPa 0,0 l/m 3,6 km/h (1 Bft) N-NO 15 2 min 0,000 mm 0,0 UV-I 193 W/m 6,6 C 22,0 C 9,7 km/h (2 Bft) 100,00 %
13.07.2017 19:16 22,0 C 25,6 C 37 % 1016,6 hPa 0,0 l/m 4,3 km/h (1 Bft) N 355 2 min 0,000 mm 0,0 UV-I 188 W/m 6,6 C 22,0 C 9,7 km/h (2 Bft) 100,00 %
13.07.2017 19:19 22,1 C 25,6 C 38 % 1016,6 hPa 0,0 l/m 2,1 km/h (1 Bft) NW 311 3 min 0,000 mm 0,0 UV-I 182 W/m 7,1 C 22,1 C 9,7 km/h (2 Bft) 98,53 %
13.07.2017 19:20 22,1 C 25,6 C 38 % 1016,7 hPa 0,0 l/m 2,2 km/h (1 Bft) W-SW 250 1 min 0,000 mm 0,0 UV-I 177 W/m 7,1 C 22,1 C 3,2 km/h (1 Bft) 100,00 %
13.07.2017 19:22 22,1 C 25,6 C 37 % 1016,6 hPa 0,0 l/m 1,0 km/h (0 Bft) NW 321 2 min 0,000 mm 0,0 UV-I 173 W/m 6,7 C 22,1 C 3,2 km/h (1 Bft) 94,00 %
13.07.2017 19:24 22,1 C 25,6 C 38 % 1016,6 hPa 0,0 l/m 2,4 km/h (1 Bft) N-NW 327 2 min 0,000 mm 0,0 UV-I 167 W/m 7,1 C 22,1 C 11,3 km/h (2 Bft) 95,74 %
13.07.2017 19:26 21,9 C 25,6 C 37 % 1016,6 hPa 0,0 l/m 5,4 km/h (1 Bft) N-NW 338 2 min 0,000 mm 0,0 UV-I 161 W/m 6,5 C 21,9 C 8,0 km/h (2 Bft) 97,87 %
13.07.2017 19:28 21,9 C 25,6 C 37 % 1016,6 hPa 0,0 l/m 5,7 km/h (1 Bft) NW 313 2 min 0,000 mm 0,0 UV-I 156 W/m 6,5 C 21,9 C 14,5 km/h (3 Bft) 100,00 %
13.07.2017 19:30 21,7 C 25,6 C 36 % 1016,6 hPa 0,0 l/m 4,5 km/h (1 Bft) N-NW 347 2 min 0,000 mm 0,0 UV-I 152 W/m 6,0 C 21,7 C 9,7 km/h (2 Bft) 98,00 %
13.07.2017 19:32 21,7 C 25,6 C 38 % 1016,6 hPa 0,0 l/m 1,6 km/h (1 Bft) N 9 2 min 0,000 mm 0,0 UV-I 146 W/m 6,8 C 21,7 C 4,8 km/h (1 Bft) 100,00 %
13.07.2017 19:34 21,7 C 25,6 C 37 % 1016,6 hPa 0,0 l/m 4,1 km/h (1 Bft) W-NW 295 2 min 0,000 mm 0,0 UV-I 142 W/m 6,4 C 21,7 C 9,7 km/h (2 Bft) 97,37 %
13.07.2017 19:36 21,6 C 25,6 C 37 % 1016,6 hPa 0,0 l/m 2,7 km/h (1 Bft) N-NW 337 2 min 0,000 mm 0,0 UV-I 137 W/m 6,3 C 21,6 C 6,4 km/h (2 Bft) 98,21 %
13.07.2017 19:38 21,6 C 25,6 C 38 % 1016,6 hPa 0,0 l/m 3,8 km/h (1 Bft) NW 309 2 min 0,000 mm 0,0 UV-I 132 W/m 6,7 C 21,6 C 8,0 km/h (2 Bft) 100,00 %
13.07.2017 19:40 21,5 C 25,6 C 38 % 1016,6 hPa 0,0 l/m 2,6 km/h (1 Bft) N-NO 23 2 min 0,000 mm 0,0 UV-I 128 W/m 6,6 C 21,5 C 4,8 km/h (1 Bft) 96,00 %
13.07.2017 19:42 21,5 C 25,6 C 38 % 1016,6 hPa 0,0 l/m 2,7 km/h (1 Bft) N 355 2 min 0,000 mm 0,0 UV-I 124 W/m 6,6 C 21,5 C 6,4 km/h (2 Bft) 100,00 %
13.07.2017 19:44 21,4 C 25,6 C 38 % 1016,6 hPa 0,0 l/m 2,2 km/h (1 Bft) NW 325 2 min 0,000 mm 0,0 UV-I 120 W/m 6,5 C 21,4 C 8,0 km/h (2 Bft) 98,11 %
13.07.2017 19:46 21,4 C 25,6 C 38 % 1016,6 hPa 0,0 l/m 3,2 km/h (1 Bft) NW 321 2 min 0,000 mm 0,0 UV-I 128 W/m 6,5 C 21,4 C 6,4 km/h (2 Bft) 97,87 %
13.07.2017 19:48 21,3 C 25,6 C 38 % 1016,6 hPa 0,0 l/m 3,7 km/h (1 Bft) W-NW 294 2 min 0,000 mm 0,0 UV-I 113 W/m 6,4 C 21,3 C 8,0 km/h (2 Bft) 95,12 %
13.07.2017 19:50 21,3 C 25,6 C 39 % 1016,7 hPa 0,0 l/m 1,3 km/h (1 Bft) NW 315 2 min 0,000 mm 0,0 UV-I 123 W/m 6,8 C 21,3 C 3,2 km/h (1 Bft) 96,23 %
13.07.2017 19:52 21,3 C 25,6 C 38 % 1016,6 hPa 0,0 l/m 1,5 km/h (1 Bft) NW 315 2 min 0,000 mm 0,0 UV-I 106 W/m 6,4 C 21,3 C 3,2 km/h (1 Bft) 93,33 %
13.07.2017 19:54 21,3 C 25,6 C 38 % 1016,7 hPa 0,0 l/m 2,5 km/h (1 Bft) N-NW 333 2 min 0,000 mm 0,0 UV-I 100 W/m 6,4 C 21,3 C 6,4 km/h (2 Bft) 96,72 %
13.07.2017 19:56 21,2 C 25,6 C 38 % 1016,6 hPa 0,0 l/m 3,5 km/h (1 Bft) N-NO 13 2 min 0,000 mm 0,0 UV-I 95 W/m 6,3 C 21,2 C 11,3 km/h (2 Bft) 96,00 %
13.07.2017 19:58 21,1 C 25,6 C 37 % 1016,6 hPa 0,0 l/m 3,9 km/h (1 Bft) N-NW 344 0 min 0,000 mm 0,0 UV-I 77 W/m 5,8 C 21,1 C 8,0 km/h (2 Bft) 94,87 %
13.07.2017 20:00 20,9 C 25,6 C 37 % 1016,6 hPa 0,0 l/m 3,6 km/h (1 Bft) N-NW 338 0 min 0,127 mm 0,0 UV-I 71 W/m 5,7 C 20,9 C 6,4 km/h (2 Bft) 95,74 %
13.07.2017 20:02 20,8 C 25,6 C 38 % 1016,6 hPa 0,0 l/m 3,0 km/h (1 Bft) N-NW 329 2 min 0,000 mm 0,0 UV-I 85 W/m 6,0 C 20,8 C 6,4 km/h (2 Bft) 96,43 %
13.07.2017 20:04 20,8 C 25,6 C 38 % 1016,6 hPa 0,0 l/m 1,9 km/h (1 Bft) N-NW 337 2 min 0,000 mm 0,0 UV-I 83 W/m 6,0 C 20,8 C 4,8 km/h (1 Bft) 91,43 %
13.07.2017 20:06 20,7 C 25,6 C 38 % 1016,6 hPa 0,0 l/m 4,3 km/h (1 Bft) NW 326 2 min 0,000 mm 0,0 UV-I 77 W/m 5,9 C 20,7 C 11,3 km/h (2 Bft) 92,86 %
13.07.2017 20:08 20,7 C 25,6 C 39 % 1016,6 hPa 0,0 l/m 2,9 km/h (1 Bft) N-NW 337 2 min 0,000 mm 0,0 UV-I 73 W/m 6,2 C 20,7 C 4,8 km/h (1 Bft) 97,37 %
13.07.2017 20:10 20,6 C 25,6 C 39 % 1016,6 hPa 0,0 l/m 1,2 km/h (1 Bft) N 5 2 min 0,000 mm 0,0 UV-I 68 W/m 6,2 C 20,6 C 3,2 km/h (1 Bft) 94,34 %
13.07.2017 20:12 20,5 C 25,6 C 39 % 1016,5 hPa 0,0 l/m 3,3 km/h (1 Bft) NW 323 2 min 0,000 mm 0,0 UV-I 64 W/m 6,1 C 20,5 C 6,4 km/h (2 Bft) 96,00 %
13.07.2017 20:14 20,4 C 25,6 C 38 % 1016,5 hPa 0,0 l/m 3,9 km/h (1 Bft) W-NW 297 2 min 0,000 mm 0,0 UV-I 61 W/m 5,6 C 20,4 C 8,0 km/h (2 Bft) 92,00 %
13.07.2017 20:16 20,4 C 25,6 C 39 % 1016,5 hPa 0,0 l/m 2,4 km/h (1 Bft) N-NW 347 2 min 0,000 mm 0,0 UV-I 56 W/m 6,0 C 20,4 C 4,8 km/h (1 Bft) 97,56 %
13.07.2017 20:18 20,3 C 25,6 C 40 % 1016,5 hPa 0,0 l/m 1,6 km/h (1 Bft) NW 319 0 min 0,000 mm 0,0 UV-I 49 W/m 6,3 C 20,3 C 4,8 km/h (1 Bft) 94,00 %
13.07.2017 20:20 20,2 C 25,6 C 40 % 1016,5 hPa 0,0 l/m 2,9 km/h (1 Bft) N-NW 329 0 min 0,000 mm 0,0 UV-I 45 W/m 6,2 C 20,2 C 6,4 km/h (2 Bft) 95,12 %
13.07.2017 20:22 20,1 C 25,6 C 40 % 1016,5 hPa 0,0 l/m 3,3 km/h (1 Bft) N-NW 329 0 min 0,000 mm 0,0 UV-I 38 W/m 6,1 C 20,1 C 8,0 km/h (2 Bft) 95,74 %
13.07.2017 20:24 19,9 C 25,6 C 40 % 1016,5 hPa 0,0 l/m 3,6 km/h (1 Bft) NW 312 0 min 0,000 mm 0,0 UV-I 38 W/m 5,9 C 19,9 C 9,7 km/h (2 Bft) 97,87 %
13.07.2017 20:26 19,8 C 25,6 C 41 % 1016,4 hPa 0,0 l/m 3,0 km/h (1 Bft) NW 326 0 min 0,000 mm 0,0 UV-I 36 W/m 6,2 C 19,8 C 8,0 km/h (2 Bft) 96,00 %
13.07.2017 20:28 19,7 C 25,6 C 41 % 1016,5 hPa 0,0 l/m 4,9 km/h (1 Bft) N-NW 332 0 min 0,000 mm 0,0 UV-I 36 W/m 6,1 C 19,7 C 8,0 km/h (2 Bft) 92,31 %
13.07.2017 20:30 19,6 C 25,6 C 41 % 1016,5 hPa 0,0 l/m 2,7 km/h (1 Bft) NW 315 2 min 0,000 mm 0,0 UV-I 35 W/m 6,0 C 19,6 C 6,4 km/h (2 Bft) 100,00 %
13.07.2017 20:32 19,4 C 25,6 C 41 % 1016,4 hPa 0,0 l/m 2,0 km/h (1 Bft) NW 315 2 min 0,000 mm 0,0 UV-I 34 W/m 5,8 C 19,4 C 3,2 km/h (1 Bft) 98,00 %
13.07.2017 20:34 19,4 C 25,6 C 41 % 1016,4 hPa 0,0 l/m 2,2 km/h (1 Bft) NW 317 2 min 0,000 mm 0,0 UV-I 32 W/m 5,8 C 19,4 C 4,8 km/h (1 Bft) 100,00 %
13.07.2017 20:36 19,3 C 25,6 C 41 % 1016,5 hPa 0,0 l/m 0,0 km/h (0 Bft) NW 317 2 min 0,000 mm 0,0 UV-I 27 W/m 5,7 C 19,3 C 1,6 km/h (1 Bft) 98,00 %
13.07.2017 20:38 19,2 C 25,6 C 43 % 1016,5 hPa 0,0 l/m 0,0 km/h (0 Bft) NW 317 0 min 0,000 mm 0,0 UV-I 22 W/m 6,3 C 19,2 C 0,0 km/h (0 Bft) 100,00 %
13.07.2017 20:40 19,1 C 25,6 C 43 % 1016,6 hPa 0,0 l/m 0,1 km/h (0 Bft) NW 317 0 min 0,000 mm 0,0 UV-I 19 W/m 6,2 C 19,1 C 1,6 km/h (1 Bft) 100,00 %
13.07.2017 20:42 19,0 C 25,6 C 44 % 1016,6 hPa 0,0 l/m 0,5 km/h (0 Bft) NW 317 2 min 0,000 mm 0,0 UV-I 18 W/m 6,5 C 19,0 C 3,2 km/h (1 Bft) 96,23 %
13.07.2017 20:44 18,9 C 25,6 C 43 % 1016,6 hPa 0,0 l/m 0,0 km/h (0 Bft) NW 317 2 min 0,000 mm 0,0 UV-I 18 W/m 6,0 C 18,9 C 0,0 km/h (0 Bft) 100,00 %
13.07.2017 20:46 18,8 C 25,6 C 43 % 1016,6 hPa 0,0 l/m 0,1 km/h (0 Bft) NW 317 2 min 0,000 mm 0,0 UV-I 16 W/m 6,0 C 18,8 C 1,6 km/h (1 Bft) 97,37 %
13.07.2017 20:48 18,6 C 25,6 C 44 % 1016,6 hPa 0,0 l/m 0,0 km/h (0 Bft) NW 317 2 min 0,000 mm 0,0 UV-I 16 W/m 6,1 C 18,6 C 0,0 km/h (0 Bft) 98,11 %
13.07.2017 20:50 18,6 C 25,6 C 44 % 1016,6 hPa 0,0 l/m 0,5 km/h (0 Bft) NW 317 0 min 0,000 mm 0,0 UV-I 14 W/m 6,1 C 18,6 C 3,2 km/h (1 Bft) 97,37 %
13.07.2017 20:52 18,5 C 25,6 C 44 % 1016,7 hPa 0,0 l/m 0,2 km/h (0 Bft) NW 317 0 min 0,000 mm 0,0 UV-I 14 W/m 6,0 C 18,5 C 1,6 km/h (1 Bft) 98,11 %
13.07.2017 20:54 18,4 C 25,6 C 44 % 1016,7 hPa 0,0 l/m 0,2 km/h (0 Bft) NW 325 0 min 0,000 mm 0,0 UV-I 12 W/m 5,9 C 18,4 C 1,6 km/h (1 Bft) 95,74 %
13.07.2017 20:56 18,4 C 25,0 C 44 % 1016,7 hPa 0,0 l/m 0,0 km/h (0 Bft) NW 325 0 min 0,000 mm 0,0 UV-I 12 W/m 5,9 C 18,4 C 0,0 km/h (0 Bft) 97,87 %
13.07.2017 20:58 18,3 C 25,0 C 44 % 1016,6 hPa 0,0 l/m 0,3 km/h (0 Bft) NW 325 0 min 0,000 mm 0,0 UV-I 11 W/m 5,8 C 18,3 C 1,6 km/h (1 Bft) 97,87 %
13.07.2017 21:00 18,3 C 25,0 C 44 % 1016,7 hPa 0,0 l/m 0,2 km/h (0 Bft) NW 325 0 min 0,000 mm 0,0 UV-I 10 W/m 5,8 C 18,3 C 1,6 km/h (1 Bft) 96,00 %
13.07.2017 21:02 18,2 C 25,0 C 44 % 1016,8 hPa 0,0 l/m 0,0 km/h (0 Bft) NW 325 0 min 0,051 mm 0,0 UV-I 9 W/m 5,7 C 18,2 C 0,0 km/h (0 Bft) 98,00 %
13.07.2017 21:04 18,2 C 25,0 C 44 % 1016,8 hPa 0,0 l/m 0,0 km/h (0 Bft) NW 325 0 min 0,000 mm 0,0 UV-I 7 W/m 5,7 C 18,2 C 0,0 km/h (0 Bft) 97,87 %
13.07.2017 21:06 18,1 C 25,0 C 44 % 1016,8 hPa 0,0 l/m 0,0 km/h (0 Bft) NW 325 0 min 0,000 mm 0,0 UV-I 7 W/m 5,7 C 18,1 C 0,0 km/h (0 Bft) 94,74 %
13.07.2017 21:08 17,9 C 25,0 C 48 % 1016,7 hPa 0,0 l/m 0,1 km/h (0 Bft) NW 325 0 min 0,000 mm 0,0 UV-I 6 W/m 6,7 C 17,9 C 1,6 km/h (1 Bft) 97,87 %
13.07.2017 21:10 17,6 C 25,0 C 49 % 1016,8 hPa 0,0 l/m 0,0 km/h (0 Bft) NW 325 0 min 0,000 mm 0,0 UV-I 5 W/m 6,8 C 17,6 C 0,0 km/h (0 Bft) 97,22 %
13.07.2017 21:12 17,2 C 25,0 C 51 % 1016,7 hPa 0,0 l/m 0,0 km/h (0 Bft) NW 325 0 min 0,000 mm 0,0 UV-I 5 W/m 7,0 C 17,2 C 0,0 km/h (0 Bft) 98,44 %
13.07.2017 21:14 16,8 C 25,0 C 54 % 1016,8 hPa 0,0 l/m 1,3 km/h (1 Bft) NW 325 0 min 0,000 mm 0,0 UV-I 5 W/m 7,4 C 16,8 C 3,2 km/h (1 Bft) 97,62 %
13.07.2017 21:16 16,5 C 25,0 C 56 % 1016,8 hPa 0,0 l/m 1,4 km/h (1 Bft) NW 325 0 min 0,000 mm 0,0 UV-I 4 W/m 7,7 C 16,5 C 3,2 km/h (1 Bft) 95,45 %
13.07.2017 21:18 16,2 C 25,0 C 59 % 1016,8 hPa 0,0 l/m 2,8 km/h (1 Bft) NW 325 0 min 0,000 mm 0,0 UV-I 0 W/m 8,2 C 16,2 C 4,8 km/h (1 Bft) 98,11 %
13.07.2017 21:20 16,0 C 25,0 C 60 % 1016,9 hPa 0,0 l/m 3,1 km/h (1 Bft) NW 325 0 min 0,000 mm 0,0 UV-I 0 W/m 8,2 C 16,0 C 3,2 km/h (1 Bft) 97,56 %
13.07.2017 21:22 15,8 C 25,0 C 58 % 1016,9 hPa 0,0 l/m 2,7 km/h (1 Bft) NW 325 0 min 0,000 mm 0,0 UV-I 0 W/m 7,6 C 15,8 C 3,2 km/h (1 Bft) 98,11 %
13.07.2017 21:24 15,7 C 25,0 C 57 % 1016,8 hPa 0,0 l/m 2,6 km/h (1 Bft) NW 325 0 min 0,000 mm 0,0 UV-I 0 W/m 7,2 C 15,7 C 3,2 km/h (1 Bft) 95,74 %
13.07.2017 21:26 15,7 C 25,0 C 54 % 1016,9 hPa 0,0 l/m 1,8 km/h (1 Bft) NW 325 0 min 0,000 mm 0,0 UV-I 0 W/m 6,4 C 15,7 C 3,2 km/h (1 Bft) 92,68 %
13.07.2017 21:28 15,8 C 25,0 C 57 % 1016,9 hPa 0,0 l/m 0,1 km/h (0 Bft) NW 325 0 min 0,000 mm 0,0 UV-I 0 W/m 7,3 C 15,8 C 1,6 km/h (1 Bft) 100,00 %
13.07.2017 21:30 15,7 C 25,0 C 58 % 1016,9 hPa 0,0 l/m 0,7 km/h (0 Bft) NW 325 0 min 0,000 mm 0,0 UV-I 0 W/m 7,5 C 15,7 C 3,2 km/h (1 Bft) 96,00 %
13.07.2017 21:32 15,7 C 25,0 C 56 % 1016,9 hPa 0,0 l/m 1,3 km/h (1 Bft) NW 325 0 min 0,000 mm 0,0 UV-I 0 W/m 6,9 C 15,7 C 1,6 km/h (1 Bft) 97,56 %
13.07.2017 21:34 15,7 C 25,0 C 56 % 1016,9 hPa 0,0 l/m 0,9 km/h (0 Bft) NW 325 0 min 0,000 mm 0,0 UV-I 0 W/m 6,9 C 15,7 C 3,2 km/h (1 Bft) 98,00 %
13.07.2017 21:36 15,7 C 25,0 C 58 % 1017,0 hPa 0,0 l/m 0,0 km/h (0 Bft) NW 325 0 min 0,000 mm 0,0 UV-I 0 W/m 7,5 C 15,7 C 0,0 km/h (0 Bft) 100,00 %
13.07.2017 21:38 15,6 C 25,0 C 60 % 1017,0 hPa 0,0 l/m 0,0 km/h (0 Bft) NW 325 0 min 0,000 mm 0,0 UV-I 0 W/m 7,9 C 15,6 C 0,0 km/h (0 Bft) 97,87 %
13.07.2017 21:40 15,4 C 25,0 C 60 % 1017,0 hPa 0,0 l/m 0,0 km/h (0 Bft) NW 325 0 min 0,000 mm 0,0 UV-I 0 W/m 7,7 C 15,4 C 0,0 km/h (0 Bft) 97,87 %
13.07.2017 21:42 15,3 C 25,0 C 60 % 1017,0 hPa 0,0 l/m 0,0 km/h (0 Bft) NW 325 0 min 0,000 mm 0,0 UV-I 0 W/m 7,6 C 15,3 C 1,6 km/h (1 Bft) 95,74 %
13.07.2017 21:44 15,2 C 25,0 C 59 % 1017,0 hPa 0,0 l/m 0,1 km/h (0 Bft) NW 325 0 min 0,000 mm 0,0 UV-I 0 W/m 7,2 C 15,2 C 1,6 km/h (1 Bft) 92,11 %
13.07.2017 21:46 15,2 C 25,0 C 58 % 1017,0 hPa 0,0 l/m 0,0 km/h (0 Bft) NW 325 0 min 0,000 mm 0,0 UV-I 0 W/m 7,0 C 15,2 C 1,6 km/h (1 Bft) 96,23 %
13.07.2017 21:48 15,3 C 25,0 C 59 % 1017,1 hPa 0,0 l/m 0,0 km/h (0 Bft) NW 325 0 min 0,000 mm 0,0 UV-I 0 W/m 7,3 C 15,3 C 0,0 km/h (0 Bft) 92,86 %
13.07.2017 21:50 15,3 C 25,0 C 58 % 1017,1 hPa 0,0 l/m 0,0 km/h (0 Bft) NW 325 0 min 0,000 mm 0,0 UV-I 0 W/m 7,1 C 15,3 C 0,0 km/h (0 Bft) 95,74 %
13.07.2017 21:52 15,4 C 25,0 C 59 % 1017,0 hPa 0,0 l/m 0,0 km/h (0 Bft) NW 325 0 min 0,000 mm 0,0 UV-I 0 W/m 7,4 C 15,4 C 0,0 km/h (0 Bft) 98,18 %
13.07.2017 21:54 15,3 C 25,0 C 62 % 1017,1 hPa 0,0 l/m 0,0 km/h (0 Bft) NW 325 0 min 0,000 mm 0,0 UV-I 0 W/m 8,1 C 15,3 C 0,0 km/h (0 Bft) 94,44 %
13.07.2017 21:56 15,3 C 25,0 C 61 % 1017,1 hPa 0,0 l/m 0,0 km/h (0 Bft) NW 325 0 min 0,000 mm 0,0 UV-I 0 W/m 7,8 C 15,3 C 0,0 km/h (0 Bft) 94,64 %
13.07.2017 21:58 15,3 C 25,0 C 62 % 1017,2 hPa 0,0 l/m 0,0 km/h (0 Bft) NW 325 0 min 0,000 mm 0,0 UV-I 0 W/m 8,1 C 15,3 C 0,0 km/h (0 Bft) 94,00 %
13.07.2017 22:00 15,2 C 25,0 C 62 % 1017,2 hPa 0,0 l/m 0,0 km/h (0 Bft) NW 325 0 min 0,025 mm 0,0 UV-I 0 W/m 8,0 C 15,2 C 0,0 km/h (0 Bft) 93,48 %
13.07.2017 22:02 15,2 C 25,0 C 62 % 1017,2 hPa 0,0 l/m 0,0 km/h (0 Bft) NW 325 0 min 0,000 mm 0,0 UV-I 0 W/m 8,0 C 15,2 C 0,0 km/h (0 Bft) 94,87 %
13.07.2017 22:04 15,1 C 25,0 C 62 % 1017,2 hPa 0,0 l/m 0,0 km/h (0 Bft) NW 325 0 min 0,000 mm 0,0 UV-I 0 W/m 7,9 C 15,1 C 0,0 km/h (0 Bft) 94,00 %
13.07.2017 22:06 15,0 C 25,0 C 63 % 1017,2 hPa 0,0 l/m 0,4 km/h (0 Bft) NW 325 0 min 0,000 mm 0,0 UV-I 0 W/m 8,0 C 15,0 C 1,6 km/h (1 Bft) 96,00 %
13.07.2017 22:08 14,9 C 25,0 C 61 % 1017,2 hPa 0,0 l/m 0,7 km/h (0 Bft) NW 325 0 min 0,000 mm 0,0 UV-I 0 W/m 7,4 C 14,9 C 1,6 km/h (1 Bft) 94,74 %
13.07.2017 22:10 14,9 C 25,0 C 60 % 1017,2 hPa 0,0 l/m 0,3 km/h (0 Bft) NW 325 0 min 0,000 mm 0,0 UV-I 0 W/m 7,2 C 14,9 C 1,6 km/h (1 Bft) 95,74 %
13.07.2017 22:12 15,0 C 25,0 C 61 % 1017,1 hPa 0,0 l/m 1,2 km/h (1 Bft) NW 325 0 min 0,000 mm 0,0 UV-I 0 W/m 7,5 C 15,0 C 3,2 km/h (1 Bft) 90,00 %
13.07.2017 22:14 14,8 C 25,0 C 62 % 1017,2 hPa 0,0 l/m 2,2 km/h (1 Bft) NW 325 0 min 0,000 mm 0,0 UV-I 0 W/m 7,6 C 14,8 C 3,2 km/h (1 Bft) 94,34 %
13.07.2017 22:16 14,7 C 25,0 C 60 % 1017,2 hPa 0,0 l/m 1,7 km/h (1 Bft) NW 325 0 min 0,000 mm 0,0 UV-I 0 W/m 7,0 C 14,7 C 3,2 km/h (1 Bft) 92,31 %
13.07.2017 22:18 14,7 C 25,0 C 56 % 1017,2 hPa 0,0 l/m 2,6 km/h (1 Bft) NW 325 0 min 0,000 mm 0,0 UV-I 0 W/m 6,0 C 14,7 C 4,8 km/h (1 Bft) 92,00 %
13.07.2017 22:20 14,7 C 25,0 C 56 % 1017,2 hPa 0,0 l/m 4,8 km/h (1 Bft) NW 325 0 min 0,000 mm 0,0 UV-I 0 W/m 6,0 C 14,7 C 6,4 km/h (2 Bft) 95,74 %
13.07.2017 22:22 14,8 C 25,0 C 56 % 1017,1 hPa 0,0 l/m 5,7 km/h (1 Bft) O-SO 117 0 min 0,000 mm 0,0 UV-I 0 W/m 6,1 C 14,8 C 6,4 km/h (2 Bft) 92,68 %
13.07.2017 22:24 14,9 C 25,0 C 58 % 1017,1 hPa 0,0 l/m 5,1 km/h (1 Bft) O-SO 120 0 min 0,000 mm 0,0 UV-I 0 W/m 6,7 C 14,9 C 6,4 km/h (2 Bft) 96,00 %
13.07.2017 22:26 14,8 C 25,0 C 59 % 1017,1 hPa 0,0 l/m 3,9 km/h (1 Bft) O-SO 120 0 min 0,000 mm 0,0 UV-I 0 W/m 6,9 C 14,8 C 4,8 km/h (1 Bft) 92,00 %
13.07.2017 22:28 14,6 C 25,0 C 60 % 1017,1 hPa 0,0 l/m 1,4 km/h (1 Bft) O-SO 120 0 min 0,000 mm 0,0 UV-I 0 W/m 6,9 C 14,6 C 3,2 km/h (1 Bft) 97,62 %
13.07.2017 22:30 14,4 C 25,0 C 60 % 1017,1 hPa 0,0 l/m 0,4 km/h (0 Bft) O-SO 120 0 min 0,000 mm 0,0 UV-I 0 W/m 6,7 C 14,4 C 1,6 km/h (1 Bft) 93,62 %
13.07.2017 22:32 14,3 C 25,0 C 59 % 1017,1 hPa 0,0 l/m 0,4 km/h (0 Bft) O-SO 120 0 min 0,000 mm 0,0 UV-I 0 W/m 6,4 C 14,3 C 3,2 km/h (1 Bft) 92,68 %
13.07.2017 22:34 14,3 C 25,0 C 61 % 1017,2 hPa 0,0 l/m 0,2 km/h (0 Bft) O-SO 120 0 min 0,000 mm 0,0 UV-I 0 W/m 6,9 C 14,3 C 1,6 km/h (1 Bft) 95,16 %
13.07.2017 22:36 14,4 C 25,0 C 62 % 1017,2 hPa 0,0 l/m 0,0 km/h (0 Bft) O-SO 120 0 min 0,000 mm 0,0 UV-I 0 W/m 7,2 C 14,4 C 0,0 km/h (0 Bft) 94,74 %
13.07.2017 22:38 14,3 C 25,0 C 63 % 1017,2 hPa 0,0 l/m 0,0 km/h (0 Bft) O-SO 120 0 min 0,000 mm 0,0 UV-I 0 W/m 7,4 C 14,3 C 0,0 km/h (0 Bft) 96,00 %
13.07.2017 22:40 14,2 C 25,0 C 63 % 1017,2 hPa 0,0 l/m 0,1 km/h (0 Bft) O-SO 120 0 min 0,000 mm 0,0 UV-I 0 W/m 7,3 C 14,2 C 1,6 km/h (1 Bft) 96,00 %
13.07.2017 22:42 14,2 C 25,0 C 63 % 1017,2 hPa 0,0 l/m 0,0 km/h (0 Bft) O-SO 120 0 min 0,000 mm 0,0 UV-I 0 W/m 7,3 C 14,2 C 0,0 km/h (0 Bft) 100,00 %
13.07.2017 22:44 14,2 C 25,0 C 63 % 1017,1 hPa 0,0 l/m 0,0 km/h (0 Bft) O-SO 120 0 min 0,000 mm 0,0 UV-I 0 W/m 7,3 C 14,2 C 0,0 km/h (0 Bft) 97,14 %
13.07.2017 22:46 14,2 C 25,0 C 63 % 1017,2 hPa 0,0 l/m 0,0 km/h (0 Bft) O-SO 120 0 min 0,000 mm 0,0 UV-I 0 W/m 7,3 C 14,2 C 0,0 km/h (0 Bft) 98,11 %
13.07.2017 22:48 14,1 C 25,0 C 63 % 1017,1 hPa 0,0 l/m 0,0 km/h (0 Bft) O-SO 120 0 min 0,000 mm 0,0 UV-I 0 W/m 7,2 C 14,1 C 0,0 km/h (0 Bft) 100,00 %
13.07.2017 22:50 14,1 C 25,0 C 65 % 1017,1 hPa 0,0 l/m 0,0 km/h (0 Bft) O-SO 120 0 min 0,000 mm 0,0 UV-I 0 W/m 7,6 C 14,1 C 0,0 km/h (0 Bft) 95,74 %
13.07.2017 22:52 14,0 C 25,0 C 67 % 1017,1 hPa 0,0 l/m 0,0 km/h (0 Bft) O-SO 120 0 min 0,000 mm 0,0 UV-I 0 W/m 8,0 C 14,0 C 0,0 km/h (0 Bft) 97,37 %
13.07.2017 22:54 13,8 C 25,0 C 67 % 1017,1 hPa 0,0 l/m 0,0 km/h (0 Bft) O-SO 120 0 min 0,000 mm 0,0 UV-I 0 W/m 7,8 C 13,8 C 0,0 km/h (0 Bft) 100,00 %
13.07.2017 22:56 13,8 C 25,0 C 68 % 1017,1 hPa 0,0 l/m 1,5 km/h (1 Bft) O-SO 120 0 min 0,000 mm 0,0 UV-I 0 W/m 8,0 C 13,8 C 3,2 km/h (1 Bft) 98,00 %
13.07.2017 22:58 13,8 C 25,0 C 67 % 1017,1 hPa 0,0 l/m 0,7 km/h (0 Bft) O-SO 120 0 min 0,000 mm 0,0 UV-I 0 W/m 7,8 C 13,8 C 3,2 km/h (1 Bft) 97,87 %
13.07.2017 23:00 13,7 C 25,0 C 67 % 1017,1 hPa 0,0 l/m 2,4 km/h (1 Bft) O-SO 120 0 min 0,000 mm 0,0 UV-I 0 W/m 7,7 C 13,7 C 4,8 km/h (1 Bft) 98,11 %
13.07.2017 23:02 13,7 C 25,0 C 67 % 1017,1 hPa 0,0 l/m 2,6 km/h (1 Bft) O-SO 120 0 min 0,025 mm 0,0 UV-I 0 W/m 7,7 C 13,7 C 4,8 km/h (1 Bft) 97,87 %
13.07.2017 23:04 13,7 C 25,0 C 67 % 1017,1 hPa 0,0 l/m 3,1 km/h (1 Bft) O-SO 120 0 min 0,000 mm 0,0 UV-I 0 W/m 7,7 C 13,7 C 4,8 km/h (1 Bft) 97,37 %
13.07.2017 23:06 13,7 C 25,0 C 66 % 1017,1 hPa 0,0 l/m 2,3 km/h (1 Bft) O-SO 120 0 min 0,000 mm 0,0 UV-I 0 W/m 7,5 C 13,7 C 3,2 km/h (1 Bft) 98,00 %
13.07.2017 23:08 13,7 C 25,0 C 66 % 1017,1 hPa 0,0 l/m 3,8 km/h (1 Bft) O-SO 120 0 min 0,000 mm 0,0 UV-I 0 W/m 7,5 C 13,7 C 4,8 km/h (1 Bft) 100,00 %
13.07.2017 23:10 13,7 C 25,0 C 67 % 1017,1 hPa 0,0 l/m 3,3 km/h (1 Bft) O-SO 120 0 min 0,000 mm 0,0 UV-I 0 W/m 7,7 C 13,7 C 4,8 km/h (1 Bft) 100,00 %
13.07.2017 23:12 13,6 C 25,0 C 66 % 1017,1 hPa 0,0 l/m 2,9 km/h (1 Bft) O-SO 120 0 min 0,000 mm 0,0 UV-I 0 W/m 7,4 C 13,6 C 4,8 km/h (1 Bft) 98,00 %
13.07.2017 23:14 13,5 C 25,0 C 66 % 1017,0 hPa 0,0 l/m 1,8 km/h (1 Bft) O-SO 120 0 min 0,000 mm 0,0 UV-I 0 W/m 7,3 C 13,5 C 3,2 km/h (1 Bft) 100,00 %
13.07.2017 23:16 13,4 C 25,0 C 65 % 1017,0 hPa 0,0 l/m 0,9 km/h (0 Bft) O-SO 120 0 min 0,000 mm 0,0 UV-I 0 W/m 7,0 C 13,4 C 1,6 km/h (1 Bft) 100,00 %
13.07.2017 23:18 13,3 C 25,0 C 65 % 1017,1 hPa 0,0 l/m 1,1 km/h (1 Bft) O-SO 120 0 min 0,000 mm 0,0 UV-I 0 W/m 6,9 C 13,3 C 1,6 km/h (1 Bft) 97,87 %
13.07.2017 23:20 13,2 C 25,0 C 64 % 1017,1 hPa 0,0 l/m 0,0 km/h (0 Bft) O-SO 120 0 min 0,000 mm 0,0 UV-I 0 W/m 6,5 C 13,2 C 0,0 km/h (0 Bft) 100,00 %
13.07.2017 23:22 13,2 C 25,0 C 64 % 1017,1 hPa 0,0 l/m 0,0 km/h (0 Bft) O-SO 120 0 min 0,000 mm 0,0 UV-I 0 W/m 6,5 C 13,2 C 0,0 km/h (0 Bft) 97,92 %
13.07.2017 23:24 13,2 C 25,0 C 65 % 1017,2 hPa 0,0 l/m 0,0 km/h (0 Bft) O-SO 120 0 min 0,000 mm 0,0 UV-I 0 W/m 6,8 C 13,2 C 0,0 km/h (0 Bft) 98,00 %
13.07.2017 23:26 13,3 C 25,0 C 66 % 1017,2 hPa 0,0 l/m 0,2 km/h (0 Bft) O-SO 120 0 min 0,000 mm 0,0 UV-I 0 W/m 7,1 C 13,3 C 1,6 km/h (1 Bft) 98,11 %
13.07.2017 23:28 13,3 C 25,0 C 65 % 1017,2 hPa 0,0 l/m 0,6 km/h (0 Bft) O-SO 120 0 min 0,000 mm 0,0 UV-I 0 W/m 6,9 C 13,3 C 1,6 km/h (1 Bft) 100,00 %
13.07.2017 23:30 13,3 C 25,0 C 65 % 1017,1 hPa 0,0 l/m 0,4 km/h (0 Bft) O-SO 120 0 min 0,000 mm 0,0 UV-I 0 W/m 6,9 C 13,3 C 1,6 km/h (1 Bft) 100,00 %
13.07.2017 23:32 13,3 C 25,0 C 65 % 1017,1 hPa 0,0 l/m 0,5 km/h (0 Bft) O-SO 120 0 min 0,000 mm 0,0 UV-I 0 W/m 6,9 C 13,3 C 1,6 km/h (1 Bft) 100,00 %
13.07.2017 23:34 13,2 C 25,0 C 66 % 1017,1 hPa 0,0 l/m 0,0 km/h (0 Bft) O-SO 120 0 min 0,000 mm 0,0 UV-I 0 W/m 7,0 C 13,2 C 0,0 km/h (0 Bft) 100,00 %
13.07.2017 23:36 13,1 C 25,0 C 66 % 1017,1 hPa 0,0 l/m 0,5 km/h (0 Bft) O-SO 120 0 min 0,000 mm 0,0 UV-I 0 W/m 6,9 C 13,1 C 1,6 km/h (1 Bft) 98,00 %
13.07.2017 23:38 13,1 C 25,0 C 67 % 1017,1 hPa 0,0 l/m 1,2 km/h (1 Bft) O-SO 120 0 min 0,000 mm 0,0 UV-I 0 W/m 7,1 C 13,1 C 3,2 km/h (1 Bft) 98,00 %
13.07.2017 23:40 13,1 C 25,0 C 66 % 1017,1 hPa 0,0 l/m 0,1 km/h (0 Bft) O-SO 120 0 min 0,000 mm 0,0 UV-I 0 W/m 6,9 C 13,1 C 1,6 km/h (1 Bft) 97,37 %
13.07.2017 23:42 12,9 C 25,0 C 66 % 1017,0 hPa 0,0 l/m 0,6 km/h (0 Bft) O-SO 120 0 min 0,000 mm 0,0 UV-I 0 W/m 6,7 C 12,9 C 1,6 km/h (1 Bft) 94,64 %
13.07.2017 23:44 12,9 C 25,0 C 64 % 1017,0 hPa 0,0 l/m 1,2 km/h (1 Bft) O-SO 120 0 min 0,000 mm 0,0 UV-I 0 W/m 6,3 C 12,9 C 3,2 km/h (1 Bft) 100,00 %
13.07.2017 23:46 13,1 C 25,0 C 66 % 1017,0 hPa 0,0 l/m 1,5 km/h (1 Bft) O-SO 120 0 min 0,000 mm 0,0 UV-I 0 W/m 6,9 C 13,1 C 3,2 km/h (1 Bft) 100,00 %
13.07.2017 23:48 13,2 C 25,0 C 66 % 1017,0 hPa 0,0 l/m 0,5 km/h (0 Bft) O-SO 120 0 min 0,000 mm 0,0 UV-I 0 W/m 7,0 C 13,2 C 1,6 km/h (1 Bft) 100,00 %
13.07.2017 23:50 13,0 C 25,0 C 67 % 1017,0 hPa 0,0 l/m 2,1 km/h (1 Bft) O-SO 120 0 min 0,000 mm 0,0 UV-I 0 W/m 7,0 C 13,0 C 3,2 km/h (1 Bft) 100,00 %
13.07.2017 23:52 12,8 C 25,0 C 66 % 1017,0 hPa 0,0 l/m 0,4 km/h (0 Bft) O-SO 120 0 min 0,000 mm 0,0 UV-I 0 W/m 6,6 C 12,8 C 1,6 km/h (1 Bft) 95,74 %
13.07.2017 23:54 12,8 C 25,0 C 67 % 1017,0 hPa 0,0 l/m 0,1 km/h (0 Bft) O-SO 120 0 min 0,000 mm 0,0 UV-I 0 W/m 6,8 C 12,8 C 1,6 km/h (1 Bft) 96,23 %
13.07.2017 23:56 12,9 C 25,0 C 67 % 1017,0 hPa 0,0 l/m 0,0 km/h (0 Bft) O-SO 120 0 min 0,000 mm 0,0 UV-I 0 W/m 6,9 C 12,9 C 0,0 km/h (0 Bft) 95,45 %
13.07.2017 23:58 12,9 C 25,0 C 67 % 1017,0 hPa 0,0 l/m 0,0 km/h (0 Bft) O-SO 120 0 min 0,000 mm 0,0 UV-I 0 W/m 6,9 C 12,9 C 0,0 km/h (0 Bft) 97,87 %
_ Min-Zeit 23:52 06:16 16:06 00:00 - 20:36 - - - - - - 20:14 04:00 20:38 04:05
Minimum _ 12,8 C 23,9 C 35 % 1013,2 hPa - 0,0 km/h (0 Bft) - - - - - - 5,6 C 10,9 C 0,0 km/h (0 Bft) 4,76 %
_ Max-Zeit 17:16 00:00 00:00 11:40 00:00 14:52 - - 10:23 14:00 13:02 13:36 00:00 17:16 14:52 00:02
Maximum _ 23,2 C 25,6 C 87 % 1019,1 hPa 0,0 l/m 25,0 km/h
SW (4 Bft)
- - 3 min 0,661 mm 6,5 UV-I 951 W/m 16,1 C 23,2 C 53,1 km/h
W-SW (7 Bft)
100,00 %
Durchschnitt _ 18,5 C 24,8 C 61 % 1017,3 hPa #0,0 l/m 9,7 km/h (2 Bft) W-SW - #11:40 h #5,613 mm 3,6 UV-I 465 W/m 10,2 C 16,8 C 17,0 km/h (3 Bft) 96,18 %